[[{"header":{"parameterUnit":"m.s-1","parameterCategory":1,"la1":30.6,"la2":29.2853,"lo1":-89.7004,"lo2":-87.6739,"dy":0.0162,"dx":0.0183,"nx":112,"ny":82,"refTime":"2026-05-06T12:00:00:Z","depth":0,"parameterNumber":2,"parameterNumberName":"U-component_of_WINDS"},"data":[0.0,0.0,0.0,0.0,0.0,0.0,0.0,0.0,0.0,0.0,0.0,0.0,0.0,0.0,0.0,0.0,0.0,0.0,0.0,0.0,0.0,0.0,0.0,0.0,0.0,0.0,0.0,0.0,0.0,0.0,0.0,0.0,0.0,0.0,0.0,0.0,0.0,0.0,0.0,0.0,0.0,0.0,0.0,0.0,0.0,0.0,0.0,0.0,0.0,0.0,0.0,0.0,0.0,0.0,0.0,0.0,0.0,0.0,0.0,0.0,0.0,0.0,0.0,0.0,0.0,0.0,0.0,0.0,0.0,0.0,0.0,0.0,0.0,0.0,0.0,0.0,0.0,0.0,0.0,0.0,0.0,0.0,0.0,0.0,0.0,0.0,0.0,0.0,0.0,0.0,-2.1251,-2.0791,-2.1923,-2.2699,-2.2699,-2.2699,-2.1901,-2.0013,0.0,0.0,0.0,0.0,0.0,0.0,0.0,0.0,0.0,0.0,0.0,0.0,0.0,0.0,0.0,0.0,0.0,0.0,0.0,0.0,0.0,0.0,0.0,0.0,0.0,0.0,0.0,0.0,0.0,0.0,0.0,0.0,0.0,0.0,0.0,0.0,0.0,0.0,0.0,0.0,0.0,0.0,0.0,0.0,0.0,0.0,0.0,0.0,0.0,0.0,0.0,0.0,0.0,0.0,0.0,0.0,0.0,0.0,0.0,0.0,0.0,0.0,0.0,0.0,0.0,0.0,0.0,0.0,0.0,0.0,0.0,0.0,0.0,0.0,0.0,0.0,0.0,0.0,0.0,0.0,0.0,0.0,0.0,0.0,0.0,0.0,0.0,0.0,0.0,0.0,0.0,0.0,0.0,0.0,0.0,0.0,0.0,0.0,0.0,0.0,0.0,0.0,0.0,0.0,-2.1044,-2.2216,-2.2561,-2.2699,-2.2699,-2.2699,-2.1901,-2.0013,0.0,0.0,0.0,0.0,0.0,0.0,0.0,0.0,0.0,0.0,0.0,0.0,0.0,0.0,0.0,0.0,0.0,0.0,0.0,0.0,0.0,0.0,0.0,0.0,0.0,0.0,0.0,0.0,0.0,0.0,0.0,0.0,0.0,0.0,0.0,0.0,0.0,0.0,0.0,0.0,0.0,0.0,0.0,0.0,0.0,0.0,0.0,0.0,0.0,0.0,0.0,0.0,0.0,0.0,0.0,0.0,0.0,0.0,0.0,0.0,0.0,0.0,0.0,0.0,0.0,0.0,0.0,0.0,0.0,0.0,0.0,0.0,0.0,0.0,0.0,0.0,0.0,0.0,0.0,0.0,0.0,0.0,0.0,0.0,0.0,0.0,0.0,0.0,0.0,0.0,0.0,0.0,0.0,0.0,0.0,0.0,0.0,0.0,0.0,0.0,0.0,0.0,0.0,-2.0079,-2.132,-2.2561,-2.2699,-2.2699,-2.2699,-2.2699,-2.1953,-2.0221,-2.0153,0.0,0.0,0.0,0.0,0.0,0.0,0.0,0.0,0.0,0.0,0.0,0.0,0.0,0.0,0.0,0.0,0.0,0.0,0.0,0.0,0.0,0.0,0.0,0.0,0.0,0.0,0.0,0.0,0.0,0.0,0.0,0.0,0.0,0.0,0.0,0.0,0.0,0.0,0.0,0.0,0.0,0.0,0.0,0.0,0.0,0.0,0.0,0.0,0.0,0.0,0.0,0.0,0.0,0.0,0.0,0.0,0.0,0.0,0.0,0.0,0.0,0.0,0.0,0.0,0.0,0.0,0.0,0.0,0.0,0.0,0.0,0.0,0.0,0.0,0.0,0.0,0.0,0.0,0.0,0.0,0.0,0.0,0.0,0.0,0.0,0.0,0.0,0.0,0.0,0.0,0.0,0.0,0.0,0.0,0.0,0.0,0.0,0.0,0.0,0.0,0.0,0.0,-2.0613,-2.1458,-2.2578,-2.2699,-2.2699,-2.2699,-2.2685,-2.1996,-2.0404,-2.0106,0.0,0.0,0.0,0.0,0.0,0.0,0.0,0.0,0.0,0.0,0.0,0.0,0.0,0.0,0.0,0.0,0.0,0.0,0.0,0.0,0.0,0.0,0.0,0.0,0.0,0.0,0.0,0.0,0.0,0.0,0.0,0.0,0.0,0.0,0.0,0.0,0.0,0.0,0.0,0.0,0.0,0.0,0.0,0.0,0.0,0.0,0.0,0.0,0.0,0.0,0.0,0.0,0.0,0.0,0.0,0.0,0.0,0.0,0.0,0.0,0.0,0.0,0.0,0.0,0.0,0.0,0.0,0.0,0.0,0.0,0.0,0.0,0.0,0.0,0.0,0.0,0.0,0.0,0.0,0.0,0.0,0.0,0.0,0.0,0.0,0.0,0.0,0.0,0.0,0.0,0.0,0.0,0.0,0.0,0.0,0.0,0.0,0.0,0.0,0.0,0.0,0.0,-2.0734,-2.1032,-2.2543,-2.2699,-2.2699,-2.2699,-2.2646,-2.1944,-2.0404,-2.0353,0.0,0.0,0.0,0.0,0.0,0.0,0.0,0.0,0.0,0.0,0.0,0.0,0.0,0.0,0.0,0.0,0.0,0.0,0.0,0.0,0.0,0.0,0.0,0.0,0.0,0.0,0.0,0.0,0.0,0.0,0.0,0.0,0.0,0.0,0.0,0.0,0.0,0.0,0.0,0.0,0.0,0.0,0.0,0.0,0.0,0.0,0.0,0.0,0.0,0.0,0.0,0.0,0.0,0.0,0.0,0.0,0.0,0.0,0.0,0.0,0.0,0.0,0.0,0.0,0.0,0.0,0.0,0.0,0.0,0.0,0.0,0.0,0.0,0.0,0.0,0.0,0.0,0.0,0.0,0.0,0.0,0.0,0.0,0.0,0.0,0.0,0.0,0.0,0.0,0.0,0.0,0.0,0.0,0.0,0.0,0.0,0.0,0.0,0.0,0.0,0.0,0.0,-2.1957,-2.2061,-2.2647,-2.2699,-2.2699,-2.2699,-2.2229,-2.1443,-2.037,0.0,0.0,0.0,0.0,0.0,0.0,0.0,0.0,0.0,0.0,0.0,0.0,0.0,0.0,0.0,0.0,0.0,0.0,0.0,0.0,0.0,0.0,0.0,0.0,0.0,0.0,0.0,0.0,0.0,0.0,0.0,0.0,0.0,0.0,0.0,0.0,0.0,0.0,0.0,0.0,0.0,0.0,0.0,0.0,0.0,0.0,0.0,0.0,0.0,0.0,0.0,0.0,0.0,0.0,0.0,0.0,0.0,0.0,0.0,0.0,0.0,0.0,0.0,0.0,0.0,0.0,0.0,0.0,0.0,0.0,0.0,0.0,0.0,0.0,0.0,0.0,0.0,0.0,0.0,0.0,0.0,0.0,0.0,0.0,0.0,0.0,0.0,0.0,0.0,0.0,0.0,0.0,0.0,0.0,0.0,0.0,0.0,0.0,0.0,0.0,0.0,0.0,-2.244,-2.2699,-2.2699,-2.2699,-2.2699,-2.2699,-2.2699,-2.1941,-2.1121,-2.0353,0.0,0.0,0.0,0.0,0.0,0.0,0.0,0.0,0.0,0.0,0.0,0.0,0.0,0.0,0.0,0.0,0.0,0.0,0.0,0.0,0.0,0.0,0.0,0.0,0.0,0.0,0.0,0.0,0.0,0.0,0.0,0.0,0.0,0.0,0.0,0.0,0.0,0.0,0.0,0.0,0.0,0.0,0.0,0.0,0.0,0.0,0.0,0.0,0.0,0.0,0.0,0.0,0.0,0.0,0.0,0.0,0.0,0.0,0.0,0.0,0.0,0.0,0.0,0.0,0.0,0.0,0.0,0.0,0.0,0.0,0.0,0.0,0.0,0.0,0.0,0.0,0.0,0.0,0.0,0.0,0.0,0.0,0.0,0.0,0.0,0.0,0.0,0.0,0.0,0.0,0.0,0.0,0.0,0.0,0.0,0.0,0.0,0.0,0.0,0.0,0.0,0.0,-2.2699,-2.2699,-2.2699,-2.2699,-2.2699,-2.2699,-2.2681,-2.1889,-2.1071,0.0,0.0,0.0,0.0,0.0,0.0,0.0,0.0,0.0,0.0,0.0,0.0,0.0,0.0,0.0,0.0,0.0,0.0,0.0,0.0,0.0,0.0,0.0,0.0,0.0,0.0,0.0,0.0,0.0,0.0,0.0,0.0,0.0,0.0,0.0,0.0,0.0,0.0,0.0,0.0,0.0,0.0,0.0,0.0,0.0,0.0,0.0,0.0,0.0,0.0,0.0,0.0,0.0,0.0,0.0,0.0,0.0,0.0,0.0,0.0,0.0,0.0,0.0,0.0,0.0,0.0,0.0,0.0,0.0,0.0,0.0,0.0,0.0,0.0,0.0,0.0,0.0,0.0,0.0,0.0,0.0,0.0,0.0,0.0,0.0,0.0,0.0,0.0,0.0,0.0,0.0,0.0,0.0,0.0,0.0,0.0,0.0,0.0,0.0,0.0,0.0,0.0,0.0,-2.2423,-2.2699,-2.2699,-2.2699,-2.2699,-2.2461,-2.1902,-2.1104,-2.026,-1.9438,0.0,0.0,0.0,0.0,0.0,0.0,0.0,0.0,0.0,0.0,0.0,0.0,0.0,0.0,0.0,0.0,0.0,0.0,0.0,0.0,0.0,0.0,0.0,0.0,0.0,0.0,0.0,0.0,0.0,0.0,0.0,0.0,0.0,0.0,0.0,0.0,0.0,0.0,0.0,0.0,0.0,0.0,0.0,0.0,0.0,0.0,0.0,0.0,0.0,0.0,0.0,0.0,0.0,0.0,0.0,0.0,0.0,0.0,0.0,0.0,0.0,0.0,0.0,0.0,0.0,0.0,0.0,0.0,0.0,0.0,0.0,0.0,0.0,0.0,0.0,0.0,0.0,0.0,0.0,0.0,0.0,0.0,0.0,0.0,0.0,0.0,0.0,0.0,0.0,0.0,0.0,0.0,0.0,0.0,0.0,0.0,0.0,0.0,0.0,0.0,0.0,0.0,-2.2388,-2.2699,-2.2699,-2.2699,-2.2699,-2.2483,-2.1966,-2.0937,-2.006,-1.9505,0.0,0.0,0.0,0.0,0.0,0.0,0.0,0.0,0.0,0.0,0.0,0.0,0.0,0.0,0.0,0.0,0.0,0.0,0.0,0.0,0.0,0.0,0.0,0.0,0.0,0.0,0.0,0.0,0.0,0.0,0.0,0.0,0.0,0.0,0.0,0.0,0.0,0.0,0.0,0.0,0.0,0.0,0.0,0.0,0.0,0.0,0.0,0.0,0.0,0.0,0.0,0.0,0.0,0.0,0.0,0.0,0.0,0.0,0.0,0.0,0.0,0.0,0.0,0.0,0.0,0.0,0.0,0.0,0.0,0.0,0.0,0.0,0.0,0.0,0.0,0.0,0.0,0.0,0.0,0.0,0.0,0.0,0.0,0.0,0.0,0.0,0.0,0.0,0.0,0.0,0.0,0.0,0.0,0.0,0.0,0.0,0.0,0.0,0.0,0.0,0.0,0.0,-2.2526,-2.2699,-2.2699,-2.2699,-2.2699,-2.2638,-2.2489,-2.1148,-2.023,-2.0088,0.0,0.0,0.0,0.0,0.0,0.0,0.0,0.0,0.0,0.0,0.0,0.0,0.0,0.0,0.0,0.0,0.0,0.0,0.0,0.0,0.0,0.0,0.0,0.0,0.0,0.0,0.0,0.0,0.0,0.0,0.0,0.0,0.0,0.0,0.0,0.0,0.0,0.0,0.0,0.0,0.0,0.0,0.0,0.0,0.0,0.0,0.0,0.0,0.0,0.0,0.0,0.0,0.0,0.0,0.0,0.0,0.0,0.0,0.0,0.0,-2.2113,-2.1664,0.0,0.0,0.0,0.0,0.0,0.0,0.0,0.0,0.0,0.0,0.0,0.0,0.0,0.0,0.0,0.0,0.0,0.0,0.0,0.0,0.0,0.0,0.0,0.0,0.0,0.0,0.0,0.0,0.0,0.0,0.0,0.0,0.0,0.0,0.0,0.0,0.0,0.0,0.0,0.0,-2.2664,-2.2699,-2.2699,-2.2699,-2.2699,-2.2418,-2.173,-2.0814,-1.9979,-1.9217,-1.8302,0.0,0.0,0.0,0.0,0.0,0.0,0.0,0.0,0.0,0.0,0.0,0.0,0.0,0.0,0.0,0.0,0.0,0.0,0.0,0.0,0.0,0.0,0.0,0.0,0.0,0.0,0.0,0.0,0.0,0.0,0.0,0.0,0.0,0.0,0.0,0.0,0.0,0.0,0.0,0.0,0.0,0.0,0.0,0.0,0.0,0.0,0.0,0.0,0.0,0.0,0.0,0.0,0.0,0.0,0.0,0.0,0.0,0.0,0.0,-2.3746,-2.3453,0.0,0.0,0.0,0.0,0.0,0.0,0.0,0.0,0.0,0.0,0.0,0.0,0.0,0.0,0.0,0.0,0.0,0.0,0.0,0.0,0.0,0.0,0.0,0.0,0.0,0.0,0.0,0.0,0.0,0.0,0.0,0.0,0.0,0.0,0.0,0.0,0.0,0.0,0.0,0.0,-2.2647,-2.2699,-2.2699,-2.2699,-2.2672,-2.2451,-2.1964,-2.0896,-2.0033,-1.9469,-1.8408,0.0,0.0,0.0,0.0,0.0,0.0,0.0,0.0,0.0,0.0,0.0,0.0,0.0,0.0,0.0,0.0,0.0,0.0,0.0,0.0,0.0,0.0,0.0,0.0,0.0,0.0,0.0,0.0,0.0,0.0,0.0,0.0,0.0,0.0,0.0,0.0,0.0,0.0,0.0,0.0,0.0,0.0,0.0,0.0,0.0,0.0,0.0,0.0,0.0,0.0,0.0,0.0,0.0,-2.4971,-2.5333,-2.5212,-2.535,-2.5402,-2.5402,-2.5402,-2.5247,-2.4971,-2.4422,0.0,0.0,0.0,0.0,0.0,0.0,0.0,0.0,0.0,0.0,0.0,0.0,0.0,0.0,0.0,0.0,0.0,0.0,0.0,0.0,0.0,0.0,-2.1918,-2.166,-2.1492,-2.1066,-1.9877,0.0,0.0,0.0,0.0,0.0,0.0,0.0,0.0,0.0,0.0,0.0,-2.2578,-2.2699,-2.2699,-2.2685,-2.2632,-2.2582,-2.2487,-2.1084,-2.0136,-2.0014,-1.8628,-1.78,0.0,0.0,0.0,0.0,0.0,0.0,0.0,0.0,0.0,0.0,0.0,0.0,0.0,0.0,0.0,0.0,0.0,0.0,0.0,0.0,0.0,0.0,0.0,0.0,0.0,0.0,0.0,0.0,0.0,0.0,0.0,0.0,-2.0034,-2.0047,0.0,0.0,0.0,0.0,0.0,0.0,0.0,0.0,0.0,0.0,0.0,0.0,0.0,-2.2583,-2.2561,-2.4612,-2.5385,-2.4867,-2.6299,-2.6626,-2.5988,-2.6678,-2.6988,-2.6988,-2.6988,0.0,-2.504,-2.5577,0.0,0.0,0.0,0.0,0.0,0.0,0.0,0.0,0.0,0.0,0.0,0.0,0.0,0.0,0.0,0.0,0.0,0.0,0.0,0.0,0.0,0.0,-2.3198,-2.1906,-2.1061,-2.0687,-2.1182,-2.0722,-2.0245,-2.0296,-1.9964,-1.9665,0.0,0.0,0.0,0.0,0.0,0.0,-2.2595,-2.2699,-2.2672,-2.2619,-2.2623,-2.2555,-2.2419,-2.1058,-2.0136,-2.0014,-1.8628,-1.78,-1.78,-1.78,0.0,0.0,0.0,0.0,0.0,0.0,0.0,0.0,0.0,0.0,0.0,0.0,0.0,0.0,0.0,0.0,0.0,0.0,0.0,0.0,0.0,0.0,0.0,0.0,0.0,0.0,0.0,0.0,0.0,-1.9217,-2.0178,-1.9585,-2.0044,-2.0316,0.0,0.0,0.0,0.0,0.0,0.0,0.0,0.0,0.0,-2.274,-2.3869,-2.4537,-2.4609,-2.5594,-2.6146,-2.6299,-2.6971,-2.7109,-2.6782,-2.7144,-2.7299,-2.7299,-2.7299,-2.6919,-2.6281,-2.6161,-2.5697,-2.5042,0.0,0.0,0.0,0.0,-2.4474,-2.4577,-2.5335,-2.5387,-2.5094,-2.5094,0.0,0.0,0.0,0.0,0.0,0.0,0.0,-2.4008,-2.487,-2.4456,-2.375,-2.3557,-2.2888,-2.2289,-2.2233,-2.194,-2.1699,-2.1699,-2.1527,-2.1027,-1.9889,-2.0527,0.0,0.0,0.0,-2.1871,-2.2612,-2.2659,-2.2632,-2.2592,-2.2525,-2.246,-2.2391,-2.1379,-2.0742,-2.067,-1.9249,-1.842,-1.842,-1.802,-1.78,0.0,0.0,0.0,0.0,0.0,0.0,0.0,0.0,0.0,0.0,0.0,0.0,0.0,0.0,0.0,0.0,0.0,0.0,0.0,0.0,0.0,0.0,0.0,0.0,0.0,0.0,0.0,0.0,-1.979,-2.0441,-1.9703,-2.0443,-2.0915,0.0,0.0,0.0,0.0,0.0,0.0,-2.3279,-2.428,-2.4775,-2.4638,-2.5565,-2.6091,-2.6122,-2.639,-2.6788,-2.7299,-2.7376,-2.7376,-2.7299,-2.7299,-2.7299,-2.7299,-2.7299,-2.7299,-2.7247,-2.6661,-2.6299,-2.6042,-2.5505,-2.5178,-2.5023,-2.5212,-2.5281,-2.5402,-2.6161,-2.6419,-2.6419,-2.6419,-2.6281,-2.6006,-2.5454,0.0,0.0,0.0,0.0,-2.4646,-2.5801,-2.5249,-2.4439,-2.4629,-2.4232,-2.3612,-2.2854,-2.2699,-2.2699,-2.2699,-2.2699,-2.2216,-2.0734,-2.1096,0.0,-2.1049,-2.1492,-2.2078,-2.2603,-2.2619,-2.2596,-2.2555,-2.246,-2.2391,-2.238,-2.1657,-2.119,-2.119,-1.9938,-1.9181,-1.9181,-1.8645,-1.8358,-1.8358,0.0,0.0,0.0,0.0,0.0,0.0,0.0,0.0,0.0,0.0,0.0,0.0,0.0,0.0,0.0,0.0,0.0,0.0,0.0,0.0,0.0,0.0,0.0,0.0,0.0,0.0,0.0,0.0,0.0,-2.1315,-2.2264,0.0,0.0,0.0,0.0,-2.2884,-2.3721,-2.4412,-2.4957,-2.5823,-2.6052,-2.5554,-2.6189,-2.6451,-2.6209,-2.713,-2.7504,-2.7297,-2.7554,-2.7539,-2.7299,-2.7299,-2.7299,-2.7299,-2.7299,-2.7299,-2.7299,-2.7247,-2.6782,-2.6094,-2.6059,-2.5626,-2.5092,-2.5799,-2.6042,-2.6146,-2.6954,-2.723,-2.723,-2.723,-2.6713,-2.6094,-2.6059,-2.5557,0.0,0.0,-2.6008,-2.599,-2.6077,-2.6042,-2.5628,-2.4198,-2.3836,-2.3612,-2.2854,-2.2699,-2.2699,-2.2699,-2.2699,-2.2664,-2.2561,0.0,-2.2612,-2.2595,-2.2612,-2.2638,-2.2605,-2.2592,-2.2555,-2.2419,-2.2391,-2.2363,-2.231,-2.163,-2.119,-2.119,-2.0403,-1.9934,-1.9934,-1.9917,-1.9883,-1.9883,-1.9883,0.0,0.0,0.0,0.0,0.0,0.0,0.0,0.0,0.0,0.0,0.0,0.0,0.0,0.0,0.0,0.0,0.0,0.0,0.0,0.0,0.0,0.0,0.0,0.0,0.0,0.0,0.0,0.0,-2.1794,-2.2543,0.0,-2.2573,-2.2625,-2.3213,-2.4506,-2.4931,-2.5439,-2.6162,-2.7015,-2.7313,-2.6892,-2.7616,-2.788,-2.7548,-2.8375,-2.8641,-2.8349,-2.8917,-2.9052,-2.883,-2.8312,-2.8379,-2.8876,-2.8327,-2.8363,-2.8847,-2.8763,-2.7989,-2.6868,-2.6868,-2.6713,-2.6506,-2.6782,-2.6868,-2.6902,-2.7195,-2.7299,-2.7299,-2.7299,-2.7109,-2.6868,-2.6868,-2.6695,-2.6523,-2.6799,-2.6506,-2.6214,-2.6747,-2.6488,-2.5956,-2.5404,-2.4922,-2.4353,-2.3578,-2.3043,-2.2699,-2.2699,-2.2699,-2.2543,-2.2061,-2.2388,-2.2543,-2.2061,-2.2388,-2.2672,-2.2605,-2.2569,-2.2501,-2.2405,-2.2366,-2.2324,-2.2296,-2.2073,-2.1904,-2.1904,-2.1194,-2.0771,-2.0771,-2.0285,-2.0002,-2.0002,-2.0002,-1.9642,0.0,0.0,0.0,0.0,0.0,0.0,0.0,0.0,0.0,0.0,0.0,0.0,0.0,0.0,0.0,0.0,0.0,0.0,0.0,0.0,0.0,0.0,0.0,0.0,0.0,-2.2494,-2.2977,-2.238,-2.3293,-2.3866,-2.3571,-2.4051,-2.482,-2.5855,-2.6254,-2.6691,-2.7199,-2.8066,-2.84,-2.8079,-2.8844,-2.9089,-2.8783,-2.958,-2.9857,-2.9544,-3.0134,-3.0234,-2.9873,-2.935,-2.9353,-2.9774,-2.9205,-2.9241,-2.9726,-2.9609,-2.8987,-2.8106,-2.8057,-2.7937,-2.7815,-2.7696,-2.7661,-2.7627,-2.7385,-2.7299,-2.7299,-2.7299,-2.7299,-2.7299,-2.7299,-2.7299,-2.7299,-2.7299,-2.6919,-2.6626,-2.7161,-2.6902,-2.6437,-2.6146,-2.5715,-2.516,-2.437,-2.3612,-2.3078,-2.3078,-2.2871,-2.2543,-2.2061,-2.2371,-2.2526,-2.2044,-2.2595,-2.2965,-2.264,-2.2747,-2.2788,-2.2559,-2.2391,-2.2363,-2.2552,-2.2405,-2.2338,-2.2432,-2.1891,-2.1566,-2.1566,-2.1062,-2.0792,-2.0792,-2.0624,-2.0345,-1.9929,0.0,0.0,0.0,0.0,0.0,0.0,0.0,0.0,0.0,0.0,0.0,0.0,0.0,0.0,0.0,0.0,0.0,0.0,0.0,0.0,0.0,0.0,0.0,-2.3208,-2.3215,-2.3233,-2.3184,-2.467,-2.5374,-2.4568,-2.5959,-2.6878,-2.6838,-2.761,-2.8103,-2.8145,-2.8975,-2.9302,-2.9014,-2.9752,-3.0026,-2.9732,-3.0753,-3.1128,-3.0838,-3.1133,-3.0957,-3.0384,-3.0348,-3.018,-2.9894,-2.986,-2.986,-2.9878,-2.9813,-2.978,-2.9763,-2.9558,-2.9213,-2.8782,-2.8523,-2.8437,-2.8334,-2.7609,-2.7368,-2.7368,-2.7368,-2.7351,-2.7333,-2.7333,-2.7316,-2.7299,-2.7299,-2.7299,-2.7299,-2.7299,-2.7299,-2.7092,-2.6333,-2.6111,-2.5887,-2.5195,-2.4405,-2.3836,-2.3836,-2.3267,-2.275,-2.2733,-2.2733,-2.2733,-2.2767,-2.3336,0.0,-2.2739,-2.3188,-2.3384,-2.2859,-2.2515,-2.2525,-2.306,-2.2615,-2.2432,-2.2699,-2.2474,-2.2324,-2.2324,-2.2324,-2.2324,-2.2324,-2.1867,-2.1748,-2.1999,0.0,0.0,0.0,0.0,0.0,0.0,0.0,0.0,0.0,0.0,0.0,0.0,0.0,0.0,0.0,0.0,0.0,0.0,0.0,0.0,0.0,-2.2534,-2.3194,-2.3205,-2.3749,-2.4352,-2.4929,-2.5411,-2.5847,-2.6191,-2.6628,-2.712,-2.7695,-2.7956,-2.8383,-2.9004,-2.9813,-2.997,-2.9312,-3.0624,-3.1016,-3.0356,-3.174,-3.2267,-3.1974,-3.2584,-3.2704,-3.2364,-3.1548,-3.1462,-3.1945,-3.1296,-3.1224,-3.155,-3.1737,-3.1567,-3.1112,-2.9937,-2.942,-2.9299,-2.923,-2.9213,-2.9179,-2.8972,-2.8903,-2.8903,-2.8903,-2.8523,-2.8092,-2.8092,-2.7713,-2.7299,-2.7299,-2.7299,-2.7299,-2.7299,-2.7299,-2.723,-2.7023,-2.6523,-2.6042,-2.5835,-2.5198,-2.4663,-2.4663,-2.4508,-2.4181,-2.3612,-2.3509,-2.3698,-2.4267,-2.3595,-2.317,-2.3632,-2.3175,-2.2852,-2.3,-2.2769,-2.2721,-2.3067,-2.2973,-2.291,-2.2985,-2.2922,-2.2884,-2.2884,-2.2884,-2.2884,-2.2884,-2.2223,-2.1937,0.0,0.0,0.0,0.0,0.0,0.0,0.0,0.0,0.0,0.0,0.0,0.0,0.0,0.0,0.0,0.0,0.0,0.0,0.0,0.0,0.0,0.0,-2.3442,-2.3981,-2.4659,-2.49,-2.5299,-2.6117,-2.6498,-2.6888,-2.7352,-2.7724,-2.8133,-2.8616,-2.8635,-2.9006,-2.9861,-3.0344,-3.053,-3.04,-3.1645,-3.2072,-3.1608,-3.2825,-3.3358,-3.3158,-3.3598,-3.3671,-3.3433,-3.277,-3.2673,-3.2965,-3.2329,-3.2209,-3.2454,-3.2438,-3.2249,-3.186,0.0,0.0,0.0,0.0,-2.9782,-2.9506,-2.9506,-2.9506,-2.9506,-2.9506,-2.9213,-2.8868,-2.8868,-2.8673,-2.8352,-2.8021,-2.8028,-2.8062,-2.7714,-2.7644,-2.7644,-2.7644,-2.7277,-2.6927,-2.6927,-2.6363,-2.5834,-2.5834,-2.5834,0.0,-2.5221,-2.4656,-2.4353,-2.4474,-2.4088,-2.3758,-2.3684,-2.348,-2.333,-2.3312,-2.3044,-2.3,-2.3359,-2.3212,0.0,0.0,0.0,-2.3091,-2.3091,-2.3091,0.0,0.0,0.0,0.0,0.0,-2.2607,0.0,0.0,-2.2358,-2.23,0.0,0.0,0.0,0.0,0.0,0.0,0.0,0.0,0.0,0.0,0.0,0.0,0.0,0.0,0.0,0.0,-2.4592,-2.528,-2.6702,-2.6349,-2.6247,-2.6944,-2.7668,-2.8133,-2.8244,-2.8951,-2.9396,-2.9396,-2.9396,-2.975,-3.0567,-3.0697,0.0,0.0,0.0,-3.3094,-3.3001,-3.3788,-3.4197,-3.4197,-3.4197,-3.4074,-3.3842,-3.3802,-3.3638,-3.335,-3.3029,-3.2874,-3.2781,-3.2454,-3.2301,-3.2232,-3.202,-3.1875,-3.1732,-3.1076,-3.0386,-2.9765,-2.9765,0.0,0.0,-2.9765,-2.9696,-2.9644,-2.9678,-2.9827,-2.9841,-2.9066,-2.9063,-2.9115,-2.8298,-2.8102,-2.8102,-2.8102,-2.8102,-2.8102,-2.8102,-2.7594,-2.7124,-2.7124,-2.7124,-2.7124,-2.7124,-2.6075,-2.5002,-2.4379,-2.4815,-2.4783,-2.3598,-2.3997,-2.4183,-2.3711,-2.3357,0.0,-2.3774,-2.3434,-2.3283,-2.3508,-2.3307,-2.3176,-2.3176,-2.3176,-2.3602,-2.4492,-2.3871,-2.4057,-2.5061,-2.4444,-2.4457,-2.5005,-2.3311,-2.3291,0.0,0.0,0.0,0.0,0.0,0.0,0.0,0.0,0.0,0.0,0.0,0.0,0.0,0.0,0.0,-2.3545,-2.5132,-2.6535,-2.6851,-2.7315,-2.7687,-2.7854,-2.8003,-2.8374,-2.9081,-2.9304,-2.9396,-2.9396,-2.9396,-2.975,-3.0567,-3.1218,-3.1645,-3.1794,-3.3224,-3.3658,-3.302,-3.3788,-3.4197,-3.4197,-3.4197,0.0,-3.4124,-3.3895,-3.3762,-3.3694,-3.362,-3.3302,-3.2811,-3.3001,-3.291,-3.2554,-3.2197,-3.1984,-3.1876,-3.172,-3.1545,-3.1351,-3.1351,-3.1351,-3.1351,-3.1351,-3.0955,-3.0525,-3.0783,-3.0461,0.0,-2.9349,-2.9251,-2.9115,-2.8298,-2.8102,-2.8102,-2.8102,-2.8102,-2.8102,-2.8102,-2.7991,-2.7884,-2.7884,-2.7884,-2.7884,-2.7884,-2.7179,-2.6757,-2.7205,-2.5824,-2.4944,-2.553,-2.4391,-2.365,-2.3966,-2.3703,-2.3617,-2.3865,-2.3813,-2.3742,-2.3742,-2.37,-2.3649,-2.3649,-2.3649,-2.3761,-2.3949,-2.3917,-2.4008,-2.4233,-2.4846,-2.5206,-2.5303,-2.4726,-2.4887,0.0,0.0,0.0,0.0,0.0,0.0,0.0,0.0,0.0,0.0,0.0,-2.157,-2.2434,0.0,-2.463,-2.4984,-2.5754,-2.6721,-2.7984,-2.8114,-2.8263,-2.869,-2.8746,-2.8913,-2.9359,-2.9396,-2.9396,-2.9396,-2.9396,-2.975,-3.0567,-3.1366,-3.1979,-3.2388,-3.3566,-3.4011,-3.3603,-3.3993,-3.4197,-3.4197,-3.4197,-3.4197,-3.4197,-3.4061,-3.3998,-3.3998,-3.3873,-3.3606,-3.3302,-3.3306,-3.3169,-3.297,-3.2782,-3.2602,-3.2434,-3.23,-3.2179,-3.2109,-3.2283,-3.2214,-3.2073,-3.2266,-3.2054,-3.1789,-3.1937,-3.1719,-3.1304,-3.0833,-3.0402,-2.9944,-2.9329,-2.8848,-2.8558,-2.8558,-2.8558,-2.8558,-2.8558,-2.8558,-2.8558,-2.8558,-2.8558,-2.8558,-2.8558,-2.8244,-2.7886,-2.7598,-2.6659,-2.6057,-2.6181,-2.5457,-2.5045,-2.528,-2.5149,-2.4921,-2.4593,-2.4174,-2.3927,-2.3907,-2.3876,-2.3876,-2.3896,-2.3845,-2.4016,-2.4436,-2.4486,-2.4728,-2.521,-2.5664,-2.6148,-2.6605,-2.6469,-2.6559,0.0,0.0,0.0,0.0,0.0,0.0,0.0,0.0,-2.0055,-2.0971,-2.167,-2.2397,-2.3287,-2.4278,-2.5336,-2.6479,-2.6386,-2.6851,-2.8858,-2.8542,-2.8412,-2.9304,-2.9396,-2.9396,-2.9396,-2.9396,-2.9396,-2.9396,-2.9396,-2.975,-3.0567,-3.1366,-3.2165,-3.2983,-3.377,-3.4197,-3.4197,-3.4197,-3.4197,-3.4197,-3.4197,-3.4197,-3.4197,-3.4197,-3.4197,-3.4185,-3.3908,-3.3807,-3.3793,-3.3508,-3.3394,-3.3394,-3.3394,-3.3328,-3.3189,-3.2844,-3.2636,-3.2551,-3.2825,-3.2715,-3.247,-3.265,-3.2763,-3.2811,-3.2795,-3.2842,-3.2773,-3.2129,-3.1506,-3.0838,-3.0149,-2.9482,-2.9005,-2.9005,-2.9005,-2.9005,-2.9005,-2.9005,-2.9005,-2.9005,-2.9005,-2.9005,-2.9005,-2.9005,-2.862,-2.754,-2.7441,-2.7235,-2.6586,-2.656,-2.6573,-2.653,-2.653,-2.6223,-2.5502,-2.4845,-2.448,-2.448,-2.4421,-2.4411,-2.4452,-2.4351,-2.4638,-2.5343,-2.531,-2.5652,-2.6407,-2.6593,-2.7068,-2.7798,-2.7952,-2.8026,-1.9378,-1.9282,-1.9434,-2.0154,-2.0335,-2.034,0.0,0.0,-2.1773,-2.2659,-2.2898,-2.3256,-2.4185,-2.5587,-2.6461,-2.5931,-2.6962,-2.7929,-2.8207,-2.817,-2.8412,-2.9304,-2.9396,-2.9396,-2.9396,-2.9396,-2.9396,-2.9396,-2.9396,-2.975,-3.0567,-3.1366,-3.2165,-3.2983,-3.377,-3.4197,-3.4197,-3.4197,-3.4197,-3.4197,-3.4197,-3.4197,-3.4197,-3.4197,-3.4197,-3.4185,-3.3908,-3.3807,-3.3807,-3.3748,-3.3734,-3.3734,-3.3734,-3.3881,-3.3986,-3.3357,-3.306,-3.2947,-3.2993,-3.2963,-3.287,-3.2551,-3.265,-3.2872,-3.2811,-3.3016,-3.2995,-3.1806,-3.142,-3.0998,-2.9507,-2.9078,-2.9005,-2.9005,-2.9005,-2.9005,-2.9005,-2.9005,-2.9005,-2.9005,-2.9005,-2.9005,-2.9005,-2.9005,-2.8945,-2.8807,-2.8189,-2.7717,-2.7625,-2.7024,-2.6602,-2.6602,-2.6602,-2.6525,-2.638,-2.6217,-2.6122,-2.6122,-2.6122,-2.6122,-2.6122,-2.6129,-2.6147,-2.6257,-2.6319,-2.6377,-2.6479,-2.7277,-2.7703,-2.7824,-2.8528,-2.8877,-1.9113,-1.9461,-1.9941,-2.02,-2.068,-2.1106,-2.1228,-2.1537,-2.204,-2.2883,-2.3065,-2.3377,-2.4281,-2.5012,-2.5559,-2.5689,-2.6256,-2.7037,-2.7966,-2.8134,-2.8274,-2.8597,-2.9082,-2.9409,-2.9407,-2.9396,-2.9396,-2.9396,-2.9396,-2.9545,-2.988,-3.066,-3.1478,-3.2277,-3.3083,-3.3733,-3.4197,-3.4197,-3.4197,-3.4197,-3.4197,-3.4197,-3.4197,-3.4197,-3.4197,-3.4197,-3.4086,-3.4036,-3.4036,-3.4036,-3.4036,-3.4036,-3.4036,-3.4099,-3.4148,-3.3716,-3.3458,-3.3378,-3.3579,-3.3496,-3.3296,-3.3284,-3.3372,-3.3458,-3.3404,-3.3006,-3.253,-3.2193,-3.1289,-3.0292,-2.9813,-2.9354,-2.9005,-2.9005,-2.9005,-2.9005,-2.9005,-2.9005,-2.9005,-2.9005,-2.9005,-2.9005,-2.9005,-2.9005,-2.9005,-2.9005,-2.8712,-2.8503,-2.8503,-2.8198,-2.7996,-2.7996,-2.7585,-2.7281,-2.7259,-2.6797,-2.6519,-2.6519,-2.6479,-2.6479,-2.6501,-2.6447,-2.6407,-2.6458,-2.6903,-2.7152,-2.7196,-2.8024,-2.8469,-2.8521,-2.884,-2.9005,-1.964,-2.0009,-2.0434,-2.0798,-2.1406,-2.1944,-2.2089,-2.2308,-2.2638,-2.3234,-2.3399,-2.3646,-2.431,-2.465,-2.502,-2.5615,-2.5708,-2.6265,-2.7911,-2.7791,-2.7764,-2.8406,-2.8854,-2.917,-2.9411,-2.9417,-2.9396,-2.9396,-2.9396,-2.9396,-2.9396,-3.0158,-3.0976,-3.1775,-3.2593,-3.338,-3.4179,-3.4197,-3.4197,-3.4197,-3.4197,-3.4197,-3.4197,-3.4197,-3.4197,-3.4197,-3.4197,-3.4197,-3.4197,-3.4197,-3.4197,-3.4197,-3.4197,-3.4197,-3.4173,-3.3985,-3.385,-3.38,-3.4043,-3.3954,-3.3711,-3.3797,-3.3881,-3.3895,-3.3748,-3.2999,-3.2242,-3.2256,-3.1104,-2.9841,-2.9856,-2.9445,-2.9005,-2.9005,-2.9005,-2.9005,-2.9005,-2.9005,-2.9005,-2.9005,-2.9005,-2.9005,-2.9005,-2.9005,-2.9005,-2.9005,-2.9005,-2.9005,-2.9005,-2.9005,-2.9005,-2.9005,-2.8484,-2.8136,-2.8136,-2.7603,-2.717,-2.6943,-2.7083,-2.712,-2.6943,-2.705,-2.7138,-2.7189,-2.7712,-2.8004,-2.8061,-2.8636,-2.8952,-2.9005,-2.9005,-2.9005,-2.1404,-2.1074,-2.0871,-2.2438,-2.2887,-2.296,-2.2969,-2.3566,-2.4145,-2.4238,-2.4257,-2.4311,-2.4474,-2.515,-2.5671,-2.5708,-2.5708,-2.6275,-2.7968,-2.686,-2.6758,-2.9175,-2.8792,-2.8642,-2.9418,-2.944,-2.9396,-2.9396,-2.9396,-2.9396,-2.9396,-3.0158,-3.0976,-3.1775,-3.2593,-3.338,-3.4179,-3.4197,-3.4197,-3.4197,-3.4197,-3.4197,-3.4197,-3.4197,-3.4197,-3.4197,-3.4197,-3.4197,-3.4197,-3.4197,-3.4197,-3.4197,-3.4197,-3.4197,-3.4197,-3.4185,-3.4185,-3.4185,-3.4197,-3.4185,-3.4117,-3.3733,-3.3792,-3.3915,-3.3532,-3.3013,-3.2417,-3.1641,-3.0834,-3.0014,-2.9244,-2.9023,-2.9005,-2.9005,-2.9005,-2.9005,-2.9005,-2.9005,-2.9005,-2.9005,-2.9005,-2.9005,-2.9005,-2.9005,-2.9005,-2.9005,-2.9005,-2.9005,-2.9005,-2.9005,-2.9005,-2.9005,-2.8987,-2.8968,-2.8968,-2.895,-2.8583,-2.7805,-2.8491,-2.8583,-2.7798,-2.851,-2.892,-2.892,-2.895,-2.8957,-2.8968,-2.8987,-2.9005,-2.9005,-2.9005,-2.9005,-2.0826,-2.1512,-2.2282,-2.2777,-2.3345,-2.3804,-2.3804,-2.4006,-2.4209,-2.4229,-2.4266,-2.433,-2.4421,-2.4696,-2.4908,-2.4908,-2.54,-2.5957,-2.6525,-2.7148,-2.7615,-2.7886,-2.8662,-2.9035,-2.8717,-2.9134,-2.9401,-2.9401,-2.9399,-2.9396,-2.9396,-2.9657,-3.0418,-3.1756,-3.2072,-3.2876,-3.425,-3.4221,-3.4221,-3.4269,-3.4221,-3.4197,-3.4197,-3.4197,-3.4197,-3.4197,-3.4197,-3.4197,-3.4197,-3.4197,-3.4197,-3.4197,-3.4197,-3.4197,-3.4197,-3.4197,-3.4197,-3.4197,-3.4197,-3.4197,-3.4173,-3.3941,-3.3915,-3.3867,-3.3093,-3.2365,-3.1641,-3.0834,-3.0026,-2.9335,-2.9078,-2.9005,-2.9005,-2.9005,-2.9005,-2.9005,-2.9005,-2.9005,-2.9005,-2.9005,-2.9005,-2.9005,-2.9005,-2.9005,-2.9005,-2.9005,-2.9005,-2.9005,-2.9005,-2.9005,-2.9005,-2.9005,-2.9005,-2.9005,-2.9005,-2.9005,-2.8877,-2.8601,-2.8858,-2.8877,-2.8601,-2.8858,-2.9005,-2.9005,-2.9005,-2.9005,-2.9005,-2.9005,-2.9005,-2.9005,-2.9005,-2.9005,-2.1319,-2.219,-2.3061,-2.3299,-2.3785,-2.419,-2.419,-2.419,-2.4209,-2.4229,-2.4045,-2.3979,-2.4365,-2.4223,-2.4138,-2.4444,-2.4972,-2.5557,-2.6188,-2.697,-2.7623,-2.7979,-2.8708,-2.9074,-2.8811,-2.9203,-2.9453,-2.9443,-2.9431,-2.944,-2.944,-2.944,-3.0184,-3.1812,-3.1868,-3.2672,-3.4309,-3.4269,-3.4245,-3.4257,-3.4221,-3.4197,-3.4197,-3.4197,-3.4197,-3.4197,-3.4197,-3.4197,-3.4197,-3.4197,-3.4197,-3.4197,-3.4197,-3.4197,-3.4197,-3.4197,-3.4197,-3.4197,-3.4197,-3.4197,-3.4185,-3.4099,-3.4061,-3.3918,-3.3287,-3.2329,-3.1311,-3.0772,-2.9831,-2.9005,-2.9005,-2.9005,-2.9005,-2.9005,-2.9005,-2.9005,-2.9005,-2.9005,-2.9005,-2.9005,-2.9005,-2.9005,-2.9005,-2.9005,-2.9005,-2.9005,-2.9005,-2.9005,-2.9005,-2.9005,-2.9005,-2.9005,-2.9005,-2.9005,-2.9005,-2.9005,-2.8877,-2.8583,-2.884,-2.8877,-2.8583,-2.8858,-2.9005,-2.9005,-2.9005,-2.9005,-2.9005,-2.9005,-2.9005,-2.9005,-2.9005,-2.9005,-2.2841,-2.3098,-2.3299,-2.4025,-2.419,-2.419,-2.419,-2.419,-2.4218,-2.4238,-2.3666,-2.3415,0.0,0.0,-2.3601,-2.4425,-2.4638,-2.525,-2.6877,-2.6465,-2.6903,0.0,0.0,0.0,-2.9608,-2.9636,-2.9588,-2.9531,-2.9502,-2.9502,-2.9502,-2.9539,-3.0314,-3.1958,-3.2051,-3.2817,-3.4397,-3.434,-3.4269,-3.4209,-3.4209,-3.4209,-3.4197,-3.4197,-3.4197,-3.4197,-3.4197,-3.4197,-3.4197,-3.4197,-3.4197,-3.4197,-3.4197,-3.4197,-3.4197,-3.4197,-3.4197,-3.4197,-3.4197,-3.4197,-3.4197,-3.4197,-3.4161,-3.4086,-3.3968,-3.2816,-3.1538,-3.1427,-3.0301,-2.9115,-2.9115,-2.9115,-2.9115,-2.9115,-2.9115,-2.9115,-2.9115,-2.9097,-2.906,-2.906,-2.9023,-2.9005,-2.9005,-2.9005,-2.9005,-2.9005,-2.9005,-2.9005,-2.9005,-2.9005,-2.9005,-2.9005,-2.9005,-2.9005,-2.9005,-2.9005,-2.8675,-2.7915,-2.8583,-2.8656,-2.7879,-2.8583,-2.9005,-2.9005,-2.9005,-2.9005,-2.9005,-2.9005,-2.9005,-2.9005,-2.9005,-2.9005,-2.3841,-2.4318,-2.4695,-2.43,-2.419,-2.419,-2.419,-2.419,-2.4053,-2.3519,-2.3721,-2.3896,0.0,-2.4415,-2.5213,-2.5436,-2.6561,0.0,-2.7127,-2.8033,0.0,-2.8735,0.0,-2.9457,-2.9683,-2.9673,-2.9683,-2.9645,-2.956,-2.9502,-2.9502,-3.0071,-3.0893,-3.1976,-3.2574,-3.341,-3.4454,-3.4461,-3.4386,-3.4269,-3.4269,-3.4245,-3.4197,-3.4197,-3.4197,-3.4197,-3.4197,-3.4197,-3.4197,-3.4197,-3.4197,-3.4197,-3.4197,-3.4197,-3.4197,-3.4197,-3.4197,-3.4197,-3.4197,-3.4197,-3.4197,-3.4148,-3.4111,-3.3963,-3.3259,-3.2729,-3.2262,-3.1593,-3.1103,-3.0797,-3.0797,-3.0797,-3.0797,-3.0797,-3.0797,-3.0797,-3.0797,-3.032,-2.9886,-2.9886,-2.9409,-2.9005,-2.9005,-2.9005,-2.9005,-2.9005,-2.9005,-2.9005,-2.9005,-2.9005,-2.9005,-2.9005,-2.9005,-2.9005,-2.9005,-2.9005,-2.8913,-2.8712,-2.8895,-2.8913,-2.8693,-2.8895,-2.9005,-2.9005,-2.9005,-2.9005,-2.9005,-2.9005,-2.9005,-2.9005,-2.9005,-2.9005,-2.453,-2.4805,-2.4768,-2.43,-2.419,-2.4107,-2.375,-2.3667,-2.3465,-2.2724,-2.3002,-2.3219,-2.2757,-2.3883,-2.4986,0.0,0.0,0.0,-2.7723,-2.8555,-2.9101,0.0,-2.9401,0.0,-2.9782,-2.979,-2.979,-2.979,-2.9664,-2.9589,-2.9589,-3.0346,-3.116,-3.2013,-3.2855,-3.369,-3.4476,-3.4495,-3.442,-3.4293,-3.4293,-3.4257,-3.4197,-3.4197,-3.4197,-3.4197,-3.4197,-3.4197,-3.4197,-3.4197,-3.4197,-3.4197,-3.4197,-3.4197,-3.4197,-3.4197,-3.4197,-3.4197,-3.4197,-3.4197,-3.4197,-3.4161,-3.4148,-3.4031,-3.3487,-3.3056,-3.2631,-3.2108,-3.1703,-3.1397,-3.1397,-3.1397,-3.1397,-3.1397,-3.1397,-3.1397,-3.1397,-3.1048,-3.0613,-3.0265,-2.9537,-2.9005,-2.9005,-2.9005,-2.9005,-2.9005,-2.9005,-2.9005,-2.9005,-2.9005,-2.9005,-2.9005,-2.9005,-2.9005,-2.9005,-2.9005,-2.9005,-2.9005,-2.9005,-2.9005,-2.9005,-2.9005,-2.9005,-2.9005,-2.9005,-2.9005,-2.9005,-2.9005,-2.9005,-2.9005,-2.9005,-2.9005,-2.5191,-2.5062,-2.4465,-2.4245,-2.419,-2.3979,-2.3171,-2.2996,-2.2765,-2.1908,-2.1954,-2.2092,-2.1902,-2.2936,-2.4061,-2.4865,0.0,-2.6915,-2.857,-2.868,-2.8885,-2.9644,-2.9729,-2.9764,-2.9899,-2.9913,-2.9929,-2.9929,-2.9815,-2.9738,-2.9711,-3.0565,-3.1419,-3.2255,-3.3118,-3.3829,-3.4337,-3.445,-3.445,-3.4328,-3.4316,-3.4281,-3.4209,-3.4209,-3.4197,-3.4197,-3.4197,-3.4197,-3.4197,-3.4197,-3.4197,-3.4197,-3.4197,-3.4197,-3.4197,-3.4197,-3.4197,-3.4197,-3.4197,-3.4197,-3.4197,-3.4197,-3.4197,-3.4185,-3.4124,-3.3568,-3.2951,-3.2876,-3.2298,-3.1727,-3.1727,-3.1727,-3.1727,-3.1727,-3.1727,-3.1727,-3.1727,-3.1635,-3.1256,-3.0246,-2.9555,-2.9133,-2.9023,-2.9005,-2.9005,-2.9005,-2.9005,-2.9005,-2.9005,-2.9005,-2.9005,-2.9005,-2.9005,-2.9005,-2.9005,-2.9005,-2.9005,-2.9005,-2.9005,-2.9005,-2.9005,-2.9097,-2.9115,-2.9005,-2.9097,-2.9115,-2.9005,-2.9005,-2.9005,-2.9005,-2.9005,-2.9005,-2.6319,-2.63,-2.586,-2.452,-2.419,-2.3979,-2.3171,-2.2996,0.0,0.0,-2.1456,-2.1786,-2.1262,-2.2922,-2.4742,-2.5854,-2.7228,-2.8548,-2.9682,-2.9725,-2.9696,0.0,-2.9866,-2.9864,-2.9888,-3.0004,-3.0066,-3.0066,-3.0044,-2.9926,-2.9701,-3.1091,-3.2292,-3.3156,-3.3963,-3.4132,-3.3604,-3.4253,-3.4539,-3.4461,-3.4416,-3.434,-3.4281,-3.4221,-3.4197,-3.4197,-3.4197,-3.4197,-3.4197,-3.4197,-3.4197,-3.4197,-3.4197,-3.4197,-3.4197,-3.4197,-3.4197,-3.4197,-3.4197,-3.4197,-3.4197,-3.4197,-3.4197,-3.4185,-3.4124,-3.3956,-3.3782,-3.3718,-3.3529,-3.3385,-3.3385,-3.3385,-3.3385,-3.3385,-3.3385,-3.3385,-3.3385,-3.2871,-3.1757,-2.9629,-2.9629,-2.9776,-2.9115,-2.9005,-2.9005,-2.9005,-2.9005,-2.9005,-2.9005,-2.9005,-2.9005,-2.9005,-2.9005,-2.9005,-2.9005,-2.9005,-2.9005,-2.9005,-2.9005,-2.9005,-2.9005,-2.9629,-2.9684,-2.9005,-2.9647,-2.9647,-2.9005,-2.9005,-2.9005,-2.9005,-2.9005,-2.9005,-2.6998,-2.6612,-2.5797,-2.5026,-2.419,-2.3373,-2.259,0.0,0.0,0.0,-2.0879,-2.1302,-2.0515,-2.2186,0.0,-2.4946,-2.6078,-2.7466,-2.9315,-2.9431,-2.9509,-2.9954,-2.9992,-3.003,-3.0089,-3.0164,-3.0203,-3.0203,-3.0203,-3.0095,-2.9815,-3.0876,-3.2057,-3.3352,-3.3776,-3.3982,-3.402,-3.4414,-3.458,-3.4495,-3.4473,-3.4386,-3.4293,-3.4269,-3.4233,-3.4197,-3.4197,-3.4197,-3.4253,-3.4847,-3.5089,-3.5089,-3.5089,-3.4996,-3.4822,-3.4364,-3.4197,-3.4197,-3.4197,-3.4197,-3.4197,-3.4197,-3.4197,-3.4197,-3.4161,-3.4086,-3.3998,-3.3959,-3.3868,-3.3807,-3.3807,-3.3807,-3.3807,-3.3807,-3.3807,-3.3697,-3.3275,-3.2858,-3.2252,-3.1097,-3.0852,-3.0577,-2.9769,-2.961,-2.9482,-2.906,-2.9005,-2.9005,-2.9005,-2.9005,-2.9005,-2.9005,-2.9005,-2.9005,-2.9005,-2.9005,-2.9005,-2.9005,-2.9005,-2.9005,-2.9005,-2.9372,-2.939,-2.9005,-2.9372,-2.939,-2.9005,-2.9005,-2.9005,-2.9005,-2.9005,-2.9005,-2.72,-2.6623,-2.5576,-2.5227,-2.4061,-2.2804,-2.2063,-2.1285,0.0,0.0,-2.0295,-2.0666,-1.9987,0.0,-2.2879,0.0,-2.4688,-2.6124,-2.8777,-2.8982,-2.9187,0.0,-3.0137,0.0,-3.0294,-3.0342,-3.0359,-3.0359,-3.0317,-3.026,-3.0159,-3.0667,-3.1618,-3.3081,-3.3296,-3.37,-3.4339,-3.4508,-3.4561,-3.4517,-3.4506,-3.4439,-3.4316,-3.4305,-3.4257,-3.4197,-3.4197,-3.4197,-3.4271,-3.5182,-3.554,-3.554,-3.554,-3.5404,-3.5138,-3.4439,-3.4197,-3.4197,-3.4197,-3.4197,-3.4197,-3.4197,-3.4197,-3.4197,-3.4197,-3.4124,-3.4023,-3.3998,-3.3908,-3.3815,-3.3815,-3.3815,-3.3815,-3.3815,-3.382,-3.3587,-3.2766,-3.2729,-3.2748,-3.2399,-3.1971,-3.1403,-3.0595,-3.032,-2.9989,-2.9354,-2.9115,-2.9005,-2.9005,-2.9005,-2.9005,-2.9005,-2.9005,-2.9005,-2.9005,-2.9005,-2.9005,-2.9005,-2.9005,-2.9005,-2.9005,-2.917,-2.9189,-2.9005,-2.917,-2.917,-2.9005,-2.9005,-2.9005,-2.9005,-2.9005,-2.9005,-2.6667,-2.6612,-2.6135,-2.4685,-2.3657,-2.2804,-2.2063,0.0,0.0,-1.9831,-1.9776,-1.9884,-2.0045,-2.0784,-2.1984,-2.3864,-2.4749,-2.6164,-2.8907,-2.9151,-2.9367,-3.0186,0.0,0.0,-3.03,-3.0471,-3.0564,-3.0564,-3.04,-3.0503,-3.0955,-3.1054,-3.1439,-3.2208,-3.2987,-3.3427,-3.3513,-3.4226,-3.4602,-3.4602,-3.4528,-3.4461,-3.4386,-3.4328,-3.4257,-3.4197,-3.4197,-3.4197,-3.4197,-3.4309,-3.4364,-3.4364,-3.4364,-3.4346,-3.4309,-3.4234,-3.4197,-3.4197,-3.4197,-3.4197,-3.4197,-3.4197,-3.4197,-3.4197,-3.4197,-3.4148,-3.4074,-3.4023,-3.3947,-3.3881,-3.3881,-3.3881,-3.3881,-3.3881,-3.3842,-3.3587,-3.2766,-3.3183,-3.3256,-3.1801,-3.2045,-3.2228,-3.1433,-3.0687,-3.0173,-3.0099,-2.9464,-2.9005,-2.9005,-2.9005,-2.9005,-2.9005,-2.9005,-2.9005,-2.9005,-2.9005,-2.9005,-2.9005,-2.9005,-2.9005,-2.9005,-2.9702,-2.9739,-2.9005,-2.9721,-2.9721,-2.9005,-2.9005,-2.9005,-2.9005,-2.9005,-2.9005,-2.721,-2.6979,-2.6447,-2.5805,-2.3952,-2.2212,-2.2001,0.0,-2.0041,-1.9861,-1.9874,-1.9973,-2.0075,-2.0412,-2.1254,-2.3118,-2.364,-2.4724,-2.7379,-2.8144,-2.8758,-2.9593,-3.0153,0.0,0.0,-3.0554,-3.0598,-3.0598,-3.052,-3.0521,-3.0603,-3.0464,-3.0953,-3.2241,-3.2503,-3.31,-3.4113,-3.4433,-3.4612,-3.4602,-3.4561,-3.4528,-3.4461,-3.4386,-3.4316,-3.4257,-3.4221,-3.4197,-3.4234,-3.4767,-3.499,-3.499,-3.499,-3.499,-3.4915,-3.4383,-3.4197,-3.4197,-3.4197,-3.4197,-3.4197,-3.4197,-3.4197,-3.4197,-3.4197,-3.4161,-3.4086,-3.4023,-3.3947,-3.3895,-3.3895,-3.3934,-3.3836,-3.33,-3.3519,-3.364,-3.2779,-3.3238,-3.3605,-3.2963,-3.3109,-3.3073,-3.2265,-3.1458,-3.076,-3.0265,-2.9519,-2.9005,-2.9005,-2.9005,-2.9005,-2.9005,-2.9005,-2.9005,-2.9005,-2.9005,-2.9005,-2.9005,-2.9005,-2.9005,-2.9005,-2.9317,-2.9537,-2.9721,-3.0044,-3.0044,-2.9721,-2.9721,-2.9464,-2.9005,-2.9005,-2.9262,-2.6891,-2.6667,-2.619,-2.5952,-2.3823,-2.1838,0.0,-2.0814,-1.9744,-1.9928,-2.0036,-2.0101,-2.0141,-2.0234,-2.0788,-2.23,-2.2749,-2.3712,-2.6029,-2.7078,-2.8025,0.0,0.0,-3.0327,-3.0578,-3.0598,-3.0598,-3.0598,-3.0598,-3.055,-3.0395,-3.0157,-3.0765,-3.2419,-3.257,-3.3289,-3.4689,-3.4689,-3.4658,-3.4612,-3.4612,-3.4561,-3.4495,-3.445,-3.4386,-3.4328,-3.4257,-3.4233,-3.4289,-3.486,-3.512,-3.512,-3.512,-3.512,-3.5045,-3.442,-3.4197,-3.4197,-3.4197,-3.4197,-3.4197,-3.4197,-3.4197,-3.4197,-3.4197,-3.4173,-3.4124,-3.4049,-3.3998,-3.3959,-3.3959,-3.3998,-3.3876,-3.3271,-3.3515,-3.3734,-3.313,-3.3233,-3.3532,-3.3752,-3.3605,-3.3275,-3.2693,-3.2137,-3.1476,-3.0687,-2.9879,-2.9354,-2.9354,-2.9152,-2.9005,-2.9005,-2.9207,-2.9354,-2.9354,-2.9133,-2.9097,-2.9335,-2.9133,-2.9005,-2.9005,-2.9225,-2.961,-3.0191,-3.043,-3.0558,-3.0558,-3.0558,-3.0265,-2.9702,-2.9702,-3.0008,-2.5201,-2.5411,-2.5209,-2.441,-2.2996,-2.1838,-2.1968,-2.0814,-1.9775,-2.0045,-2.0093,-2.0139,-2.0272,-2.0297,-2.062,-2.1565,-2.2381,-2.3499,-2.5279,-2.6203,-2.7363,0.0,0.0,-2.965,-3.052,-3.0598,-3.0598,-3.0598,-3.0598,-3.0598,-3.0598,-3.0419,-3.1002,-3.2542,-3.3421,-3.4219,-3.4889,-3.4908,-3.4801,-3.4612,-3.4612,-3.4561,-3.4495,-3.4495,-3.4461,-3.4404,-3.4328,-3.4293,-3.4293,-3.4252,-3.4197,-3.4197,-3.4197,-3.4197,-3.4197,-3.4197,-3.4197,-3.4197,-3.4197,-3.4197,-3.4197,-3.4197,-3.4197,-3.4197,-3.4197,-3.4197,-3.4185,-3.4124,-3.4099,-3.4099,-3.4099,-3.4099,-3.4099,-3.408,-3.3998,-3.3895,-3.3895,-3.3222,-3.2839,-3.3642,-3.3151,-3.2601,-3.2601,-3.2583,-3.2307,-3.1513,-3.0705,-3.0191,-3.0191,-2.9482,-2.9005,-2.9005,-2.9702,-3.0191,-3.0191,-2.9464,-2.9335,-3.0136,-2.9445,-2.9005,-2.9005,-2.9769,-3.0191,-3.021,-3.098,-3.1397,-3.1397,-3.1397,-3.1378,-3.1378,-3.1378,-3.1378,-2.3925,-2.4229,-2.445,-2.3658,-2.2246,-2.1112,-2.1327,-2.0577,-1.9912,-2.019,-2.0234,-2.025,-2.029,-2.0334,-2.0837,-2.2281,-2.2729,-2.3499,-2.526,0.0,0.0,-2.8358,-2.9457,-3.0308,-3.0578,-3.0598,-3.0598,-3.0598,-3.0598,-3.0598,-3.0598,-3.1071,-3.1782,-3.2761,-3.2938,-3.3657,-3.5022,-3.5041,-3.4972,-3.4811,-3.4889,-3.4803,-3.4561,-3.466,-3.4618,-3.4461,-3.4404,-3.434,-3.4293,-3.4281,-3.4245,-3.4197,-3.4197,-3.4197,-3.4197,-3.4197,-3.4197,-3.4197,-3.4197,-3.4197,-3.4197,-3.4197,-3.4197,-3.4197,-3.4197,-3.4197,-3.4185,-3.4124,-3.4099,-3.4099,-3.4099,-3.4136,-3.4161,-3.4111,-3.4074,-3.4011,-3.3921,-3.3679,-3.3548,-3.3765,-3.3587,-3.3421,-3.3421,-3.2949,-3.2509,-3.2265,-3.1072,-3.021,-3.021,-2.9989,-2.9824,-2.9824,-3.054,-3.0797,-3.0246,-3.0467,-3.0742,-3.0999,-3.0779,-3.0632,-3.0632,-3.087,-3.1274,-3.183,-3.2087,-3.2228,-3.2228,-3.2228,-3.1935,-3.1415,-3.1953,-3.2228,-2.2732,-2.3011,-2.3269,-2.2771,-2.17,-2.0832,-2.1061,-2.0513,-2.0045,-2.026,-2.03,-2.0306,-2.0294,-2.0337,-2.0824,-2.2226,-2.2691,-2.3499,0.0,0.0,0.0,-2.8416,0.0,0.0,-3.0598,-3.0598,-3.0733,-3.1023,-3.0772,-3.0733,-3.1043,-3.1521,-3.2162,-3.2952,-3.284,-3.3407,-3.4715,-3.4715,-3.4808,-3.4981,-3.5056,-3.4987,-3.4793,-3.487,-3.4822,-3.4658,-3.4586,-3.4487,0.0,-3.4316,-3.4281,-3.4233,-3.4209,-3.4197,-3.4197,-3.4197,-3.4197,-3.4197,-3.4197,-3.4197,-3.4197,-3.4197,-3.4197,-3.4197,-3.4197,-3.4197,-3.4185,-3.4148,-3.4136,-3.4136,-3.4136,-3.4173,-3.4185,-3.4148,-3.4124,-3.4074,-3.3959,-3.3668,-3.3519,-3.3747,-3.355,-3.3348,-3.3348,-3.3183,-3.2949,-3.2656,-3.1739,-3.1109,-3.1109,-3.0834,-3.065,-3.065,-3.1103,-3.1213,-3.0705,-3.1121,-3.1525,-3.1825,-3.158,-3.1397,-3.1397,-3.1678,-3.21,-3.2583,-3.2894,-3.3041,-3.3041,-3.3041,-3.2797,-3.2333,-3.2816,-3.3041,0.0,-2.1797,-2.1834,-2.1779,-2.128,-2.087,-2.0998,-2.0541,0.0,-2.0273,-2.0308,-2.0311,-2.039,-2.0392,-2.0721,-2.1723,-2.2497,-2.3596,0.0,-2.6339,0.0,0.0,-3.0117,-3.0625,-3.0675,-3.0694,-3.1023,-3.1831,-3.1197,-3.1101,-3.185,-3.1889,-3.2256,-3.3068,-3.3107,-3.3459,-3.4199,-3.4199,-3.4515,-3.5122,-3.5138,-3.513,-3.5106,-3.5122,-3.5041,-3.4908,-3.4841,-3.4691,-3.4484,-3.4351,-3.4293,-3.4281,-3.4221,-3.4197,-3.4197,-3.4197,-3.4197,-3.4197,-3.4197,-3.4197,-3.4197,-3.4197,-3.4197,-3.4197,-3.4197,-3.4197,-3.4197,-3.4197,-3.4197,-3.4197,-3.4197,-3.4197,-3.4197,-3.4185,-3.4148,-3.4086,-3.4011,-3.3375,-3.2985,-3.3673,-3.3201,-3.2693,-3.2693,-3.3311,-3.355,-3.2803,-3.2638,-3.2601,-3.2601,-3.1953,-3.1488,-3.1488,-3.1544,-3.158,-3.158,-3.1525,-3.1806,-3.2546,-3.1953,-3.158,-3.158,-3.2284,-3.2693,-3.2693,-3.3421,-3.3807,-3.3807,-3.3807,-3.3807,-3.3807,-3.3807,-3.3807,-2.0332,0.0,-2.1136,-2.0521,-2.0256,-2.0163,0.0,-2.0217,-2.014,-2.0273,-2.03,-2.0503,-2.1166,-2.1348,-2.1855,-2.3364,-2.377,-2.4486,-2.6184,-2.7731,0.0,-3.0172,-3.0486,-3.0834,-3.1468,-3.1521,-3.1869,-3.2739,-3.2623,-3.2585,-3.2778,-3.2798,-3.2894,-3.3088,-3.3107,-3.3831,-3.5317,-3.5311,-3.5328,-3.5324,-3.549,-3.5411,-3.5114,-3.5265,-3.5165,-3.4908,-3.4879,-3.4701,-3.4427,-3.4386,-3.4316,-3.4221,-3.4209,-3.4197,-3.4197,-3.4197,-3.4197,-3.4197,-3.4197,-3.4197,-3.4197,-3.4197,-3.4197,-3.4197,-3.4197,-3.4197,-3.4197,-3.4197,-3.4197,-3.4185,-3.4136,-3.4161,-3.4173,-3.4074,-3.4074,-3.4074,-3.3947,-3.376,-3.3647,-3.3784,-3.3642,-3.3532,-3.3532,-3.3678,-3.3733,-3.355,-3.2986,-3.2601,-3.2601,-3.2417,-3.232,-3.232,-3.2871,-3.3238,-3.3238,-3.2669,-3.2399,-3.2583,-3.2999,-3.3238,-3.3238,-3.3421,-3.3532,-3.3532,-3.3697,-3.3807,-3.3807,-3.3807,-3.3807,-3.3807,-3.3807,-3.3807,-2.0065,-2.0304,-2.0445,-2.0001,-1.995,-2.0001,-2.0079,-2.0149,-2.0212,-2.03,0.0,-2.0567,-2.1436,-2.1642,-2.2249,-2.3925,-2.4544,-2.553,0.0,0.0,-3.007,-3.054,-3.0607,-3.0921,-3.1715,-3.1792,-3.2333,-3.3596,-3.3339,-3.3262,-3.3673,-3.3692,-3.3692,-3.3692,-3.4079,-3.4543,-3.511,-3.511,-3.5251,-3.5534,-3.5656,-3.5596,-3.5378,-3.5496,-3.539,-3.5108,-3.5024,-3.4851,-3.4567,-3.4443,-3.434,-3.4245,-3.4209,-3.4197,-3.4197,-3.4197,-3.4197,-3.4197,-3.4197,-3.4197,-3.4197,-3.4197,-3.4197,-3.4197,-3.4197,-3.4197,-3.4197,-3.4197,-3.4197,-3.4185,-3.4161,-3.4148,-3.4136,-3.4061,-3.4049,-3.4023,-3.3921,-3.3895,-3.3868,-3.3802,-3.3807,-3.3807,-3.3807,-3.3807,-3.3807,-3.3807,-3.344,-3.3146,-3.3146,-3.3146,-3.3146,-3.3146,-3.322,-3.3256,-3.3256,-3.2839,-3.2748,-3.3115,-3.3568,-3.3807,-3.3807,-3.3807,-3.3807,-3.3807,-3.3815,-3.3815,-3.3807,-3.3807,-3.3807,-3.3807,-3.3807,-3.3807,-2.0422,-2.0312,-2.0117,-1.9979,-2.005,-2.0135,-2.0135,0.0,0.0,0.0,0.0,0.0,-2.1613,-2.1838,-2.2439,-2.4118,-2.524,0.0,-2.8973,-3.0059,-3.0606,-3.0602,-3.0597,-3.0969,-3.1913,-3.2005,-3.2725,-3.4471,-3.3905,-3.3828,-3.4568,-3.4607,-3.4607,-3.4607,-3.5303,-3.5361,-3.4607,-3.4607,-3.4974,-3.5704,-3.5704,-3.5704,-3.5704,-3.5549,-3.5467,-3.5372,-3.5074,-3.489,-3.4773,-3.4534,-3.4386,-3.4293,-3.4221,-3.4197,-3.4197,-3.4197,-3.4197,-3.4197,-3.4197,-3.4197,-3.4197,-3.4197,-3.4197,-3.4197,-3.4197,-3.4197,-3.4197,-3.4197,-3.4197,-3.4197,-3.4185,-3.4148,-3.4099,-3.4074,-3.4023,-3.3972,-3.3895,-3.3881,-3.3855,-3.382,-3.3807,-3.3807,-3.3807,-3.3807,-3.3807,-3.3807,-3.3807,-3.3807,-3.3807,-3.3807,-3.3807,-3.3807,-3.3201,-3.2784,-3.2784,-3.2784,-3.306,-3.3752,-3.3807,-3.3807,-3.3807,-3.3807,-3.3807,-3.3807,-3.3855,-3.3868,-3.382,-3.382,-3.382,-3.382,-3.3788,-3.3807,-2.1135,-2.1291,-2.1097,-2.0402,-2.026,-2.0269,-2.0269,-2.03,0.0,0.0,0.0,0.0,0.0,-2.2715,-2.329,-2.5027,-2.6594,-2.801,-2.9132,-3.0041,-3.0602,-3.0598,-3.0602,-3.1202,-3.2759,-3.2894,-3.361,-3.5375,-3.5375,-3.5356,-3.5491,-3.5496,-3.5496,-3.5496,-3.5626,-3.5646,-3.5491,-3.5496,-3.5568,-3.5704,-3.5704,-3.5704,-3.5665,-3.4935,-3.4888,-3.536,-3.4588,-3.4464,-3.4783,-3.4703,-3.4513,-3.4293,-3.4221,-3.4197,-3.4197,-3.4197,-3.4197,-3.4197,-3.4197,-3.4197,-3.4197,-3.4197,-3.4197,-3.4197,-3.4197,-3.4197,-3.4197,-3.4197,-3.4197,-3.4185,-3.4136,-3.4111,-3.4074,-3.3959,-3.3921,-3.3895,-3.3815,-3.382,-3.3802,-3.3788,-3.3807,-3.3807,-3.3807,-3.3807,-3.3807,-3.3807,-3.3807,-3.3807,-3.3807,-3.3807,-3.3807,-3.3807,-3.3697,-3.3623,-3.3623,-3.3623,-3.3678,-3.3788,-3.3807,-3.3807,-3.3807,-3.3807,-3.3807,-3.3807,-3.3855,-3.3895,-3.3881,-3.3881,-3.3881,-3.3881,-3.3834,-3.3807,-2.075,-2.0846,-2.0865,-2.0923,-2.1293,-2.1523,-2.1062,-2.0974,0.0,0.0,0.0,0.0,0.0,0.0,-2.4312,-2.6497,-2.7894,-2.9016,-2.9882,-3.0346,-3.0598,-3.0598,-3.0598,-3.1062,-3.2275,-3.2817,-3.3629,-3.4897,-3.4993,-3.4993,-3.4993,-3.4543,-3.4311,-3.4311,-3.4756,-3.4775,-3.4311,-3.4756,-3.5226,-3.5684,-3.5226,-3.5245,-3.5665,-3.48,-3.4825,-3.5501,-3.4533,-3.4472,-3.5056,-3.4794,-3.4601,-3.4439,-3.4262,-3.4197,-3.4197,-3.4197,-3.4197,-3.4197,-3.4197,-3.4197,-3.4197,-3.4197,-3.4197,-3.4197,-3.4197,-3.4197,-3.4197,-3.4197,-3.4197,-3.4197,-3.4161,-3.4124,-3.4074,-3.3972,-3.3921,-3.3868,-3.3802,-3.3807,-3.3807,-3.3807,-3.3807,-3.3807,-3.3807,-3.3807,-3.3807,-3.3807,-3.3807,-3.3807,-3.3807,-3.3807,-3.3807,-3.3807,-3.3807,-3.3807,-3.3807,-3.3807,-3.3807,-3.3807,-3.3807,-3.3807,-3.3807,-3.3829,-3.3847,-3.3807,-3.3855,-3.3895,-3.3895,-3.3895,-3.3895,-3.3913,-3.4352,-3.4513,-2.0546,-2.0604,-2.08,-2.1613,-2.2013,-2.2143,-2.1878,-2.1698,-2.1656,-2.186,0.0,0.0,0.0,-2.4513,-2.5492,-2.7643,-2.8726,-2.9592,-3.0482,-3.0598,-3.0598,-3.0598,-3.0598,-3.0926,-3.1715,-3.2585,-3.3455,-3.4336,-3.4394,-3.4394,-3.4394,-3.3576,-3.3107,-3.3107,-3.375,-3.3789,-3.3107,-3.3557,-3.4234,-3.5085,-3.4408,-3.4543,-3.538,-3.4485,-3.4679,-3.564,-3.4615,-3.4616,-3.529,-3.4925,-3.4714,-3.4601,-3.4309,-3.4197,-3.4197,-3.4197,-3.4197,-3.4197,-3.4197,-3.4197,-3.4197,-3.4197,-3.4197,-3.4197,-3.4197,-3.4197,-3.4197,-3.4197,-3.4197,-3.4197,-3.4197,-3.4148,-3.4086,-3.4023,-3.3947,-3.3868,-3.3802,-3.3807,-3.3807,-3.3807,-3.3807,-3.3807,-3.3807,-3.3807,-3.3807,-3.3807,-3.3807,-3.3807,-3.3807,-3.3807,-3.3807,-3.3807,-3.3807,-3.3807,-3.3807,-3.3807,-3.3807,-3.3807,-3.3807,-3.3807,-3.3807,-3.3842,-3.3842,-3.3807,-3.3855,-3.3895,-3.3895,-3.3908,-3.4031,-3.4234,-3.4889,-3.5253,-2.1297,-2.1517,-2.1714,-2.2574,-2.1625,-2.0873,-2.238,-2.2134,-2.1841,-2.2632,-2.2813,-2.3091,-2.4037,-2.5468,-2.6841,-2.7836,-2.8726,-2.9592,-3.0482,-3.0598,-3.0598,-3.0598,-3.0598,-3.0926,-3.1715,-3.2585,-3.3455,-3.4336,-3.4394,-3.4394,-3.4394,-3.3576,-3.3107,-3.3107,-3.3165,-3.3165,-3.3107,-3.2353,-3.2411,-3.33,-3.3223,-3.3654,-3.4452,-3.359,-3.4112,-3.5646,-3.4751,-3.476,-3.5378,-3.5092,-3.486,-3.4653,-3.4333,-3.4197,-3.4197,-3.4197,-3.4197,-3.4197,-3.4197,-3.4197,-3.4197,-3.4197,-3.4197,-3.4197,-3.4197,-3.4197,-3.4197,-3.4197,-3.4197,-3.4197,-3.4197,-3.4148,-3.4086,-3.4023,-3.3947,-3.3868,-3.3802,-3.3807,-3.3807,-3.3807,-3.3807,-3.3807,-3.3807,-3.3807,-3.3807,-3.3807,-3.3807,-3.3807,-3.3807,-3.3807,-3.3807,-3.3807,-3.3807,-3.3807,-3.3807,-3.3807,-3.3807,-3.3807,-3.3807,-3.3807,-3.3807,-3.3788,-3.3788,-3.3807,-3.3855,-3.3895,-3.3895,-3.3959,-3.4404,-3.5198,-3.5192,-3.5593,-2.0704,-2.1182,-2.1791,-2.2623,-2.2377,0.0,-2.2713,-2.3056,-2.3319,-2.3644,-2.4138,-2.4768,-2.5604,-2.7151,-2.8257,-2.803,-2.919,-3.0211,-3.0559,-3.0598,-3.0598,-3.0598,-3.0598,-3.0714,-3.1023,-3.1792,-3.243,-3.2764,-3.2783,-3.2783,-3.2783,-3.201,-3.1545,-3.1545,-3.2024,-3.2043,-3.1541,-3.1715,-3.1715,-3.1541,-3.2043,-3.3035,-3.4374,-3.3494,-3.4054,-3.5646,-3.4781,-3.485,-3.5565,-3.5295,-3.5064,-3.4841,-3.4371,-3.4197,-3.4197,-3.4197,-3.4197,-3.4197,-3.4197,-3.4197,-3.4197,-3.4197,-3.4197,-3.4197,-3.4197,-3.4197,-3.4197,-3.4197,-3.4197,-3.4197,-3.4197,-3.4185,-3.4136,-3.4023,-3.3985,-3.3934,-3.3815,-3.3807,-3.3807,-3.3807,-3.3807,-3.3807,-3.3807,-3.3807,-3.3807,-3.3807,-3.4215,-3.4546,-3.4546,-3.5018,-3.5349,-3.5349,-3.5349,-3.5349,-3.5349,-3.4857,-3.4546,-3.4546,-3.4082,-3.3807,-3.3807,-3.3807,-3.3807,-3.3807,-3.4402,-3.4745,-3.4766,-3.533,-3.5536,-3.5388,-3.6311,-3.6625,-2.0704,-2.1139,-2.1791,-2.2635,0.0,0.0,-2.325,-2.3968,-2.4652,-2.4927,-2.546,-2.6126,-2.6957,-2.8083,-2.8784,-2.8455,-2.9631,-3.0598,-3.0598,-3.0598,-3.0598,-3.0598,-3.0598,-3.0598,-3.0598,-3.1328,-3.1792,-3.1792,-3.1792,-3.1792,-3.1792,-3.1043,-3.0598,-3.0598,-3.1139,-3.1159,-3.0617,-3.1159,-3.1275,-3.0984,-3.1541,-3.257,-3.3982,-3.3654,-3.4311,-3.5665,-3.5071,-3.5148,-3.5673,-3.5418,-3.5127,-3.4841,-3.439,-3.4197,-3.4197,-3.4197,-3.4197,-3.4197,-3.4197,-3.4197,-3.4197,-3.4197,-3.4197,-3.4197,-3.4197,-3.4197,-3.4197,-3.4197,-3.4197,-3.4197,-3.4197,-3.4197,-3.4173,-3.4061,-3.4023,-3.3972,-3.3873,-3.3802,-3.3807,-3.3807,-3.3807,-3.3807,-3.3807,-3.3807,-3.3899,-3.4137,-3.4656,-3.5096,-3.5371,-3.5936,-3.6303,-3.6303,-3.6303,-3.6303,-3.6303,-3.5752,-3.5298,-3.5023,-3.4472,-3.4064,-3.3807,-3.3807,-3.393,-3.4233,-3.4875,-3.5366,-3.5673,-3.6308,-3.6446,-3.6186,-3.7248,-3.753,-2.1571,-2.1598,-2.1818,-2.267,0.0,0.0,-2.4037,-2.4838,-2.5657,-2.6528,-2.6721,-2.6996,-2.7855,-2.801,-2.83,-2.9171,-3.0037,-3.0598,-3.0598,-3.0598,-3.0598,-3.0598,-3.0598,-3.0598,-3.0598,-3.1308,-3.1792,-3.1792,-3.1792,-3.1792,-3.1792,-3.1023,-3.0598,-3.0598,-3.0617,-3.0617,-3.0617,-3.0617,-3.1023,-3.1811,-3.1811,-3.2275,-3.3146,-3.4002,-3.4877,-3.5704,-3.5704,-3.5704,-3.5673,-3.5418,-3.5018,-3.4591,-3.4309,-3.4209,-3.4197,-3.4197,-3.4197,-3.4197,-3.4197,-3.4197,-3.4197,-3.4197,-3.4197,-3.4197,-3.4197,-3.4197,-3.4197,-3.4197,-3.4197,-3.4197,-3.4197,-3.4197,-3.4185,-3.4124,-3.4049,-3.3985,-3.3908,-3.386,-3.3807,-3.3807,-3.3807,-3.3807,-3.3807,-3.3807,-3.4082,-3.4876,-3.5023,-3.5334,-3.6211,-3.6321,-3.6321,-3.6321,-3.6321,-3.6321,-3.6321,-3.6321,-3.5936,-3.5078,-3.5023,-3.4656,-3.3825,-3.3807,-3.4233,-3.5178,-3.521,-3.5625,-3.6518,-3.6586,-3.702,-3.7798,-3.7822,-3.8192,-2.0839,-2.1544,0.0,-2.2829,0.0,0.0,-2.5754,-2.5716,-2.589,-2.7329,-2.8103,-2.8606,-2.8881,-2.9422,-2.9708,-2.9364,-3.0037,-3.0598,-3.0598,-3.0598,-3.0598,-3.0598,-3.0598,-3.0598,-3.0598,-3.083,-3.0965,-3.0965,-3.0965,-3.0965,-3.0965,-3.0733,-3.0598,-3.0598,-3.1159,-3.1444,-3.1444,-3.2043,-3.2488,-3.272,-3.3344,-3.375,-3.4021,-3.4278,-3.4877,-3.5704,-3.5704,-3.5704,-3.5673,-3.5404,-3.5133,-3.486,-3.4596,-3.4381,-3.4197,-3.4197,-3.4197,-3.4197,-3.4197,-3.4197,-3.4197,-3.4197,-3.4197,-3.4197,-3.4197,-3.4197,-3.4197,-3.4197,-3.4197,-3.4197,-3.4197,-3.4197,-3.4185,-3.4124,-3.4049,-3.3985,-3.3908,-3.386,-3.3807,-3.3807,-3.3807,-3.3807,-3.3807,-3.3807,-3.4082,-3.4876,-3.5518,-3.6413,-3.7808,-3.7991,-3.7991,-3.7991,-3.7991,-3.7991,-3.7991,-3.7459,-3.7033,-3.6762,-3.6229,-3.5275,-3.3862,-3.386,-3.4286,-3.5178,-3.5285,-3.6022,-3.7419,-3.7487,-3.7644,-3.7885,-3.8391,-3.8432,-2.1947,-2.2556,0.0,-2.4225,-2.4917,-2.5726,-2.6934,-2.7116,-2.7387,-2.8745,-2.919,-2.9403,-2.9747,-2.9959,-3.0017,-2.9843,-3.025,-3.0598,-3.0598,-3.0598,-3.0598,-3.0598,-3.0598,-3.0598,-3.0598,-3.0888,-3.0946,-3.0617,-3.0907,-3.0946,-3.0617,-3.0598,-3.0752,-3.1062,-3.1541,-3.1966,-3.2314,-3.2836,-3.3262,-3.3615,-3.4156,-3.4587,-3.4916,-3.4916,-3.5206,-3.5704,-3.5704,-3.5679,-3.5631,-3.5319,-3.5083,-3.4935,-3.4577,-3.434,-3.4197,-3.4197,-3.4197,-3.4197,-3.4197,-3.4197,-3.4197,-3.4197,-3.4197,-3.4197,-3.4197,-3.4197,-3.4197,-3.4197,-3.4197,-3.4197,-3.4197,-3.4197,-3.4185,-3.4124,-3.4049,-3.3985,-3.3908,-3.386,-3.3807,-3.3807,-3.4064,-3.4192,-3.3862,-3.4082,-3.4559,-3.5389,-3.6505,-3.7606,-3.8579,-3.8707,-3.8707,-3.8707,-3.8707,-3.8707,-3.8707,-3.8248,-3.7841,-3.7529,-3.7052,-3.6174,-3.4853,-3.4848,-3.5289,-3.6178,-3.63,-3.6997,-3.8322,-3.8363,-3.8377,-3.8395,-3.8823,-3.8734,-2.3995,-2.4091,-2.4581,-2.6188,-2.6163,0.0,-2.777,-2.8784,-2.9611,-3.0327,-2.9901,-2.965,-3.0443,-2.994,-2.9669,-3.0462,-3.0598,-3.0598,-3.0598,-3.0598,-3.0598,-3.0598,-3.0598,-3.0598,-3.0598,-3.1255,-3.1386,-3.0656,-3.1275,-3.1366,-3.0636,-3.0598,-3.0965,-3.1773,-3.1889,-3.2333,-3.3204,-3.33,-3.3731,-3.4529,-3.4529,-3.4935,-3.5704,-3.5704,-3.5704,-3.5704,-3.5704,-3.5673,-3.5589,-3.5216,-3.4997,-3.487,-3.4428,-3.4245,-3.4197,-3.4197,-3.4197,-3.4197,-3.4197,-3.4197,-3.4197,-3.4197,-3.4197,-3.4197,-3.4197,-3.4197,-3.4197,-3.4197,-3.4197,-3.4197,-3.4197,-3.4197,-3.4185,-3.4111,-3.4049,-3.3985,-3.3908,-3.3897,-3.3917,-3.3917,-3.4564,-3.4894,-3.4156,-3.4564,-3.5279,-3.6101,-3.7643,-3.8707,-3.8707,-3.8707,-3.8707,-3.8707,-3.8707,-3.8707,-3.8707,-3.8707,-3.8395,-3.7658,-3.7621,-3.729,-3.6556,-3.6462,-3.6827,-3.7677,-3.7701,-3.8155,-3.9101,-3.9027,-3.9027,-3.9101,-3.9101,-3.9017,-2.3278,-2.4043,0.0,-2.5567,-2.7089,-2.8569,-2.893,-2.9689,-3.0172,-2.9669,-2.9959,-3.0385,-3.0578,-3.0443,-3.0385,-3.0578,-3.0598,-3.0598,-3.0598,-3.0598,-3.0598,-3.0598,-3.0598,-3.0598,-3.0598,-3.0752,-3.0791,-3.0617,-3.0752,-3.0772,-3.0617,-3.0598,-3.0965,-3.1773,-3.2469,-3.3242,-3.4098,-3.4795,-3.522,-3.5419,-3.5419,-3.5516,-3.5704,-3.5704,-3.5704,-3.5704,-3.5704,-3.5684,-3.5668,-3.5541,-3.5281,-3.4962,-3.4812,-3.4524,-3.4197,-3.4197,-3.4197,-3.4197,-3.4197,-3.4197,-3.4197,-3.4197,-3.4197,-3.4197,-3.4197,-3.4197,-3.4197,-3.4197,-3.4197,-3.4197,-3.4197,-3.4197,-3.4173,-3.4049,-3.4011,-3.3985,-3.3908,-3.4343,-3.4747,-3.4747,-3.5426,-3.5973,-3.5789,-3.5334,-3.5151,-3.5605,-3.7404,-3.8707,-3.8707,-3.8707,-3.8707,-3.8707,-3.8707,-3.8707,-3.8707,-3.8707,-3.8634,-3.845,-3.8432,-3.8389,-3.8262,-3.7104,-3.6851,-3.7677,-3.7201,-3.7639,-3.9101,-3.8469,-3.8469,-3.9101,-3.9101,-3.9017,-2.412,0.0,0.0,-2.7002,0.0,-2.9864,-2.9878,-3.026,-3.0462,-3.0017,-3.0288,-3.0598,-3.0598,-3.0598,-3.0598,-3.0598,-3.0598,-3.0598,-3.0598,-3.0598,-3.0598,-3.0598,-3.0598,-3.0598,-3.0598,-3.0946,-3.1004,-3.0636,-3.0965,-3.1004,-3.0617,-3.0598,-3.1159,-3.2372,-3.2856,-3.3726,-3.5013,-3.5477,-3.5704,-3.5704,-3.5704,-3.5704,-3.5704,-3.5704,-3.5704,-3.5704,-3.5704,-3.5673,-3.5633,-3.5409,-3.516,-3.4926,-3.4672,-3.4413,-3.4197,-3.4197,-3.4197,-3.4197,-3.4197,-3.4197,-3.4197,-3.4197,-3.4197,-3.4197,-3.4197,-3.4197,-3.429,-3.4699,-3.4822,-3.4915,-3.5293,-3.5379,-3.5236,-3.4726,-3.4293,-3.3972,-3.3868,-3.4463,-3.5004,-3.5004,-3.6009,-3.6758,-3.6358,-3.6138,-3.605,-3.6229,-3.7661,-3.8707,-3.8707,-3.8707,-3.8707,-3.8707,-3.8707,-3.8707,-3.8707,-3.8707,-3.8707,-3.8707,-3.8735,-3.8762,-3.8807,-3.8083,-3.7882,-3.8307,-3.8006,-3.8265,-3.9101,-3.8674,-3.8692,-3.9101,-3.9101,-3.9017,-2.5308,0.0,-2.7241,-2.8961,-2.9948,0.0,-3.051,-3.055,-3.0588,-3.0588,-3.0593,-3.0598,-3.0598,-3.0598,-3.0598,-3.0598,-3.0598,-3.0598,-3.0598,-3.0598,-3.0598,-3.0598,-3.0598,-3.0598,-3.0598,-3.1197,-3.1313,-3.0656,-3.1217,-3.1289,-3.0636,-3.0598,-3.1294,-3.2836,-3.303,-3.3861,-3.5452,-3.5626,-3.5704,-3.5704,-3.5704,-3.5704,-3.5704,-3.5704,-3.5704,-3.5704,-3.5704,-3.5681,-3.5591,-3.52,-3.4999,-3.4879,-3.4435,-3.4245,-3.4197,-3.4197,-3.4197,-3.4197,-3.4197,-3.4197,-3.4197,-3.4197,-3.4197,-3.4197,-3.4197,-3.4309,-3.4569,-3.5306,-3.5603,-3.5863,-3.6532,-3.6652,-3.6424,-3.5687,-3.4847,-3.4131,-3.3852,-3.4546,-3.5224,-3.5224,-3.6578,-3.7456,-3.6652,-3.6982,-3.7276,-3.7,-3.7955,-3.8707,-3.8707,-3.8707,-3.8707,-3.8707,-3.8707,-3.8707,-3.8707,-3.8707,-3.8707,-3.8707,-3.8762,-3.8788,-3.8822,-3.8921,-3.9011,-3.9021,-3.9073,-3.9101,-3.9101,-3.9101,-3.9101,-3.9101,-3.9101,-3.9091,-2.5308,0.0,-2.8132,0.0,-3.0326,-3.0433,0.0,0.0,-3.0519,-3.0515,-3.0559,-3.0598,-3.0598,-3.0598,-3.0598,-3.0598,-3.0598,-3.0598,-3.0598,-3.0598,-3.0598,-3.0598,-3.0598,-3.0598,-3.0598,-3.0694,-3.0714,-3.0617,-3.0694,-3.0714,-3.0617,-3.0598,-3.1023,-3.1947,-3.272,-3.3571,-3.4568,-3.5322,-3.5704,-3.5704,-3.5704,-3.5704,-3.5704,-3.5704,-3.5704,-3.5704,-3.5704,-3.5684,-3.5662,-3.5381,-3.5144,-3.4963,-3.466,-3.4397,-3.4197,-3.4197,-3.4197,-3.4197,-3.4197,-3.4197,-3.4197,-3.4197,-3.4197,-3.4197,-3.4197,-3.4729,-3.5343,-3.5473,-3.6012,-3.6569,-3.6681,-3.6652,-3.6572,-3.6394,-3.568,-3.482,-3.3967,-3.5037,-3.6138,-3.6138,-3.7441,-3.8285,-3.7474,-3.7973,-3.801,-3.6615,-3.7716,-3.8707,-3.8707,-3.8707,-3.8707,-3.8707,-3.8707,-3.8707,-3.8707,-3.8707,-3.8707,-3.8707,-3.8723,-3.8765,-3.8881,-3.8954,-3.9026,-3.9087,-3.9101,-3.9101,-3.9101,-3.9101,-3.9101,-3.9101,-3.9101,-3.9406,-2.6486,-2.7313,-2.8299,0.0,-3.04,-3.0417,-3.0433,-3.0469,-3.035,-2.9877,-3.0182,-3.0564,-3.0593,-3.0598,-3.0598,-3.0598,-3.0598,-3.0598,-3.0598,-3.0598,-3.0598,-3.0598,-3.0598,-3.0598,-3.0598,-3.0598,-3.0598,-3.0598,-3.0598,-3.0598,-3.0598,-3.0598,-3.0965,-3.1773,-3.2179,-3.3015,-3.4394,-3.4781,-3.5226,-3.5704,-3.5704,-3.5704,-3.5704,-3.5704,-3.5704,-3.5704,-3.5704,-3.5687,-3.5622,-3.5281,-3.5051,-3.4917,-3.4513,-3.4305,-3.4197,-3.4197,-3.4513,-3.4952,-3.5107,-3.5163,-3.52,-3.5497,-3.5404,-3.5126,-3.4959,-3.5213,-3.551,-3.551,-3.6086,-3.6699,-3.6699,-3.732,-3.7627,-3.6347,-3.6302,-3.6039,-3.4187,-3.4871,-3.6211,-3.7404,-3.823,-3.8597,-3.823,-3.8469,-3.8469,-3.7753,-3.8248,-3.8707,-3.8707,-3.8707,-3.8707,-3.8707,-3.8707,-3.8707,-3.8707,-3.8707,-3.8707,-3.8707,-3.8837,-3.8921,-3.8972,-3.9026,-3.9078,-3.9101,-3.9101,-3.9101,-3.9101,-3.9101,-3.9101,-3.9101,-3.9101,-3.9462,-2.7159,-2.7736,-2.8255,-2.9717,-3.0229,-3.04,0.0,0.0,-3.029,-2.964,-3.0025,-3.0504,-3.055,-3.0564,-3.0569,-3.0569,-3.0593,-3.0598,-3.0598,-3.0598,-3.0598,-3.0598,-3.0598,-3.0598,-3.0598,-3.0598,-3.0598,-3.0598,-3.0598,-3.0598,-3.0598,-3.0598,-3.0888,-3.1483,-3.1695,-3.2532,-3.404,-3.451,-3.5071,-3.5704,-3.5704,-3.5704,-3.5704,-3.5704,-3.5704,-3.5704,-3.5704,-3.5656,-3.5566,-3.5168,-3.4963,-3.4851,-3.4379,-3.4197,-3.4197,-3.4197,-3.4606,-3.5268,-3.5887,-3.611,-3.6166,-3.6575,-3.6519,-3.6228,-3.5906,-3.59,-3.5887,-3.5343,-3.5919,-3.6792,-3.7188,-3.7964,-3.828,-3.6869,-3.7072,-3.7065,-3.5069,-3.5202,-3.6303,-3.8303,-3.8707,-3.8707,-3.8707,-3.8707,-3.8707,-3.8707,-3.8707,-3.8707,-3.8707,-3.8707,-3.8707,-3.8707,-3.8707,-3.8707,-3.8707,-3.8707,-3.8707,-3.8707,-3.895,-3.9092,-3.9026,-3.9059,-3.9101,-3.9101,-3.9101,-3.9101,-3.9101,-3.9101,-3.9101,-3.9101,-3.9073,-3.9448,-2.6428,-2.7274,-2.8107,-2.8953,-2.9794,-3.0404,0.0,0.0,-3.0396,-3.0353,-3.0378,-3.0428,-3.0485,-3.0505,-3.0515,-3.0515,-3.0559,-3.0598,-3.0598,-3.0598,-3.0598,-3.0598,-3.0598,-3.0598,-3.0598,-3.0598,-3.0598,-3.0598,-3.0598,-3.0598,-3.0598,-3.0598,-3.0617,-3.0656,-3.1405,-3.2237,-3.3165,-3.4814,-3.5665,-3.5704,-3.5704,-3.5704,-3.5704,-3.5704,-3.5704,-3.5704,-3.5704,-3.5668,-3.5577,-3.5165,-3.4962,-3.4851,-3.4383,-3.4197,-3.4197,-3.4197,-3.4234,-3.4494,-3.6092,-3.6649,-3.6649,-3.6686,-3.7021,-3.7318,-3.6798,-3.6983,-3.6965,-3.4866,-3.5442,-3.7039,-3.8581,-3.8284,-3.7792,-3.8637,-3.8194,-3.7489,-3.7033,-3.6578,-3.6743,-3.8377,-3.8707,-3.8707,-3.8707,-3.8707,-3.8707,-3.8707,-3.8707,-3.8707,-3.8707,-3.8707,-3.8707,-3.8707,-3.8707,-3.8707,-3.8707,-3.8707,-3.8707,-3.8707,-3.895,-3.9101,-3.9087,-3.9101,-3.9101,-3.9101,-3.9101,-3.9101,-3.9101,-3.9101,-3.9101,-3.9101,-3.9036,-3.9408,-2.6365,-2.6832,0.0,-2.8761,-2.9338,-2.9717,-3.0269,-3.0404,-3.0237,-2.9677,-3.0004,-3.0235,-2.9693,-3.0083,-3.0495,-3.0495,-3.0525,-3.053,-3.053,-3.053,-3.053,-3.053,-3.0545,-3.0545,-3.0535,-3.0579,-3.0569,-3.053,-3.0588,-3.0598,-3.0598,-3.0598,-3.0598,-3.0598,-3.0888,-3.1695,-3.3088,-3.4833,-3.5704,-3.5704,-3.5704,-3.5704,-3.5704,-3.5704,-3.5704,-3.5704,-3.5704,-3.5662,-3.5572,-3.5168,-3.5016,-3.4972,-3.4424,-3.4197,-3.4197,-3.4197,-3.4661,-3.5423,-3.637,-3.7373,-3.8228,-3.8228,-3.8377,-3.8488,-3.8302,-3.8377,-3.8154,-3.6315,-3.6253,-3.6829,-3.7411,-3.8042,-3.8609,-3.8919,-3.8649,-3.826,-3.8138,-3.7973,-3.801,-3.8597,-3.8707,-3.8707,-3.8707,-3.8707,-3.8707,-3.8707,-3.8707,-3.8707,-3.8707,-3.8707,-3.8707,-3.8707,-3.8707,-3.8707,-3.8707,-3.8707,-3.8707,-3.8707,-3.895,-3.9101,-3.9101,-3.9101,-3.9101,-3.9101,-3.9101,-3.9101,-3.9101,-3.9101,-3.9101,-3.9101,-3.9036,-3.9408,-2.5923,-2.639,0.0,0.0,-2.8703,-2.9011,-3.0135,-3.0173,-2.989,-2.9602,-3.0,-3.0212,-2.964,-3.004,-3.0477,-3.0463,-3.0499,-3.0504,-3.0504,-3.0504,-3.0504,-3.0504,-3.0495,-3.05,-3.0504,-3.0535,-3.055,-3.0496,-3.0535,-3.0588,-3.0598,-3.0598,-3.0598,-3.0598,-3.0868,-3.1676,-3.3088,-3.4543,-3.5419,-3.5704,-3.5704,-3.5704,-3.5704,-3.5704,-3.5704,-3.5704,-3.5704,-3.5633,-3.5502,-3.5141,-3.5008,-3.4945,-3.4413,-3.4197,-3.4327,-3.5442,-3.6315,-3.7039,-3.7373,-3.8209,-3.9101,-3.9101,-3.9101,-3.9101,-3.9101,-3.9101,-3.8878,-3.7801,-3.7503,-3.7503,-3.7503,-3.8275,-3.9036,-3.8954,-3.8822,-3.8735,-3.8707,-3.8707,-3.8707,-3.8707,-3.8707,-3.8707,-3.8707,-3.8707,-3.8707,-3.8707,-3.8707,-3.8707,-3.8707,-3.8707,-3.8707,-3.8707,-3.8707,-3.8707,-3.8707,-3.8707,-3.8707,-3.8707,-3.8939,-3.9064,-3.9031,-3.9073,-3.9101,-3.9101,-3.9101,-3.9101,-3.9101,-3.9101,-3.9087,-3.9078,-3.9271,-3.9756,0.0,0.0,0.0,0.0,0.0,0.0,-2.9981,-2.9698,-2.9319,-3.0212,-3.0385,-3.0365,-3.0404,-3.0404,-3.0396,-3.0406,-3.0439,-3.0499,-3.0499,-3.0499,-3.0499,-3.0499,-3.0504,-3.0504,-3.0499,-3.0504,-3.049,-3.0491,-3.0496,-3.0525,-3.0598,-3.0598,-3.0598,-3.0598,-3.1386,-3.2217,-3.3088,-3.3963,-3.4839,-3.5704,-3.5704,-3.5704,-3.5704,-3.5704,-3.5704,-3.5704,-3.5704,-3.5598,-3.5379,-3.5114,-3.4925,-3.4781,-3.4356,-3.4209,-3.4587,-3.7894,-3.9101,-3.9101,-3.9101,-3.9101,-3.9101,-3.9101,-3.9101,-3.9101,-3.9101,-3.9101,-3.9101,-3.9101,-3.9101,-3.9101,-3.9101,-3.9054,-3.8972,-3.8833,-3.88,-3.8788,-3.8704,-3.8707,-3.8707,-3.8707,-3.8707,-3.8707,-3.8707,-3.8707,-3.8707,-3.8707,-3.8707,-3.8707,-3.8707,-3.8707,-3.8707,-3.8707,-3.8707,-3.8707,-3.8707,-3.8707,-3.8707,-3.8707,-3.8885,-3.8972,-3.8925,-3.9017,-3.9101,-3.9101,-3.9101,-3.9101,-3.9101,-3.9101,-3.9059,-3.903,-3.9734,-4.0425,-2.525,0.0,0.0,0.0,0.0,0.0,-2.9083,-2.8819,-2.864,-3.0096,-2.991,-2.964,-3.0288,-3.0404,-3.0404,-3.0396,-3.0427,-3.0433,-3.0433,-3.0433,-3.0433,-3.0433,-3.0436,-3.0442,-3.0433,-3.0477,-3.0504,-3.049,-3.0505,-3.0525,-3.0598,-3.0598,-3.0598,-3.0598,-3.1386,-3.2217,-3.3088,-3.3963,-3.4839,-3.5704,-3.5704,-3.5704,-3.5704,-3.5704,-3.5704,-3.5704,-3.5704,-3.559,-3.5383,-3.5111,-3.4981,-3.4889,-3.4502,-3.4281,-3.4587,-3.7894,-3.9101,-3.9101,-3.9101,-3.9101,-3.9101,-3.9101,-3.9101,-3.9101,-3.9101,-3.9101,-3.9101,-3.9101,-3.9101,-3.9101,-3.9101,-3.8935,-3.8765,-3.8735,-3.8735,-3.8719,-3.8707,-3.8707,-3.8707,-3.8707,-3.8707,-3.8707,-3.8707,-3.8707,-3.8707,-3.8707,-3.8707,-3.8707,-3.8707,-3.8707,-3.8707,-3.8707,-3.8707,-3.8707,-3.8707,-3.8707,-3.8707,-3.8707,-3.8792,-3.8921,-3.9031,-3.9021,-3.9036,-3.9101,-3.9101,-3.9101,-3.9101,-3.9045,-3.9021,-3.9011,-3.9117,-3.9531,-2.5212,-2.5308,-2.5519,-2.6385,0.0,0.0,-2.8626,-2.8472,-2.8486,-3.0519,-3.0256,-2.991,-3.0769,-3.0654,-3.0404,-3.0404,-3.0404,-3.0404,-3.0404,-3.0404,-3.0404,-3.0404,-3.0729,-3.0793,-3.0442,-3.0766,-3.0857,-3.0483,-3.049,-3.054,-3.0598,-3.0598,-3.0598,-3.0598,-3.1043,-3.1695,-3.2546,-3.3054,-3.375,-3.4621,-3.4969,-3.5168,-3.5168,-3.553,-3.5704,-3.5704,-3.5704,-3.5626,-3.5547,-3.5756,-3.5435,-3.4803,-3.4575,-3.5191,-3.6489,-3.8615,-3.9266,-3.9142,-3.9326,-3.9266,-3.9101,-3.9101,-3.9227,-3.9364,-3.9165,-3.9101,-3.9101,-3.9101,-3.9337,-3.9526,-3.9197,-3.9059,-3.8979,-3.875,-3.8707,-3.8707,-3.8707,-3.8707,-3.8707,-3.8707,-3.8707,-3.8707,-3.8707,-3.8707,-3.8707,-3.8707,-3.8707,-3.9184,-4.0524,-4.114,-4.0918,-3.9513,-3.8964,-3.8881,-3.9324,-3.895,-3.8707,-3.8707,-3.875,-3.8803,-3.8921,-3.8987,-3.9026,-3.9101,-3.9101,-3.9073,-3.9021,-3.9007,-3.9149,-3.9409,-3.9322,-3.9837,-2.5139,-2.5308,-2.5519,-2.6385,-2.5942,0.0,-2.8415,-2.8338,-2.8429,-3.0794,-3.0731,-3.0481,-3.1275,-3.0865,-3.0404,-3.0404,-3.0481,-3.0519,-3.0404,-3.0481,-3.0538,-3.0538,-3.1308,-3.1525,-3.075,-3.1385,-3.148,-3.0604,-3.0527,-3.053,-3.0598,-3.0598,-3.0598,-3.0598,-3.0598,-3.0984,-3.1792,-3.1792,-3.2295,-3.3242,-3.4021,-3.4452,-3.4568,-3.5361,-3.5704,-3.5704,-3.5704,-3.5704,-3.577,-3.6619,-3.6226,-3.5017,-3.4891,-3.6611,-3.9227,-3.9664,-3.9566,-3.9266,-3.9664,-3.9519,-3.917,-3.917,-3.9408,-3.9664,-3.9351,-3.9253,-3.9253,-3.9253,-3.9773,-4.0147,-3.9427,-3.9414,-3.9477,-3.8993,-3.8795,-3.8707,-3.8707,-3.8982,-3.9239,-3.9239,-3.9034,-3.8881,-3.8881,-3.8881,-3.8992,-3.9376,-3.9446,-4.0465,-4.3326,-4.463,-4.415,-4.116,-3.9996,-3.9813,-4.0778,-3.9633,-3.884,-3.8707,-3.8707,-3.8707,-3.8707,-3.8885,-3.9026,-3.9101,-3.9101,-3.9031,-3.8877,-3.895,-3.928,-3.9847,-3.9785,-4.0634,-2.5471,-2.5308,-2.5519,-2.6385,-2.5942,0.0,-2.7698,-2.7467,-2.7198,-2.839,-2.9025,-2.9415,-2.9588,-3.0044,-3.0404,-3.0404,-3.0981,-3.1192,-3.05,-3.1,-3.1448,-3.1448,-3.2179,-3.2602,-3.2429,-3.2564,-3.2326,-3.1515,-3.0865,-3.0525,-3.0598,-3.0598,-3.0598,-3.0598,-3.0598,-3.0984,-3.1792,-3.1792,-3.259,-3.4156,-3.4316,-3.4781,-3.5458,-3.5626,-3.5704,-3.5704,-3.5704,-3.5704,-3.5762,-3.6578,-3.7231,-3.764,-3.6606,-3.7621,-3.9687,-3.9941,-3.9981,-3.9878,-3.9819,-3.9671,-3.9508,-3.9508,-3.9383,-3.9364,-4.0033,-4.023,-4.023,-4.023,-4.0347,-4.0402,-4.0128,-4.0098,-4.0127,-3.9996,-3.9324,-3.8707,-3.8707,-4.0744,-4.2561,-4.2561,-4.1159,-3.9994,-3.9994,-3.9994,-4.0897,-4.3597,-4.4007,-4.4243,-4.4877,-4.5151,-4.5048,-4.438,-4.4146,-4.4094,-4.4312,-4.1668,-3.9611,-3.875,-3.8707,-3.8707,-3.8707,-3.8837,-3.8979,-3.9101,-3.9101,-3.9017,-3.8815,-3.8829,-3.888,-3.8943,-3.8927,-3.9808,-2.5597,-2.5327,-2.5404,-2.5846,-2.5942,0.0,0.0,-2.7871,-2.8082,-2.8967,-2.9121,-2.9107,-2.9107,-2.9121,-2.9275,-2.9698,-3.0487,-3.0904,-3.0462,-3.15,-3.2295,-3.2295,-3.3045,-3.3372,-3.2949,-3.3295,-3.3218,-3.2401,-3.1568,-3.1123,-3.1192,-3.082,-3.0598,-3.0598,-3.0598,-3.0791,-3.1197,-3.1197,-3.1835,-3.3112,-3.3538,-3.4214,-3.5071,-3.5491,-3.5704,-3.5704,-3.5704,-3.5704,-3.5762,-3.6574,-3.7365,-3.8114,-3.8279,-3.9013,-3.9975,-4.0223,-4.011,-3.9886,-4.0072,-3.9963,-3.9739,-3.9963,-3.9625,-3.9279,-4.0221,-4.0496,-4.0496,-4.0496,-4.0484,-4.0436,-4.0405,-4.0345,-4.031,-4.037,-3.9948,-3.9489,-3.9489,-4.0772,-4.1908,-4.1908,-4.2386,-4.2794,-4.2794,-4.2794,-4.3367,-4.5059,-4.4789,-4.4617,-4.5224,-4.4758,-4.4397,-4.4397,-4.4397,-4.3753,-4.2145,-4.2495,-4.1846,-3.9639,-3.8993,-3.8765,-3.8877,-3.8855,-3.8877,-3.9101,-3.9918,-4.0403,-4.0498,-3.9921,-3.9311,-3.8707,-3.9111,-3.9955,-2.6156,-2.5762,-2.5663,-2.601,-2.6357,-2.6882,0.0,0.0,0.0,-2.9596,-2.9371,-2.8992,-2.8684,-2.8222,-2.8165,-2.8973,-2.9833,-3.0462,-3.0635,-3.1948,-3.2891,-3.2891,-3.3814,-3.416,-3.3468,-3.3737,-3.3757,-3.3268,-3.2289,-3.1739,-3.1804,-3.1178,-3.0752,-3.0598,-3.0598,-3.0598,-3.0598,-3.0752,-3.1236,-3.2063,-3.2933,-3.3808,-3.4665,-3.538,-3.5704,-3.5704,-3.5704,-3.5704,-3.5742,-3.64,-3.7025,-3.7686,-3.9155,-3.9792,-3.9898,-4.0164,-3.9918,-3.9543,-4.0251,-4.0248,-3.9994,-4.0389,-3.9984,-3.9519,-4.0266,-4.0496,-4.0496,-4.0496,-4.046,-4.0438,-4.0492,-4.0396,-4.0328,-4.0447,-4.0389,-4.0301,-4.0301,-4.0301,-4.0301,-4.0301,-4.3004,-4.5307,-4.5307,-4.5307,-4.5307,-4.5307,-4.4256,-4.3855,-4.4826,-4.4099,-4.3515,-4.3515,-4.3515,-4.2451,-3.9845,-4.2889,-4.39,-4.1418,-4.0291,-3.9527,-3.9106,-3.8896,-3.9029,-3.9565,-4.1014,-4.1902,-4.2202,-4.1071,-4.0059,-3.9182,-3.9677,-4.0414,-2.8054,-2.7223,-2.7006,-2.854,-2.7803,-2.7095,-2.8684,0.0,-2.8703,-2.7313,0.0,-2.8646,-2.7159,0.0,0.0,-2.8973,-2.9833,-3.0673,-3.1448,-3.2333,-3.2891,-3.2891,-3.4353,-3.5308,-3.5212,-3.391,-3.3327,-3.4007,-3.2661,-3.1783,-3.1804,-3.1719,-3.1347,-3.0617,-3.0598,-3.0598,-3.0598,-3.1308,-3.2101,-3.2952,-3.3847,-3.4703,-3.5549,-3.5646,-3.5704,-3.5704,-3.5704,-3.5704,-3.5704,-3.58,-3.6294,-3.7077,-3.7983,-3.8627,-3.9067,-3.9338,-3.9189,-3.9061,-4.0135,-4.0473,-4.0422,-4.0481,-4.0422,-4.0353,-4.0473,-4.0496,-4.0496,-4.0496,-4.0489,-4.0481,-4.0496,-4.0396,-4.031,-4.031,-4.0301,-4.0301,-4.0301,-4.0301,-4.0301,-4.0301,-4.3004,-4.5307,-4.5307,-4.5307,-4.5307,-4.5307,-4.4256,-4.3548,-4.3697,-4.358,-4.3515,-4.3515,-4.3515,-4.3349,-4.3001,-4.3428,-4.399,-4.4701,-4.3904,-4.2117,-3.9212,-3.9073,-3.9779,-4.1293,-4.1962,-4.2269,-4.2199,-4.1129,-4.0702,-4.0893,-4.0223,-4.0708,-2.7798,-2.7478,-2.7607,-2.7823,-2.8087,-2.8452,-2.9156,-2.9238,-2.8835,-2.7648,0.0,0.0,0.0,0.0,0.0,0.0,-2.9833,-3.0538,-3.0885,-3.2064,-3.3083,-3.3583,-3.3853,-3.4199,-3.4699,-3.4083,-3.4013,-3.4885,-3.344,-3.2723,-3.323,-3.2327,-3.1657,-3.1308,-3.0849,-3.083,-3.1289,-3.1637,-3.2488,-3.3866,-3.4239,-3.4858,-3.5704,-3.5704,-3.5704,-3.5704,-3.5704,-3.5704,-3.5704,-3.5662,-3.6406,-3.7572,-3.7404,-3.8087,-3.9149,-3.9262,-3.9515,-3.9842,-4.0323,-4.0496,-4.0496,-4.0496,-4.0496,-4.0496,-4.0496,-4.0496,-4.0496,-4.0496,-4.0496,-4.0496,-4.0496,-4.0396,-4.0301,-4.0301,-4.0301,-4.0301,-4.0301,-4.0301,-4.0301,-4.0301,-4.3004,-4.5307,-4.5307,-4.5307,-4.5065,-4.4355,-4.3823,-4.3515,-4.3515,-4.3666,-4.3058,-4.1157,-4.2476,-4.2727,-4.0873,-4.0708,-4.1014,-4.1651,-4.315,-4.2537,-3.9231,-4.003,-4.0884,-4.159,-4.2277,-4.2838,-4.3237,-4.2282,-4.2162,-4.273,-4.1312,-4.1266,-2.8342,-2.8072,-2.8127,-2.7961,-2.8508,-2.9132,-2.9374,-2.9504,-2.9279,-2.8216,-2.813,0.0,0.0,0.0,-2.8165,-2.8973,0.0,-3.0135,-3.0365,-3.1442,-3.2545,-3.341,-3.3141,-3.3141,-3.3782,-3.3648,-3.3968,-3.5064,-3.3819,-3.3373,-3.4248,-3.3153,-3.2391,-3.2159,-3.1579,-3.156,-3.2159,-3.2314,-3.3073,-3.4394,-3.4645,-3.509,-3.5704,-3.5704,-3.5704,-3.5704,-3.5704,-3.5704,-3.5684,-3.5626,-3.6324,-3.736,-3.671,-3.7326,-3.8659,-3.9119,-3.9515,-3.9881,-4.0342,-4.0496,-4.0496,-4.0496,-4.0496,-4.0496,-4.0496,-4.0496,-4.0496,-4.0496,-4.0496,-4.0496,-4.0496,-4.1086,-4.1667,-4.1667,-4.1667,-4.1667,-4.1667,-4.095,-4.0568,-4.1495,-4.3634,-4.5307,-4.5307,-4.5307,-4.5,-4.4129,-4.3712,-4.3531,-4.3632,-4.3781,-4.2968,-4.0684,-4.2281,-4.2593,-4.0335,-4.0151,-3.9852,-3.9143,-4.133,-4.1764,-3.9754,-4.0774,-4.1516,-4.1813,-4.2463,-4.3206,-4.4005,-4.3141,-4.3147,-4.3892,-4.2276,-4.1958,-3.0799,-2.9567,-2.8686,-3.0346,-2.9488,-2.8457,-2.9299,-3.0047,-3.0067,-2.8348,-2.862,-2.8883,-2.8027,-2.7876,-2.8165,-2.8973,-2.9127,0.0,0.0,-3.0442,-3.0808,-3.1679,-3.2449,-3.291,-3.2949,-3.2237,-3.2468,-3.4129,-3.3479,-3.3373,-3.4248,-3.4318,-3.3924,-3.3088,-3.303,-3.303,-3.3068,-3.3648,-3.4098,-3.4413,-3.5264,-3.5665,-3.5704,-3.5704,-3.5704,-3.5704,-3.5704,-3.5704,-3.5684,-3.5626,-3.5635,-3.5669,-3.5579,-3.6041,-3.6988,-3.8681,-3.8777,-3.8315,-3.9938,-4.0496,-4.0496,-4.0496,-4.0496,-4.0496,-4.0496,-4.0496,-4.0496,-4.0496,-4.0496,-4.0496,-4.0496,-4.2812,-4.5154,-4.5154,-4.5154,-4.5154,-4.5154,-4.2584,-4.1266,-4.4513,-4.5231,-4.5307,-4.5307,-4.5307,-4.5297,-4.5246,-4.426,-4.3615,-4.3942,-4.3716,-4.3595,-4.3825,-4.3644,-4.3595,-4.3809,-4.3822,-4.2467,-3.9305,-3.9194,-3.9823,-4.108,-4.0947,-4.1307,-4.2352,-4.2649,-4.3206,-4.4005,-4.3188,-4.3206,-4.3971,-4.2881,-4.2787,-3.0195,-3.0039,-2.9882,-2.9315,-2.9154,-2.905,-2.8768,-2.8856,-2.8837,-2.8243,-2.8706,-2.9119,-2.8816,-2.9189,-2.9635,-2.9929,-2.9967,-3.0058,0.0,-3.0404,-3.0519,-3.0808,-3.2064,-3.2699,-3.216,-3.2333,-3.2968,-3.4109,-3.3999,-3.4247,-3.5109,-3.469,-3.4176,-3.3706,-3.2957,-3.2938,-3.3687,-3.3494,-3.404,-3.5264,-3.5549,-3.5704,-3.5704,-3.5704,-3.5704,-3.5704,-3.5704,-3.5704,-3.5684,-3.5628,-3.6254,-3.7237,-3.7184,-3.7541,-3.8123,-3.8354,-3.8623,-3.9015,-4.0131,-4.0496,-4.0496,-4.0496,-4.0496,-4.0496,-4.0496,-4.0496,-4.0496,-4.0496,-4.0496,-4.1016,-4.3286,-4.4676,-4.5458,-4.5338,-4.5307,-4.5307,-4.5307,-4.4399,-4.394,-4.5078,-4.5307,-4.5307,-4.5307,-4.5307,-4.503,-4.4231,-4.3876,-4.3736,-4.3851,-4.3849,-4.3601,-4.3005,-4.3468,-4.3582,-4.2987,-4.2946,-4.185,-3.925,-3.9101,-3.964,-4.0877,-4.1533,-4.211,-4.2649,-4.328,-4.3726,-4.4005,-4.3726,-4.3726,-4.3986,-4.3585,-4.3541,-3.0215,-3.0254,-3.0234,-2.9433,-2.9413,-2.9451,-2.8882,-2.8967,-2.9065,-2.8737,-2.9235,-2.9819,-3.011,-3.0554,-3.0992,-3.1306,-3.1074,-3.075,0.0,-3.0673,-3.075,-3.0442,-3.1346,-3.1929,-3.1718,-3.1891,-3.2622,-3.409,-3.3967,-3.4351,-3.554,-3.5104,-3.4765,-3.4621,-3.3886,-3.3866,-3.4601,-3.4214,-3.4582,-3.5704,-3.5704,-3.5704,-3.5704,-3.5704,-3.5704,-3.5704,-3.5704,-3.6033,-3.6588,-3.6523,-3.7135,-3.8086,-3.8036,-3.8084,-3.8277,-3.8719,-3.9238,-3.9804,-4.0323,-4.0496,-4.0496,-4.0496,-4.0496,-4.0496,-4.0496,-4.0496,-4.0496,-4.0496,-4.1381,-4.2824,-4.5037,-4.5594,-4.5541,-4.5359,-4.5307,-4.5307,-4.5307,-4.5307,-4.5307,-4.5307,-4.5307,-4.5307,-4.5307,-4.5328,-4.4988,-4.3962,-4.391,-4.3947,-4.3853,-4.3915,-4.3698,-4.3039,-4.3596,-4.3726,-4.3039,-4.263,-4.1794,-4.0364,-4.0085,-4.0308,-4.1047,-4.2017,-4.263,-4.2797,-4.3596,-4.4005,-4.4005,-4.4005,-4.4005,-4.4005,-4.3961,-4.3945]},{"header":{"parameterUnit":"m.s-1","parameterCategory":1,"la1":30.6,"la2":29.2853,"lo1":-89.7004,"lo2":-87.6739,"dy":0.0162,"dx":0.0183,"nx":112,"ny":82,"refTime":"2026-05-06T12:00:00:Z","depth":0,"parameterNumber":3,"parameterNumberName":"V-component_of_WINDS"},"data":[0.0,0.0,0.0,0.0,0.0,0.0,0.0,0.0,0.0,0.0,0.0,0.0,0.0,0.0,0.0,0.0,0.0,0.0,0.0,0.0,0.0,0.0,0.0,0.0,0.0,0.0,0.0,0.0,0.0,0.0,0.0,0.0,0.0,0.0,0.0,0.0,0.0,0.0,0.0,0.0,0.0,0.0,0.0,0.0,0.0,0.0,0.0,0.0,0.0,0.0,0.0,0.0,0.0,0.0,0.0,0.0,0.0,0.0,0.0,0.0,0.0,0.0,0.0,0.0,0.0,0.0,0.0,0.0,0.0,0.0,0.0,0.0,0.0,0.0,0.0,0.0,0.0,0.0,0.0,0.0,0.0,0.0,0.0,0.0,0.0,0.0,0.0,0.0,0.0,0.0,-1.1329,-1.1113,-1.1687,-1.2101,-1.2101,-1.2101,-1.2015,-1.1818,0.0,0.0,0.0,0.0,0.0,0.0,0.0,0.0,0.0,0.0,0.0,0.0,0.0,0.0,0.0,0.0,0.0,0.0,0.0,0.0,0.0,0.0,0.0,0.0,0.0,0.0,0.0,0.0,0.0,0.0,0.0,0.0,0.0,0.0,0.0,0.0,0.0,0.0,0.0,0.0,0.0,0.0,0.0,0.0,0.0,0.0,0.0,0.0,0.0,0.0,0.0,0.0,0.0,0.0,0.0,0.0,0.0,0.0,0.0,0.0,0.0,0.0,0.0,0.0,0.0,0.0,0.0,0.0,0.0,0.0,0.0,0.0,0.0,0.0,0.0,0.0,0.0,0.0,0.0,0.0,0.0,0.0,0.0,0.0,0.0,0.0,0.0,0.0,0.0,0.0,0.0,0.0,0.0,0.0,0.0,0.0,0.0,0.0,0.0,0.0,0.0,0.0,0.0,0.0,-1.1219,-1.1844,-1.2027,-1.2101,-1.2101,-1.2101,-1.2015,-1.1818,0.0,0.0,0.0,0.0,0.0,0.0,0.0,0.0,0.0,0.0,0.0,0.0,0.0,0.0,0.0,0.0,0.0,0.0,0.0,0.0,0.0,0.0,0.0,0.0,0.0,0.0,0.0,0.0,0.0,0.0,0.0,0.0,0.0,0.0,0.0,0.0,0.0,0.0,0.0,0.0,0.0,0.0,0.0,0.0,0.0,0.0,0.0,0.0,0.0,0.0,0.0,0.0,0.0,0.0,0.0,0.0,0.0,0.0,0.0,0.0,0.0,0.0,0.0,0.0,0.0,0.0,0.0,0.0,0.0,0.0,0.0,0.0,0.0,0.0,0.0,0.0,0.0,0.0,0.0,0.0,0.0,0.0,0.0,0.0,0.0,0.0,0.0,0.0,0.0,0.0,0.0,0.0,0.0,0.0,0.0,0.0,0.0,0.0,0.0,0.0,0.0,0.0,0.0,-1.0704,-1.1366,-1.2027,-1.2101,-1.2101,-1.2101,-1.2101,-1.192,-1.1499,-1.2079,0.0,0.0,0.0,0.0,0.0,0.0,0.0,0.0,0.0,0.0,0.0,0.0,0.0,0.0,0.0,0.0,0.0,0.0,0.0,0.0,0.0,0.0,0.0,0.0,0.0,0.0,0.0,0.0,0.0,0.0,0.0,0.0,0.0,0.0,0.0,0.0,0.0,0.0,0.0,0.0,0.0,0.0,0.0,0.0,0.0,0.0,0.0,0.0,0.0,0.0,0.0,0.0,0.0,0.0,0.0,0.0,0.0,0.0,0.0,0.0,0.0,0.0,0.0,0.0,0.0,0.0,0.0,0.0,0.0,0.0,0.0,0.0,0.0,0.0,0.0,0.0,0.0,0.0,0.0,0.0,0.0,0.0,0.0,0.0,0.0,0.0,0.0,0.0,0.0,0.0,0.0,0.0,0.0,0.0,0.0,0.0,0.0,0.0,0.0,0.0,0.0,0.0,-1.0989,-1.1439,-1.2036,-1.2101,-1.2101,-1.2101,-1.2126,-1.1881,-1.1252,-1.1814,0.0,0.0,0.0,0.0,0.0,0.0,0.0,0.0,0.0,0.0,0.0,0.0,0.0,0.0,0.0,0.0,0.0,0.0,0.0,0.0,0.0,0.0,0.0,0.0,0.0,0.0,0.0,0.0,0.0,0.0,0.0,0.0,0.0,0.0,0.0,0.0,0.0,0.0,0.0,0.0,0.0,0.0,0.0,0.0,0.0,0.0,0.0,0.0,0.0,0.0,0.0,0.0,0.0,0.0,0.0,0.0,0.0,0.0,0.0,0.0,0.0,0.0,0.0,0.0,0.0,0.0,0.0,0.0,0.0,0.0,0.0,0.0,0.0,0.0,0.0,0.0,0.0,0.0,0.0,0.0,0.0,0.0,0.0,0.0,0.0,0.0,0.0,0.0,0.0,0.0,0.0,0.0,0.0,0.0,0.0,0.0,0.0,0.0,0.0,0.0,0.0,0.0,-1.1053,-1.1242,-1.2018,-1.2101,-1.2101,-1.2101,-1.22,-1.1977,-1.1252,-1.2503,0.0,0.0,0.0,0.0,0.0,0.0,0.0,0.0,0.0,0.0,0.0,0.0,0.0,0.0,0.0,0.0,0.0,0.0,0.0,0.0,0.0,0.0,0.0,0.0,0.0,0.0,0.0,0.0,0.0,0.0,0.0,0.0,0.0,0.0,0.0,0.0,0.0,0.0,0.0,0.0,0.0,0.0,0.0,0.0,0.0,0.0,0.0,0.0,0.0,0.0,0.0,0.0,0.0,0.0,0.0,0.0,0.0,0.0,0.0,0.0,0.0,0.0,0.0,0.0,0.0,0.0,0.0,0.0,0.0,0.0,0.0,0.0,0.0,0.0,0.0,0.0,0.0,0.0,0.0,0.0,0.0,0.0,0.0,0.0,0.0,0.0,0.0,0.0,0.0,0.0,0.0,0.0,0.0,0.0,0.0,0.0,0.0,0.0,0.0,0.0,0.0,0.0,-1.1706,-1.1761,-1.2073,-1.2101,-1.2101,-1.2101,-1.1944,-1.1673,-1.1233,0.0,0.0,0.0,0.0,0.0,0.0,0.0,0.0,0.0,0.0,0.0,0.0,0.0,0.0,0.0,0.0,0.0,0.0,0.0,0.0,0.0,0.0,0.0,0.0,0.0,0.0,0.0,0.0,0.0,0.0,0.0,0.0,0.0,0.0,0.0,0.0,0.0,0.0,0.0,0.0,0.0,0.0,0.0,0.0,0.0,0.0,0.0,0.0,0.0,0.0,0.0,0.0,0.0,0.0,0.0,0.0,0.0,0.0,0.0,0.0,0.0,0.0,0.0,0.0,0.0,0.0,0.0,0.0,0.0,0.0,0.0,0.0,0.0,0.0,0.0,0.0,0.0,0.0,0.0,0.0,0.0,0.0,0.0,0.0,0.0,0.0,0.0,0.0,0.0,0.0,0.0,0.0,0.0,0.0,0.0,0.0,0.0,0.0,0.0,0.0,0.0,0.0,-1.1963,-1.2101,-1.2101,-1.2101,-1.2101,-1.2101,-1.2101,-1.182,-1.1528,-1.1224,0.0,0.0,0.0,0.0,0.0,0.0,0.0,0.0,0.0,0.0,0.0,0.0,0.0,0.0,0.0,0.0,0.0,0.0,0.0,0.0,0.0,0.0,0.0,0.0,0.0,0.0,0.0,0.0,0.0,0.0,0.0,0.0,0.0,0.0,0.0,0.0,0.0,0.0,0.0,0.0,0.0,0.0,0.0,0.0,0.0,0.0,0.0,0.0,0.0,0.0,0.0,0.0,0.0,0.0,0.0,0.0,0.0,0.0,0.0,0.0,0.0,0.0,0.0,0.0,0.0,0.0,0.0,0.0,0.0,0.0,0.0,0.0,0.0,0.0,0.0,0.0,0.0,0.0,0.0,0.0,0.0,0.0,0.0,0.0,0.0,0.0,0.0,0.0,0.0,0.0,0.0,0.0,0.0,0.0,0.0,0.0,0.0,0.0,0.0,0.0,0.0,0.0,-1.2101,-1.2101,-1.2101,-1.2101,-1.2101,-1.2101,-1.2092,-1.1916,-1.162,0.0,0.0,0.0,0.0,0.0,0.0,0.0,0.0,0.0,0.0,0.0,0.0,0.0,0.0,0.0,0.0,0.0,0.0,0.0,0.0,0.0,0.0,0.0,0.0,0.0,0.0,0.0,0.0,0.0,0.0,0.0,0.0,0.0,0.0,0.0,0.0,0.0,0.0,0.0,0.0,0.0,0.0,0.0,0.0,0.0,0.0,0.0,0.0,0.0,0.0,0.0,0.0,0.0,0.0,0.0,0.0,0.0,0.0,0.0,0.0,0.0,0.0,0.0,0.0,0.0,0.0,0.0,0.0,0.0,0.0,0.0,0.0,0.0,0.0,0.0,0.0,0.0,0.0,0.0,0.0,0.0,0.0,0.0,0.0,0.0,0.0,0.0,0.0,0.0,0.0,0.0,0.0,0.0,0.0,0.0,0.0,0.0,0.0,0.0,0.0,0.0,0.0,0.0,-1.1954,-1.2101,-1.2101,-1.2101,-1.2101,-1.2006,-1.1768,-1.1518,-1.123,-1.0858,0.0,0.0,0.0,0.0,0.0,0.0,0.0,0.0,0.0,0.0,0.0,0.0,0.0,0.0,0.0,0.0,0.0,0.0,0.0,0.0,0.0,0.0,0.0,0.0,0.0,0.0,0.0,0.0,0.0,0.0,0.0,0.0,0.0,0.0,0.0,0.0,0.0,0.0,0.0,0.0,0.0,0.0,0.0,0.0,0.0,0.0,0.0,0.0,0.0,0.0,0.0,0.0,0.0,0.0,0.0,0.0,0.0,0.0,0.0,0.0,0.0,0.0,0.0,0.0,0.0,0.0,0.0,0.0,0.0,0.0,0.0,0.0,0.0,0.0,0.0,0.0,0.0,0.0,0.0,0.0,0.0,0.0,0.0,0.0,0.0,0.0,0.0,0.0,0.0,0.0,0.0,0.0,0.0,0.0,0.0,0.0,0.0,0.0,0.0,0.0,0.0,0.0,-1.1935,-1.2101,-1.2101,-1.2101,-1.2101,-1.2049,-1.1896,-1.1457,-1.1148,-1.0979,0.0,0.0,0.0,0.0,0.0,0.0,0.0,0.0,0.0,0.0,0.0,0.0,0.0,0.0,0.0,0.0,0.0,0.0,0.0,0.0,0.0,0.0,0.0,0.0,0.0,0.0,0.0,0.0,0.0,0.0,0.0,0.0,0.0,0.0,0.0,0.0,0.0,0.0,0.0,0.0,0.0,0.0,0.0,0.0,0.0,0.0,0.0,0.0,0.0,0.0,0.0,0.0,0.0,0.0,0.0,0.0,0.0,0.0,0.0,0.0,0.0,0.0,0.0,0.0,0.0,0.0,0.0,0.0,0.0,0.0,0.0,0.0,0.0,0.0,0.0,0.0,0.0,0.0,0.0,0.0,0.0,0.0,0.0,0.0,0.0,0.0,0.0,0.0,0.0,0.0,0.0,0.0,0.0,0.0,0.0,0.0,0.0,0.0,0.0,0.0,0.0,0.0,-1.2009,-1.2101,-1.2101,-1.2101,-1.2101,-1.2132,-1.2242,-1.1602,-1.1243,-1.1337,0.0,0.0,0.0,0.0,0.0,0.0,0.0,0.0,0.0,0.0,0.0,0.0,0.0,0.0,0.0,0.0,0.0,0.0,0.0,0.0,0.0,0.0,0.0,0.0,0.0,0.0,0.0,0.0,0.0,0.0,0.0,0.0,0.0,0.0,0.0,0.0,0.0,0.0,0.0,0.0,0.0,0.0,0.0,0.0,0.0,0.0,0.0,0.0,0.0,0.0,0.0,0.0,0.0,0.0,0.0,0.0,0.0,0.0,0.0,0.0,-1.1788,-1.155,0.0,0.0,0.0,0.0,0.0,0.0,0.0,0.0,0.0,0.0,0.0,0.0,0.0,0.0,0.0,0.0,0.0,0.0,0.0,0.0,0.0,0.0,0.0,0.0,0.0,0.0,0.0,0.0,0.0,0.0,0.0,0.0,0.0,0.0,0.0,0.0,0.0,0.0,0.0,0.0,-1.2082,-1.2101,-1.2101,-1.2101,-1.2101,-1.2046,-1.1921,-1.1478,-1.1132,-1.1011,-1.0566,0.0,0.0,0.0,0.0,0.0,0.0,0.0,0.0,0.0,0.0,0.0,0.0,0.0,0.0,0.0,0.0,0.0,0.0,0.0,0.0,0.0,0.0,0.0,0.0,0.0,0.0,0.0,0.0,0.0,0.0,0.0,0.0,0.0,0.0,0.0,0.0,0.0,0.0,0.0,0.0,0.0,0.0,0.0,0.0,0.0,0.0,0.0,0.0,0.0,0.0,0.0,0.0,0.0,0.0,0.0,0.0,0.0,0.0,0.0,-1.2626,-1.247,0.0,0.0,0.0,0.0,0.0,0.0,0.0,0.0,0.0,0.0,0.0,0.0,0.0,0.0,0.0,0.0,0.0,0.0,0.0,0.0,0.0,0.0,0.0,0.0,0.0,0.0,0.0,0.0,0.0,0.0,0.0,0.0,0.0,0.0,0.0,0.0,0.0,0.0,0.0,0.0,-1.2073,-1.2101,-1.2101,-1.2101,-1.215,-1.219,-1.2144,-1.1613,-1.1276,-1.124,-1.0655,0.0,0.0,0.0,0.0,0.0,0.0,0.0,0.0,0.0,0.0,0.0,0.0,0.0,0.0,0.0,0.0,0.0,0.0,0.0,0.0,0.0,0.0,0.0,0.0,0.0,0.0,0.0,0.0,0.0,0.0,0.0,0.0,0.0,0.0,0.0,0.0,0.0,0.0,0.0,0.0,0.0,0.0,0.0,0.0,0.0,0.0,0.0,0.0,0.0,0.0,0.0,0.0,0.0,-1.3277,-1.347,-1.3406,-1.3479,-1.3506,-1.3506,-1.3506,-1.3424,-1.3277,-1.302,0.0,0.0,0.0,0.0,0.0,0.0,0.0,0.0,0.0,0.0,0.0,0.0,0.0,0.0,0.0,0.0,0.0,0.0,0.0,0.0,0.0,0.0,-1.1654,-1.1517,-1.1458,-1.126,-1.0708,0.0,0.0,0.0,0.0,0.0,0.0,0.0,0.0,0.0,0.0,0.0,-1.2036,-1.2101,-1.2101,-1.2126,-1.2224,-1.2357,-1.2529,-1.1838,-1.145,-1.1584,-1.0782,-1.0303,0.0,0.0,0.0,0.0,0.0,0.0,0.0,0.0,0.0,0.0,0.0,0.0,0.0,0.0,0.0,0.0,0.0,0.0,0.0,0.0,0.0,0.0,0.0,0.0,0.0,0.0,0.0,0.0,0.0,0.0,0.0,0.0,-0.754,-0.815,0.0,0.0,0.0,0.0,0.0,0.0,0.0,0.0,0.0,0.0,0.0,0.0,0.0,-1.1944,-1.2027,-1.3121,-1.3497,-1.3222,-1.3983,-1.4157,-1.3818,-1.4185,-1.435,-1.435,-1.435,0.0,-1.3314,-1.3635,0.0,0.0,0.0,0.0,0.0,0.0,0.0,0.0,0.0,0.0,0.0,0.0,0.0,0.0,0.0,0.0,0.0,0.0,0.0,0.0,0.0,0.0,-1.2367,-1.1678,-1.1228,-1.1058,-1.1292,-1.1076,-1.0849,-1.0877,-1.0671,-1.0484,0.0,0.0,0.0,0.0,0.0,0.0,-1.2046,-1.2101,-1.215,-1.2249,-1.2283,-1.2406,-1.2652,-1.1884,-1.145,-1.1584,-1.0782,-1.0303,-1.0303,-1.0303,0.0,0.0,0.0,0.0,0.0,0.0,0.0,0.0,0.0,0.0,0.0,0.0,0.0,0.0,0.0,0.0,0.0,0.0,0.0,0.0,0.0,0.0,0.0,0.0,0.0,0.0,0.0,0.0,0.0,-0.7161,-0.7821,-0.7938,-0.7896,-0.8003,0.0,0.0,0.0,0.0,0.0,0.0,0.0,0.0,0.0,-1.0938,-1.1385,-1.2067,-1.3085,-1.3644,-1.3938,-1.3983,-1.4341,-1.4414,-1.424,-1.4433,-1.4515,-1.4515,-1.4515,-1.4313,-1.3974,-1.391,-1.37,-1.335,0.0,0.0,0.0,0.0,-1.3047,-1.3102,-1.3507,-1.3534,-1.3378,-1.3378,0.0,0.0,0.0,0.0,0.0,0.0,0.0,-1.2799,-1.3259,-1.3038,-1.2661,-1.2525,-1.2202,-1.1914,-1.1853,-1.1697,-1.1568,-1.1568,-1.1476,-1.121,-1.0603,-1.0943,0.0,0.0,0.0,-1.166,-1.2055,-1.2175,-1.2224,-1.2298,-1.2421,-1.2578,-1.27,-1.2188,-1.1885,-1.1934,-1.1113,-1.0635,-1.0635,-1.043,-1.0303,0.0,0.0,0.0,0.0,0.0,0.0,0.0,0.0,0.0,0.0,0.0,0.0,0.0,0.0,0.0,0.0,0.0,0.0,0.0,0.0,0.0,0.0,0.0,0.0,0.0,0.0,0.0,0.0,-0.7301,-0.7898,-0.796,-0.8001,-0.8081,0.0,0.0,0.0,0.0,0.0,0.0,-0.917,-0.8897,-0.9634,-1.1587,-1.1583,-1.2305,-1.3816,-1.3811,-1.4019,-1.4515,-1.4327,-1.4327,-1.4515,-1.4515,-1.4515,-1.4515,-1.4515,-1.4515,-1.4488,-1.4176,-1.3983,-1.3883,-1.3561,-1.3387,-1.3305,-1.3406,-1.3442,-1.3506,-1.391,-1.4047,-1.4047,-1.4047,-1.3974,-1.3827,-1.3534,0.0,0.0,0.0,0.0,-1.3139,-1.3755,-1.3461,-1.3029,-1.313,-1.2919,-1.2588,-1.2183,-1.2101,-1.2101,-1.2101,-1.2101,-1.1844,-1.1053,-1.1246,0.0,-1.1251,-1.1458,-1.177,-1.2113,-1.2249,-1.2332,-1.2406,-1.2578,-1.27,-1.2759,-1.241,-1.2203,-1.2203,-1.1482,-1.1074,-1.1074,-1.0792,-1.0625,-1.0625,0.0,0.0,0.0,0.0,0.0,0.0,0.0,0.0,0.0,0.0,0.0,0.0,0.0,0.0,0.0,0.0,0.0,0.0,0.0,0.0,0.0,0.0,0.0,0.0,0.0,0.0,0.0,0.0,0.0,-0.8558,-0.8214,0.0,0.0,0.0,0.0,-0.8047,-0.8197,-0.8705,-0.9705,-0.9848,-1.0493,-1.1747,-1.2282,-1.2865,-1.3607,-1.3564,-1.3863,-1.4476,-1.3851,-1.3881,-1.4515,-1.4515,-1.4515,-1.4515,-1.4515,-1.4515,-1.4515,-1.4488,-1.424,-1.3911,-1.3892,-1.3626,-1.3341,-1.3717,-1.3883,-1.3938,-1.4332,-1.4478,-1.4478,-1.4478,-1.4203,-1.3911,-1.3892,-1.3589,0.0,0.0,-1.3865,-1.3856,-1.3902,-1.3883,-1.3663,-1.29,-1.2707,-1.2588,-1.2183,-1.2101,-1.2101,-1.2101,-1.2101,-1.2082,-1.2027,0.0,-1.2055,-1.2046,-1.2055,-1.2132,-1.2274,-1.2298,-1.2406,-1.2652,-1.27,-1.2749,-1.2881,-1.2457,-1.2203,-1.2203,-1.1809,-1.1567,-1.1567,-1.1557,-1.1538,-1.1538,-1.1538,0.0,0.0,0.0,0.0,0.0,0.0,0.0,0.0,0.0,0.0,0.0,0.0,0.0,0.0,0.0,0.0,0.0,0.0,0.0,0.0,0.0,0.0,0.0,0.0,0.0,0.0,0.0,0.0,-0.7905,-0.79,0.0,-0.8105,-0.7901,-0.7993,-0.8498,-0.8524,-0.8728,-0.9264,-0.9368,-0.9874,-1.0865,-1.1263,-1.1798,-1.2554,-1.2857,-1.3355,-1.4096,-1.4182,-1.4524,-1.5088,-1.4856,-1.4812,-1.4872,-1.4785,-1.4883,-1.5097,-1.5213,-1.4882,-1.4286,-1.4286,-1.4203,-1.4093,-1.424,-1.4286,-1.4304,-1.446,-1.4515,-1.4515,-1.4515,-1.4414,-1.4286,-1.4286,-1.4194,-1.4102,-1.4249,-1.4093,-1.3975,-1.4222,-1.4084,-1.3837,-1.3543,-1.3286,-1.2983,-1.2569,-1.2285,-1.2101,-1.2101,-1.2101,-1.2018,-1.1761,-1.1935,-1.2018,-1.1761,-1.1935,-1.215,-1.2274,-1.2382,-1.2505,-1.2676,-1.2783,-1.2856,-1.2905,-1.2744,-1.2646,-1.2646,-1.2236,-1.1992,-1.1992,-1.1741,-1.1606,-1.1606,-1.1606,-1.1369,0.0,0.0,0.0,0.0,0.0,0.0,0.0,0.0,0.0,0.0,0.0,0.0,0.0,0.0,0.0,0.0,0.0,0.0,0.0,0.0,0.0,0.0,0.0,0.0,0.0,-0.7499,-0.7716,-0.7652,-0.7879,-0.8014,-0.7973,-0.8077,-0.8365,-0.8839,-0.8816,-0.8866,-0.9134,-0.9187,-0.9606,-1.0394,-1.0748,-1.1312,-1.207,-1.229,-1.2789,-1.3542,-1.3614,-1.4098,-1.4935,-1.4714,-1.4795,-1.5089,-1.5001,-1.5101,-1.531,-1.5537,-1.5291,-1.4827,-1.4879,-1.4854,-1.4751,-1.4726,-1.4708,-1.4689,-1.4561,-1.4515,-1.4515,-1.4515,-1.4515,-1.4515,-1.4515,-1.4515,-1.4515,-1.4515,-1.4313,-1.4157,-1.4442,-1.4304,-1.4057,-1.3938,-1.3709,-1.3378,-1.2992,-1.2588,-1.2303,-1.2303,-1.2193,-1.2018,-1.1761,-1.1926,-1.2009,-1.1752,-1.2046,-1.2307,-1.2292,-1.2544,-1.2632,-1.244,-1.27,-1.2749,-1.2372,-1.2676,-1.2832,-1.2627,-1.2512,-1.2451,-1.2451,-1.2191,-1.2034,-1.2034,-1.1698,-1.1277,-1.0736,0.0,0.0,0.0,0.0,0.0,0.0,0.0,0.0,0.0,0.0,0.0,0.0,0.0,0.0,0.0,0.0,0.0,0.0,0.0,0.0,0.0,0.0,0.0,-0.7765,-0.7683,-0.7689,-0.7898,-0.8135,-0.8244,-0.8131,-0.8466,-0.8798,-0.898,-0.9071,-0.9199,-0.9383,-0.9485,-0.9804,-1.0453,-1.0939,-1.1488,-1.2126,-1.1882,-1.2105,-1.2774,-1.2146,-1.2586,-1.4007,-1.3991,-1.4395,-1.5068,-1.5092,-1.5092,-1.5142,-1.5313,-1.542,-1.5452,-1.5633,-1.5533,-1.5304,-1.5166,-1.512,-1.5065,-1.468,-1.4552,-1.4552,-1.4552,-1.4543,-1.4533,-1.4533,-1.4524,-1.4515,-1.4515,-1.4515,-1.4515,-1.4515,-1.4515,-1.4405,-1.4002,-1.392,-1.3801,-1.3396,-1.301,-1.2707,-1.2707,-1.2404,-1.2128,-1.2119,-1.2119,-1.2119,-1.2138,-1.2441,0.0,-1.2314,-1.2755,-1.2763,-1.1963,-1.248,-1.2421,-1.1309,-1.2215,-1.2627,-1.2101,-1.2554,-1.2856,-1.2856,-1.2856,-1.2856,-1.2856,-1.1873,-1.1051,-1.0405,0.0,0.0,0.0,0.0,0.0,0.0,0.0,0.0,0.0,0.0,0.0,0.0,0.0,0.0,0.0,0.0,0.0,0.0,0.0,0.0,0.0,-0.7376,-0.762,-0.7652,-0.7745,-0.7913,-0.816,-0.8257,-0.8367,-0.851,-0.862,-0.8812,-0.9065,-0.9083,-0.9222,-0.9459,-0.9687,-0.9774,-0.9772,-1.0284,-1.0528,-1.0526,-1.1006,-1.1625,-1.2354,-1.2508,-1.3006,-1.378,-1.4087,-1.4421,-1.4727,-1.4594,-1.5019,-1.5816,-1.5394,-1.5739,-1.6455,-1.5918,-1.5643,-1.5579,-1.5542,-1.5533,-1.5515,-1.5404,-1.5368,-1.5368,-1.5368,-1.5166,-1.4937,-1.4937,-1.4735,-1.4515,-1.4515,-1.4515,-1.4515,-1.4515,-1.4515,-1.4478,-1.4368,-1.4102,-1.3883,-1.3773,-1.3433,-1.3148,-1.3148,-1.3066,-1.2891,-1.2588,-1.2533,-1.2634,-1.2937,-1.2579,-1.2255,-1.2171,-1.2452,-1.2311,-1.1342,-1.1884,-1.2017,-1.125,-1.1485,-1.161,-1.146,-1.1585,-1.166,-1.166,-1.166,-1.166,-1.166,-1.1019,-1.0581,0.0,0.0,0.0,0.0,0.0,0.0,0.0,0.0,0.0,0.0,0.0,0.0,0.0,0.0,0.0,0.0,0.0,0.0,0.0,0.0,0.0,0.0,-0.7617,-0.7792,-0.8042,-0.806,-0.8159,-0.8423,-0.8578,-0.8704,-0.8854,-0.8975,-0.9107,-0.9263,-0.9269,-0.939,-0.9666,-0.9823,-0.9883,-0.9841,-1.0244,-1.0382,-1.0232,-1.0784,-1.1283,-1.1742,-1.2021,-1.2505,-1.3127,-1.3365,-1.3701,-1.4163,-1.4351,-1.4806,-1.548,-1.5559,-1.5991,-1.6541,0.0,0.0,0.0,0.0,-1.5835,-1.5689,-1.5689,-1.5689,-1.5689,-1.5689,-1.5533,-1.5349,-1.5349,-1.4966,-1.4524,-1.4355,-1.4127,-1.3839,-1.3705,-1.367,-1.367,-1.367,-1.3488,-1.3315,-1.3315,-1.3001,-1.2705,-1.2705,-1.2705,0.0,-1.2403,-1.2699,-1.2983,-1.3047,-1.2606,-1.2138,-1.1809,-1.1867,-1.16,-1.0685,-1.1208,-1.1342,-1.0584,-1.0947,0.0,0.0,0.0,-1.12,-1.12,-1.12,0.0,0.0,0.0,0.0,0.0,-0.9625,0.0,0.0,-1.0515,-1.0816,0.0,0.0,0.0,0.0,0.0,0.0,0.0,0.0,0.0,0.0,0.0,0.0,0.0,0.0,0.0,0.0,-0.7931,-0.8153,-0.8644,-0.853,-0.8465,-0.8722,-0.8957,-0.9107,-0.9143,-0.9372,-0.9516,-0.9516,-0.9516,-0.963,-0.9895,-0.9937,0.0,0.0,0.0,-1.0713,-1.0683,-1.0979,-1.1111,-1.1111,-1.1111,-1.1484,-1.215,-1.2261,-1.2703,-1.339,-1.4063,-1.4422,-1.4681,-1.548,-1.5885,-1.5982,-1.6403,-1.6682,-1.6828,-1.648,-1.6114,-1.5826,-1.5826,0.0,0.0,-1.5826,-1.579,-1.5762,-1.5656,-1.5157,-1.4514,-1.4098,-1.3514,-1.2925,-1.2599,-1.2512,-1.2512,-1.2512,-1.2512,-1.2512,-1.2512,-1.2213,-1.197,-1.197,-1.197,-1.197,-1.197,-1.2612,-1.305,-1.2725,-1.2474,-1.2054,-1.1319,-1.1158,-1.0799,-0.9973,-1.0491,0.0,-0.9666,-1.0464,-1.0795,-1.0344,-1.0744,-1.1023,-1.1023,-1.1023,-1.0943,-1.0777,-1.0441,-1.0057,-0.9651,-0.9352,-0.948,-1.0008,-1.0015,-1.04,0.0,0.0,0.0,0.0,0.0,0.0,0.0,0.0,0.0,0.0,0.0,0.0,0.0,0.0,0.0,-0.7679,-0.8166,-0.859,-0.8692,-0.8842,-0.8963,-0.9017,-0.9065,-0.9185,-0.9414,-0.9486,-0.9516,-0.9516,-0.9516,-0.963,-0.9895,-1.0106,-1.0244,-1.0292,-1.0755,-1.0936,-1.0689,-1.0979,-1.1111,-1.1111,-1.1111,0.0,-1.1335,-1.2003,-1.2372,-1.2556,-1.2696,-1.3455,-1.4565,-1.4178,-1.4438,-1.5223,-1.6053,-1.6473,-1.6638,-1.6557,-1.6597,-1.667,-1.667,-1.667,-1.667,-1.667,-1.6459,-1.606,-1.5474,-1.498,0.0,-1.3452,-1.31,-1.2925,-1.2599,-1.2512,-1.2512,-1.2512,-1.2512,-1.2512,-1.2512,-1.2426,-1.2378,-1.2378,-1.2378,-1.2378,-1.2378,-1.2279,-1.2264,-1.2506,-1.1769,-1.1106,-1.0837,-1.0764,-1.0314,-0.929,-0.9788,-0.9994,-0.9491,-0.9621,-0.9744,-0.9744,-0.9847,-0.9917,-0.9917,-0.9917,-0.9903,-0.9859,-0.9572,-0.9396,-0.9302,-0.9228,-0.9268,-0.9398,-0.9865,-1.05,0.0,0.0,0.0,0.0,0.0,0.0,0.0,0.0,0.0,0.0,0.0,-0.7243,-0.737,0.0,-0.7943,-0.8118,-0.8337,-0.865,-0.9059,-0.9101,-0.9149,-0.9287,-0.9306,-0.936,-0.9504,-0.9516,-0.9516,-0.9516,-0.9516,-0.963,-0.9895,-1.0154,-1.0352,-1.0485,-1.0906,-1.1051,-1.0918,-1.1045,-1.1111,-1.1111,-1.1111,-1.1111,-1.1111,-1.1521,-1.1706,-1.1706,-1.212,-1.2732,-1.3455,-1.3499,-1.3781,-1.425,-1.4724,-1.5073,-1.534,-1.5754,-1.6044,-1.614,-1.5745,-1.593,-1.6298,-1.5868,-1.5591,-1.5376,-1.502,-1.4749,-1.439,-1.3287,-1.2905,-1.2633,-1.1924,-1.1655,-1.1538,-1.1538,-1.1538,-1.1538,-1.1538,-1.1538,-1.1538,-1.1538,-1.1538,-1.1538,-1.1538,-1.1376,-1.1479,-1.2107,-1.1523,-1.0893,-1.0644,-1.035,-0.996,-0.9515,-0.9748,-0.9848,-0.9564,-0.9401,-0.9335,-0.9387,-0.9465,-0.9465,-0.9413,-0.9543,-0.9642,-0.9749,-0.9676,-0.9647,-0.9646,-0.9659,-0.9647,-0.965,-0.9962,-1.0328,0.0,0.0,0.0,0.0,0.0,0.0,0.0,0.0,-0.7201,-0.7246,-0.7435,-0.7603,-0.7651,-0.7888,-0.8171,-0.8572,-0.8542,-0.8692,-0.9342,-0.9239,-0.9197,-0.9486,-0.9516,-0.9516,-0.9516,-0.9516,-0.9516,-0.9516,-0.9516,-0.963,-0.9895,-1.0154,-1.0412,-1.0677,-1.0972,-1.1111,-1.1111,-1.1111,-1.1111,-1.1111,-1.1111,-1.1111,-1.1111,-1.1111,-1.1111,-1.1149,-1.1966,-1.2305,-1.2342,-1.2989,-1.328,-1.328,-1.328,-1.3339,-1.3578,-1.4537,-1.5046,-1.5136,-1.4486,-1.478,-1.5401,-1.4922,-1.4673,-1.4565,-1.4601,-1.4494,-1.4165,-1.3022,-1.253,-1.2147,-1.116,-1.0767,-1.0593,-1.0593,-1.0593,-1.0593,-1.0593,-1.0593,-1.0593,-1.0593,-1.0593,-1.0593,-1.0593,-1.0593,-1.0843,-1.1548,-1.1226,-1.0797,-1.0472,-0.9996,-0.9737,-0.9853,-0.9853,-0.9837,-0.9757,-0.9506,-0.9366,-0.9366,-0.9466,-0.9493,-0.9386,-0.9592,-0.9767,-0.9951,-1.0034,-1.0072,-1.007,-1.0075,-1.0087,-1.0083,-1.0174,-1.02,-0.7342,-0.7042,-0.7194,-0.761,-0.7628,-0.7504,0.0,0.0,-0.7791,-0.7802,-0.7829,-0.7866,-0.7858,-0.8283,-0.8566,-0.8363,-0.8728,-0.9041,-0.9131,-0.9119,-0.9197,-0.9486,-0.9516,-0.9516,-0.9516,-0.9516,-0.9516,-0.9516,-0.9516,-0.963,-0.9895,-1.0154,-1.0412,-1.0677,-1.0972,-1.1111,-1.1111,-1.1111,-1.1111,-1.1111,-1.1111,-1.1111,-1.1111,-1.1111,-1.1111,-1.1149,-1.1966,-1.2305,-1.2305,-1.2409,-1.2445,-1.2445,-1.2445,-1.204,-1.162,-1.3266,-1.3991,-1.4155,-1.4047,-1.4119,-1.4335,-1.5136,-1.4922,-1.4378,-1.4565,-1.4142,-1.3331,-1.1971,-1.1553,-1.1397,-1.0813,-1.062,-1.0593,-1.0593,-1.0593,-1.0593,-1.0593,-1.0593,-1.0593,-1.0593,-1.0593,-1.0593,-1.0593,-1.0593,-1.0643,-1.0735,-1.0435,-1.0191,-1.0157,-0.9869,-0.9715,-0.9715,-0.9715,-0.9753,-0.9863,-0.9965,-0.9995,-0.9995,-0.9995,-0.9995,-0.9995,-1.003,-1.0037,-1.0079,-0.9971,-0.9928,-0.9933,-1.0029,-1.0117,-1.0127,-1.0419,-1.0546,-0.7698,-0.7617,-0.773,-0.8085,-0.8146,-0.8075,-0.7805,-0.7812,-0.7913,-0.7991,-0.7942,-0.7936,-0.8066,-0.8157,-0.8243,-0.8285,-0.8499,-0.8752,-0.9053,-0.904,-0.9051,-0.9257,-0.9344,-0.9414,-0.9484,-0.9516,-0.9516,-0.9516,-0.9516,-0.9564,-0.9672,-0.9925,-1.019,-1.0448,-1.0749,-1.096,-1.1111,-1.1111,-1.1111,-1.1111,-1.1111,-1.1111,-1.1111,-1.1111,-1.1111,-1.1111,-1.1446,-1.1595,-1.1595,-1.1595,-1.1595,-1.1595,-1.1595,-1.1409,-1.126,-1.2439,-1.3011,-1.3106,-1.2638,-1.2858,-1.3368,-1.3448,-1.323,-1.3011,-1.32,-1.3251,-1.3019,-1.1996,-1.1737,-1.1666,-1.0999,-1.072,-1.0593,-1.0593,-1.0593,-1.0593,-1.0593,-1.0593,-1.0593,-1.0593,-1.0593,-1.0593,-1.0593,-1.0593,-1.0593,-1.0593,-1.0486,-1.0374,-1.0374,-1.0298,-1.0224,-1.0224,-1.004,-0.9963,-1.0023,-0.9919,-0.9882,-0.9882,-0.9933,-0.9933,-0.9875,-1.002,-1.007,-0.9991,-1.0193,-1.0253,-1.0135,-1.0374,-1.0467,-1.0381,-1.0533,-1.0593,-0.796,-0.7983,-0.8024,-0.8429,-0.854,-0.8451,-0.8122,-0.8092,-0.8156,-0.8171,-0.8114,-0.8055,-0.8104,-0.8069,-0.8069,-0.8261,-0.8291,-0.8471,-0.8968,-0.8829,-0.8787,-0.9024,-0.9098,-0.9197,-0.9344,-0.9452,-0.9516,-0.9516,-0.9516,-0.9516,-0.9516,-0.9763,-1.0027,-1.0286,-1.0551,-1.0846,-1.1105,-1.1111,-1.1111,-1.1111,-1.1111,-1.1111,-1.1111,-1.1111,-1.1111,-1.1111,-1.1111,-1.1111,-1.1111,-1.1111,-1.1111,-1.1111,-1.1111,-1.1111,-1.1186,-1.1744,-1.207,-1.2094,-1.1515,-1.1774,-1.2395,-1.2218,-1.204,-1.2003,-1.2409,-1.2626,-1.2579,-1.194,-1.1784,-1.1642,-1.1052,-1.0754,-1.0593,-1.0593,-1.0593,-1.0593,-1.0593,-1.0593,-1.0593,-1.0593,-1.0593,-1.0593,-1.0593,-1.0593,-1.0593,-1.0593,-1.0593,-1.0593,-1.0593,-1.0593,-1.0593,-1.0593,-1.0367,-1.0241,-1.0241,-1.0047,-0.9923,-0.9806,-0.9991,-1.0005,-0.9806,-1.008,-1.018,-1.0098,-1.043,-1.054,-1.0387,-1.0635,-1.0681,-1.0593,-1.0593,-1.0593,-0.8003,-0.7827,-0.77,-0.8417,-0.85,-0.8414,-0.8389,-0.8577,-0.8699,-0.8435,-0.8382,-0.8282,-0.7981,-0.8111,-0.8279,-0.8291,-0.8291,-0.8442,-0.8852,-0.8469,-0.834,-0.892,-0.8837,-0.8791,-0.8994,-0.9318,-0.9516,-0.9516,-0.9516,-0.9516,-0.9516,-0.9763,-1.0027,-1.0286,-1.0551,-1.0846,-1.1105,-1.1111,-1.1111,-1.1111,-1.1111,-1.1111,-1.1111,-1.1111,-1.1111,-1.1111,-1.1111,-1.1111,-1.1111,-1.1111,-1.1111,-1.1111,-1.1111,-1.1111,-1.1111,-1.1149,-1.1149,-1.1149,-1.1111,-1.1149,-1.1292,-1.2278,-1.2174,-1.1885,-1.2872,-1.259,-1.1839,-1.1516,-1.1223,-1.0961,-1.068,-1.06,-1.0593,-1.0593,-1.0593,-1.0593,-1.0593,-1.0593,-1.0593,-1.0593,-1.0593,-1.0593,-1.0593,-1.0593,-1.0593,-1.0593,-1.0593,-1.0593,-1.0593,-1.0593,-1.0593,-1.0593,-1.0586,-1.0579,-1.0579,-1.0573,-1.0439,-1.012,-1.0405,-1.0439,-1.0083,-1.0412,-1.0598,-1.0598,-1.0573,-1.0611,-1.0579,-1.0586,-1.0593,-1.0593,-1.0593,-1.0593,-0.7709,-0.7936,-0.8165,-0.8459,-0.8612,-0.8664,-0.8664,-0.8738,-0.8752,-0.858,-0.8474,-0.8348,-0.8141,-0.8054,-0.8033,-0.8033,-0.81,-0.8215,-0.8363,-0.8332,-0.8344,-0.8526,-0.866,-0.8773,-0.8746,-0.9116,-0.9376,-0.9376,-0.9446,-0.9516,-0.9516,-0.96,-0.9847,-1.028,-1.0382,-1.0563,-1.0881,-1.1037,-1.1037,-1.0887,-1.1037,-1.1111,-1.1111,-1.1111,-1.1111,-1.1111,-1.1111,-1.1111,-1.1111,-1.1111,-1.1111,-1.1111,-1.1111,-1.1111,-1.1111,-1.1111,-1.1111,-1.1111,-1.1111,-1.1111,-1.1186,-1.1811,-1.1885,-1.1786,-1.2209,-1.198,-1.1516,-1.1223,-1.0929,-1.0713,-1.062,-1.0593,-1.0593,-1.0593,-1.0593,-1.0593,-1.0593,-1.0593,-1.0593,-1.0593,-1.0593,-1.0593,-1.0593,-1.0593,-1.0593,-1.0593,-1.0593,-1.0593,-1.0593,-1.0593,-1.0593,-1.0593,-1.0593,-1.0593,-1.0593,-1.0593,-1.0546,-1.0445,-1.0539,-1.0546,-1.0445,-1.0539,-1.0593,-1.0593,-1.0593,-1.0593,-1.0593,-1.0593,-1.0593,-1.0593,-1.0593,-1.0593,-0.7839,-0.8131,-0.8422,-0.8567,-0.8716,-0.8804,-0.8804,-0.8804,-0.8752,-0.858,-0.8397,-0.8227,-0.8123,-0.7929,-0.7814,-0.7883,-0.7964,-0.8058,-0.8132,-0.8181,-0.8248,-0.8354,-0.8504,-0.8577,-0.8569,-0.8893,-0.9145,-0.9177,-0.928,-0.9318,-0.9318,-0.9318,-0.9553,-1.0107,-1.0124,-1.0301,-1.0694,-1.0887,-1.0962,-1.0925,-1.1037,-1.1111,-1.1111,-1.1111,-1.1111,-1.1111,-1.1111,-1.1111,-1.1111,-1.1111,-1.1111,-1.1111,-1.1111,-1.1111,-1.1111,-1.1111,-1.1111,-1.1111,-1.1111,-1.1111,-1.1149,-1.1409,-1.1521,-1.1638,-1.1788,-1.1567,-1.128,-1.1162,-1.0894,-1.0593,-1.0593,-1.0593,-1.0593,-1.0593,-1.0593,-1.0593,-1.0593,-1.0593,-1.0593,-1.0593,-1.0593,-1.0593,-1.0593,-1.0593,-1.0593,-1.0593,-1.0593,-1.0593,-1.0593,-1.0593,-1.0593,-1.0593,-1.0593,-1.0593,-1.0593,-1.0593,-1.0546,-1.0439,-1.0533,-1.0546,-1.0439,-1.0539,-1.0593,-1.0593,-1.0593,-1.0593,-1.0593,-1.0593,-1.0593,-1.0593,-1.0593,-1.0593,-0.8342,-0.8435,-0.8509,-0.8744,-0.8804,-0.8804,-0.8804,-0.8804,-0.8725,-0.8435,-0.8178,-0.8005,0.0,0.0,-0.7697,-0.7877,-0.7916,-0.7992,-0.8153,-0.8028,-0.8065,0.0,0.0,0.0,-0.849,-0.8673,-0.8835,-0.8958,-0.8985,-0.8985,-0.8985,-0.8996,-0.9268,-0.977,-0.9799,-1.0033,-1.0475,-1.0663,-1.0887,-1.1074,-1.1074,-1.1074,-1.1111,-1.1111,-1.1111,-1.1111,-1.1111,-1.1111,-1.1111,-1.1111,-1.1111,-1.1111,-1.1111,-1.1111,-1.1111,-1.1111,-1.1111,-1.1111,-1.1111,-1.1111,-1.1111,-1.1111,-1.1223,-1.1446,-1.1613,-1.142,-1.1168,-1.1361,-1.1029,-1.0633,-1.0633,-1.0633,-1.0633,-1.0633,-1.0633,-1.0633,-1.0633,-1.0626,-1.0613,-1.0613,-1.06,-1.0593,-1.0593,-1.0593,-1.0593,-1.0593,-1.0593,-1.0593,-1.0593,-1.0593,-1.0593,-1.0593,-1.0593,-1.0593,-1.0593,-1.0593,-1.0472,-1.016,-1.0439,-1.0466,-1.0147,-1.0439,-1.0593,-1.0593,-1.0593,-1.0593,-1.0593,-1.0593,-1.0593,-1.0593,-1.0593,-1.0593,-0.8677,-0.8851,-0.8958,-0.8844,-0.8804,-0.8804,-0.8804,-0.8804,-0.8666,-0.8184,-0.8197,-0.817,0.0,-0.7845,-0.798,-0.805,-0.8184,0.0,-0.8067,-0.8237,0.0,-0.8274,0.0,-0.8447,-0.8511,-0.8544,-0.8582,-0.8641,-0.8861,-0.8985,-0.8985,-0.9194,-0.9445,-0.9776,-0.9959,-1.0095,-1.0288,-1.0331,-1.0513,-1.0887,-1.0887,-1.0962,-1.1111,-1.1111,-1.1111,-1.1111,-1.1111,-1.1111,-1.1111,-1.1111,-1.1111,-1.1111,-1.1111,-1.1111,-1.1111,-1.1111,-1.1111,-1.1111,-1.1111,-1.1111,-1.1111,-1.126,-1.1372,-1.1446,-1.1574,-1.155,-1.1464,-1.1421,-1.1282,-1.1209,-1.1209,-1.1209,-1.1209,-1.1209,-1.1209,-1.1209,-1.1209,-1.1035,-1.0914,-1.0914,-1.074,-1.0593,-1.0593,-1.0593,-1.0593,-1.0593,-1.0593,-1.0593,-1.0593,-1.0593,-1.0593,-1.0593,-1.0593,-1.0593,-1.0593,-1.0593,-1.0559,-1.0486,-1.0553,-1.0559,-1.0479,-1.0553,-1.0593,-1.0593,-1.0593,-1.0593,-1.0593,-1.0593,-1.0593,-1.0593,-1.0593,-1.0593,-0.8898,-0.8998,-0.8984,-0.8844,-0.8804,-0.8745,-0.8586,-0.8527,-0.8396,-0.7852,-0.7641,-0.7544,-0.7449,-0.7188,-0.7106,0.0,0.0,0.0,-0.7688,-0.8121,-0.8413,0.0,-0.8431,0.0,-0.8084,-0.8052,-0.8052,-0.8052,-0.8506,-0.8765,-0.8765,-0.9025,-0.9304,-0.9521,-0.9771,-0.9979,-1.0212,-1.0218,-1.04,-1.0812,-1.0812,-1.0925,-1.1111,-1.1111,-1.1111,-1.1111,-1.1111,-1.1111,-1.1111,-1.1111,-1.1111,-1.1111,-1.1111,-1.1111,-1.1111,-1.1111,-1.1111,-1.1111,-1.1111,-1.1111,-1.1111,-1.1223,-1.126,-1.1304,-1.1449,-1.1503,-1.1475,-1.1488,-1.1461,-1.1389,-1.1389,-1.1389,-1.1389,-1.1389,-1.1389,-1.1389,-1.1389,-1.1262,-1.1142,-1.1015,-1.0787,-1.0593,-1.0593,-1.0593,-1.0593,-1.0593,-1.0593,-1.0593,-1.0593,-1.0593,-1.0593,-1.0593,-1.0593,-1.0593,-1.0593,-1.0593,-1.0593,-1.0593,-1.0593,-1.0593,-1.0593,-1.0593,-1.0593,-1.0593,-1.0593,-1.0593,-1.0593,-1.0593,-1.0593,-1.0593,-1.0593,-1.0593,-0.9138,-0.9091,-0.8905,-0.8824,-0.8804,-0.8698,-0.8291,-0.82,-0.8033,-0.7463,-0.6948,-0.6701,-0.6984,-0.6388,-0.6027,-0.6431,0.0,-0.7086,-0.7157,-0.7819,-0.8317,-0.8361,-0.8349,-0.8149,-0.7559,-0.7423,-0.7358,-0.7358,-0.7884,-0.8317,-0.8484,-0.8764,-0.9046,-0.9249,-0.9497,-0.978,-1.013,-1.0164,-1.0368,-1.07,-1.0738,-1.085,-1.1074,-1.1074,-1.1111,-1.1111,-1.1111,-1.1111,-1.1111,-1.1111,-1.1111,-1.1111,-1.1111,-1.1111,-1.1111,-1.1111,-1.1111,-1.1111,-1.1111,-1.1111,-1.1111,-1.1111,-1.1111,-1.1149,-1.1335,-1.1395,-1.1386,-1.1602,-1.1596,-1.1509,-1.1509,-1.1509,-1.1509,-1.1509,-1.1509,-1.1509,-1.1509,-1.1475,-1.1376,-1.1009,-1.0794,-1.064,-1.06,-1.0593,-1.0593,-1.0593,-1.0593,-1.0593,-1.0593,-1.0593,-1.0593,-1.0593,-1.0593,-1.0593,-1.0593,-1.0593,-1.0593,-1.0593,-1.0593,-1.0593,-1.0593,-1.0626,-1.0633,-1.0593,-1.0626,-1.0633,-1.0593,-1.0593,-1.0593,-1.0593,-1.0593,-1.0593,-0.9579,-0.9573,-0.9412,-0.8925,-0.8804,-0.8698,-0.8291,-0.82,0.0,0.0,-0.7153,-0.7026,-0.6273,-0.679,-0.7036,-0.6177,-0.6726,-0.7085,-0.6614,-0.7205,-0.7645,0.0,-0.7689,-0.7619,-0.7521,-0.6961,-0.6597,-0.6597,-0.6695,-0.7288,-0.8447,-0.8915,-0.926,-0.9507,-0.9739,-0.9787,-0.9715,-0.9862,-1.0067,-1.0331,-1.0481,-1.0663,-1.085,-1.1037,-1.1111,-1.1111,-1.1111,-1.1111,-1.1111,-1.1111,-1.1111,-1.1111,-1.1111,-1.1111,-1.1111,-1.1111,-1.1111,-1.1111,-1.1111,-1.1111,-1.1111,-1.1111,-1.1111,-1.1149,-1.1335,-1.1527,-1.1673,-1.1857,-1.2038,-1.2151,-1.2151,-1.2151,-1.2151,-1.2151,-1.2151,-1.2151,-1.2151,-1.1964,-1.1598,-1.0821,-1.0821,-1.0874,-1.0633,-1.0593,-1.0593,-1.0593,-1.0593,-1.0593,-1.0593,-1.0593,-1.0593,-1.0593,-1.0593,-1.0593,-1.0593,-1.0593,-1.0593,-1.0593,-1.0593,-1.0593,-1.0593,-1.0821,-1.0841,-1.0593,-1.0827,-1.0827,-1.0593,-1.0593,-1.0593,-1.0593,-1.0593,-1.0593,-0.9826,-0.9686,-0.9357,-0.9078,-0.8804,-0.8478,-0.8,0.0,0.0,0.0,-0.6458,-0.6134,-0.5762,-0.5635,0.0,-0.5132,-0.5543,-0.5869,-0.5798,-0.639,-0.6847,-0.6915,-0.6924,-0.6761,-0.6396,-0.6034,-0.5837,-0.5837,-0.5837,-0.6465,-0.7884,-0.8671,-0.923,-0.9603,-0.9685,-0.9744,-0.9755,-0.9868,-0.9997,-1.0218,-1.0293,-1.0513,-1.0812,-1.0887,-1.0999,-1.1111,-1.1111,-1.1111,-1.1129,-1.1323,-1.1401,-1.1401,-1.1401,-1.1371,-1.1273,-1.1166,-1.1111,-1.1111,-1.1111,-1.1111,-1.1111,-1.1111,-1.1111,-1.1111,-1.1223,-1.1446,-1.1706,-1.1818,-1.2077,-1.2305,-1.2305,-1.2305,-1.2305,-1.2305,-1.2305,-1.2265,-1.2111,-1.2,-1.1779,-1.1357,-1.1229,-1.1129,-1.0835,-1.0814,-1.0767,-1.0613,-1.0593,-1.0593,-1.0593,-1.0593,-1.0593,-1.0593,-1.0593,-1.0593,-1.0593,-1.0593,-1.0593,-1.0593,-1.0593,-1.0593,-1.0593,-1.0727,-1.0734,-1.0593,-1.0727,-1.0734,-1.0593,-1.0593,-1.0593,-1.0593,-1.0593,-1.0593,-0.99,-0.9657,-0.9277,-0.9151,-0.8758,-0.8272,-0.7732,-0.7355,0.0,0.0,-0.5748,-0.5273,-0.5169,0.0,-0.3983,0.0,-0.4409,-0.4695,-0.4945,-0.5568,-0.6038,0.0,-0.6166,0.0,-0.5342,-0.518,-0.508,-0.508,-0.5209,-0.5951,-0.7485,-0.8253,-0.8917,-0.9486,-0.9587,-0.9663,-0.9846,-0.9895,-0.9992,-1.0143,-1.018,-1.0406,-1.0738,-1.0775,-1.0925,-1.1111,-1.1111,-1.1111,-1.1135,-1.1431,-1.1591,-1.1591,-1.1591,-1.1504,-1.1375,-1.119,-1.1111,-1.1111,-1.1111,-1.1111,-1.1111,-1.1111,-1.1111,-1.1111,-1.1111,-1.1335,-1.1632,-1.1706,-1.1966,-1.2224,-1.2224,-1.2224,-1.2224,-1.2224,-1.2268,-1.2225,-1.1966,-1.1953,-1.196,-1.1832,-1.1637,-1.143,-1.1136,-1.1035,-1.0915,-1.072,-1.0633,-1.0593,-1.0593,-1.0593,-1.0593,-1.0593,-1.0593,-1.0593,-1.0593,-1.0593,-1.0593,-1.0593,-1.0593,-1.0593,-1.0593,-1.0653,-1.066,-1.0593,-1.0653,-1.0653,-1.0593,-1.0593,-1.0593,-1.0593,-1.0593,-1.0593,-0.9706,-0.9686,-0.9512,-0.8985,-0.8611,-0.8272,-0.7732,0.0,0.0,-0.5945,-0.5717,-0.5328,-0.4238,-0.4608,-0.4698,-0.3646,-0.4169,-0.4584,-0.4256,-0.4845,-0.531,-0.5391,0.0,0.0,-0.5309,-0.4758,-0.4398,-0.4398,-0.4951,-0.6033,-0.7682,-0.7851,-0.8314,-0.9198,-0.9459,-0.9625,-0.961,-0.9814,-0.9922,-0.9922,-1.0105,-1.0331,-1.0513,-1.07,-1.0925,-1.1111,-1.1111,-1.1111,-1.1111,-1.1148,-1.1166,-1.1166,-1.1166,-1.116,-1.1148,-1.1123,-1.1111,-1.1111,-1.1111,-1.1111,-1.1111,-1.1111,-1.1111,-1.1111,-1.1111,-1.126,-1.1484,-1.1632,-1.1855,-1.204,-1.204,-1.204,-1.204,-1.204,-1.215,-1.2225,-1.1966,-1.2078,-1.2104,-1.1535,-1.1663,-1.173,-1.1402,-1.1169,-1.0982,-1.0955,-1.076,-1.0593,-1.0593,-1.0593,-1.0593,-1.0593,-1.0593,-1.0593,-1.0593,-1.0593,-1.0593,-1.0593,-1.0593,-1.0593,-1.0593,-1.0847,-1.0861,-1.0593,-1.0854,-1.0854,-1.0593,-1.0593,-1.0593,-1.0593,-1.0593,-1.0593,-0.987,-0.982,-0.9626,-0.9392,-0.8659,-0.7838,-0.7308,0.0,-0.6127,-0.5415,-0.4978,-0.4565,-0.3993,-0.3898,-0.3748,-0.3352,-0.3559,-0.3833,-0.3909,-0.4206,-0.4458,-0.4555,-0.4641,0.0,0.0,-0.4464,-0.43,-0.43,-0.4561,-0.5176,-0.6226,-0.7138,-0.7933,-0.8564,-0.909,-0.9491,-0.9782,-0.9873,-0.9884,-0.9922,-0.9992,-1.0105,-1.0331,-1.0513,-1.0738,-1.0925,-1.1037,-1.1111,-1.1123,-1.1254,-1.1327,-1.1327,-1.1327,-1.1327,-1.1303,-1.1172,-1.1111,-1.1111,-1.1111,-1.1111,-1.1111,-1.1111,-1.1111,-1.1111,-1.1111,-1.1223,-1.1446,-1.1632,-1.1855,-1.2003,-1.2003,-1.1892,-1.1816,-1.1751,-1.1952,-1.2078,-1.1931,-1.2098,-1.2231,-1.1997,-1.2051,-1.2037,-1.1744,-1.145,-1.1196,-1.1015,-1.078,-1.0593,-1.0593,-1.0593,-1.0593,-1.0593,-1.0593,-1.0593,-1.0593,-1.0593,-1.0593,-1.0593,-1.0593,-1.0593,-1.0593,-1.0707,-1.0787,-1.0854,-1.0935,-1.0935,-1.0854,-1.0854,-1.076,-1.0593,-1.0593,-1.0687,-0.9721,-0.9706,-0.9532,-0.9446,-0.8553,-0.7546,0.0,-0.6339,-0.5615,-0.4923,-0.4465,-0.4067,-0.3756,-0.3341,-0.3084,-0.3134,-0.3172,-0.3333,-0.3687,-0.3806,-0.3939,0.0,0.0,-0.4262,-0.4298,-0.43,-0.43,-0.43,-0.43,-0.4498,-0.4984,-0.617,-0.7138,-0.7783,-0.831,-0.8881,-0.9539,-0.9539,-0.9652,-0.9884,-0.9884,-0.9992,-1.0218,-1.0368,-1.0513,-1.07,-1.0925,-1.0999,-1.1017,-1.1285,-1.1369,-1.1369,-1.1369,-1.1369,-1.1345,-1.1184,-1.1111,-1.1111,-1.1111,-1.1111,-1.1111,-1.1111,-1.1111,-1.1111,-1.1111,-1.1186,-1.1335,-1.1558,-1.1706,-1.1818,-1.1818,-1.1706,-1.1582,-1.1537,-1.1786,-1.1987,-1.1936,-1.2055,-1.2204,-1.2285,-1.2231,-1.2111,-1.194,-1.1697,-1.1456,-1.1169,-1.0875,-1.072,-1.072,-1.0646,-1.0593,-1.0593,-1.0667,-1.072,-1.072,-1.064,-1.0626,-1.0713,-1.064,-1.0593,-1.0593,-1.0673,-1.0814,-1.0989,-1.1076,-1.1122,-1.1122,-1.1122,-1.1015,-1.0847,-1.0847,-1.0922,-0.911,-0.9217,-0.9144,-0.8884,-0.8257,-0.7546,-0.7032,-0.6339,-0.5507,-0.4513,-0.4294,-0.4074,-0.3347,-0.3192,-0.3151,-0.3031,-0.3121,-0.3303,-0.3553,-0.3712,-0.3876,0.0,0.0,-0.4167,-0.4289,-0.43,-0.43,-0.43,-0.43,-0.43,-0.43,-0.4954,-0.5816,-0.688,-0.7066,-0.7625,-0.8699,-0.8703,-0.9122,-0.9884,-0.9884,-0.9992,-1.0218,-1.0218,-1.0331,-1.0519,-1.07,-1.0812,-1.0812,-1.1005,-1.1111,-1.1111,-1.1111,-1.1111,-1.1111,-1.1111,-1.1111,-1.1111,-1.1111,-1.1111,-1.1111,-1.1111,-1.1111,-1.1111,-1.1111,-1.1111,-1.1149,-1.1335,-1.1409,-1.1409,-1.1409,-1.1409,-1.1409,-1.1403,-1.1706,-1.2003,-1.2003,-1.1969,-1.1993,-1.2245,-1.2107,-1.1906,-1.1906,-1.1899,-1.1799,-1.147,-1.1176,-1.0989,-1.0989,-1.0767,-1.0593,-1.0593,-1.0847,-1.0989,-1.0989,-1.076,-1.0713,-1.0969,-1.0754,-1.0593,-1.0593,-1.0835,-1.0989,-1.0995,-1.1276,-1.1389,-1.1389,-1.1389,-1.1382,-1.1382,-1.1382,-1.1382,-0.8384,-0.8521,-0.8598,-0.832,-0.7741,-0.7013,-0.6191,-0.561,-0.4988,-0.4016,-0.3682,-0.348,-0.3236,-0.3084,-0.3021,-0.3131,-0.3169,-0.3303,-0.355,0.0,0.0,-0.3954,-0.414,-0.4259,-0.4298,-0.43,-0.43,-0.43,-0.43,-0.43,-0.43,-0.4574,-0.5212,-0.6183,-0.6701,-0.7269,-0.7884,-0.7889,-0.8275,-0.9084,-0.8537,-0.8879,-0.9992,-0.9571,-0.9722,-1.0331,-1.0519,-1.0663,-1.0812,-1.085,-1.0962,-1.1111,-1.1111,-1.1111,-1.1111,-1.1111,-1.1111,-1.1111,-1.1111,-1.1111,-1.1111,-1.1111,-1.1111,-1.1111,-1.1111,-1.1111,-1.1149,-1.1335,-1.1409,-1.1409,-1.1409,-1.1298,-1.1223,-1.1372,-1.1484,-1.1669,-1.1929,-1.1968,-1.2045,-1.2248,-1.2225,-1.2164,-1.2164,-1.2033,-1.1873,-1.1744,-1.1309,-1.0995,-1.0995,-1.0915,-1.0855,-1.0855,-1.1116,-1.1209,-1.1009,-1.1089,-1.1189,-1.1283,-1.1202,-1.1149,-1.1149,-1.1236,-1.1383,-1.1625,-1.1718,-1.173,-1.173,-1.173,-1.1623,-1.1395,-1.163,-1.173,-0.7772,-0.798,-0.8069,-0.7896,-0.7287,-0.6543,-0.5766,-0.5162,-0.4513,-0.3755,-0.342,-0.3262,-0.3214,-0.3062,-0.2973,-0.3099,-0.3164,-0.3303,0.0,0.0,0.0,-0.3962,0.0,0.0,-0.43,-0.43,-0.4319,-0.436,-0.4325,-0.4319,-0.4363,-0.4465,-0.4807,-0.544,-0.5864,-0.6343,-0.6984,-0.6984,-0.7399,-0.8237,-0.7732,-0.8037,-0.8998,-0.8613,-0.8884,-0.9652,-0.9836,-1.0175,0.0,-1.0738,-1.085,-1.0999,-1.1074,-1.1111,-1.1111,-1.1111,-1.1111,-1.1111,-1.1111,-1.1111,-1.1111,-1.1111,-1.1111,-1.1111,-1.1111,-1.1111,-1.1149,-1.126,-1.1298,-1.1298,-1.1298,-1.1186,-1.1149,-1.126,-1.1335,-1.1484,-1.1818,-1.1881,-1.1952,-1.2241,-1.2211,-1.2138,-1.2138,-1.2078,-1.2033,-1.1926,-1.1591,-1.1323,-1.1323,-1.1223,-1.1156,-1.1156,-1.1282,-1.1322,-1.1176,-1.1289,-1.1435,-1.1583,-1.1455,-1.1389,-1.1389,-1.153,-1.1683,-1.1899,-1.2013,-1.2067,-1.2067,-1.2067,-1.1937,-1.1728,-1.1944,-1.2067,0.0,-0.7426,-0.7438,-0.7419,-0.6812,-0.6083,-0.5626,-0.4884,0.0,-0.3689,-0.349,-0.3353,-0.323,-0.3093,-0.3004,-0.3029,-0.3137,-0.3316,0.0,-0.3731,0.0,0.0,-0.4065,-0.41,-0.4311,-0.4314,-0.436,-0.4509,-0.4384,-0.4371,-0.4512,-0.4517,-0.4569,-0.4684,-0.469,-0.5113,-0.603,-0.603,-0.6475,-0.7425,-0.7349,-0.7387,-0.7502,-0.7425,-0.7889,-0.8703,-0.8889,-0.9458,-1.0255,-1.0625,-1.0812,-1.085,-1.1037,-1.1111,-1.1111,-1.1111,-1.1111,-1.1111,-1.1111,-1.1111,-1.1111,-1.1111,-1.1111,-1.1111,-1.1111,-1.1111,-1.1111,-1.1111,-1.1111,-1.1111,-1.1111,-1.1111,-1.1111,-1.1149,-1.126,-1.1446,-1.1669,-1.1655,-1.1762,-1.2215,-1.2084,-1.194,-1.194,-1.2124,-1.2211,-1.198,-1.1919,-1.1906,-1.1906,-1.163,-1.1422,-1.1422,-1.1442,-1.1455,-1.1455,-1.1435,-1.1577,-1.1886,-1.163,-1.1455,-1.1455,-1.175,-1.194,-1.194,-1.2164,-1.2305,-1.2305,-1.2305,-1.2305,-1.2305,-1.2305,-1.2305,-0.5543,0.0,-0.5861,-0.5667,-0.5451,-0.5191,0.0,-0.4459,-0.4166,-0.3689,-0.342,-0.327,-0.3329,-0.3167,-0.3072,-0.3284,-0.3341,-0.3441,-0.3709,-0.3928,0.0,-0.424,-0.4251,-0.4299,-0.4423,-0.4465,-0.4514,-0.4638,-0.4621,-0.4616,-0.4643,-0.4646,-0.466,-0.4687,-0.469,-0.4868,-0.5239,-0.5277,-0.5674,-0.6507,-0.5899,-0.6244,-0.7464,-0.6815,-0.7314,-0.8703,-0.8737,-0.942,-1.0443,-1.0513,-1.0738,-1.1037,-1.1074,-1.1111,-1.1111,-1.1111,-1.1111,-1.1111,-1.1111,-1.1111,-1.1111,-1.1111,-1.1111,-1.1111,-1.1111,-1.1111,-1.1111,-1.1111,-1.1111,-1.1149,-1.1298,-1.1223,-1.1186,-1.1484,-1.1484,-1.1484,-1.1855,-1.1914,-1.1998,-1.2254,-1.2245,-1.2204,-1.2204,-1.2258,-1.2278,-1.2211,-1.2047,-1.1906,-1.1906,-1.1839,-1.1764,-1.1764,-1.1964,-1.2098,-1.2098,-1.1891,-1.1832,-1.1899,-1.2011,-1.2098,-1.2098,-1.2164,-1.2204,-1.2204,-1.2265,-1.2305,-1.2305,-1.2305,-1.2305,-1.2305,-1.2305,-1.2305,-0.4425,-0.4781,-0.5192,-0.5033,-0.4836,-0.4618,-0.436,-0.4122,-0.3906,-0.3648,0.0,-0.3235,-0.3371,-0.3186,-0.3077,-0.3362,-0.3449,-0.3588,0.0,0.0,-0.4126,-0.4292,-0.4233,-0.4243,-0.4492,-0.4503,-0.458,-0.4722,-0.4723,-0.4712,-0.4732,-0.4735,-0.4735,-0.4735,-0.479,-0.4855,-0.4895,-0.4895,-0.515,-0.5628,-0.521,-0.5479,-0.6318,-0.586,-0.636,-0.7583,-0.7965,-0.877,-0.983,-1.0325,-1.0663,-1.0962,-1.1074,-1.1111,-1.1111,-1.1111,-1.1111,-1.1111,-1.1111,-1.1111,-1.1111,-1.1111,-1.1111,-1.1111,-1.1111,-1.1111,-1.1111,-1.1111,-1.1111,-1.1149,-1.1223,-1.126,-1.1298,-1.1521,-1.1558,-1.1632,-1.1929,-1.2003,-1.2077,-1.2261,-1.2305,-1.2305,-1.2305,-1.2305,-1.2305,-1.2305,-1.2171,-1.2064,-1.2064,-1.2064,-1.2064,-1.2064,-1.2091,-1.2104,-1.2104,-1.1993,-1.196,-1.2094,-1.2218,-1.2305,-1.2305,-1.2305,-1.2305,-1.2305,-1.2224,-1.2224,-1.2305,-1.2305,-1.2305,-1.2305,-1.2305,-1.2305,-0.3739,-0.4202,-0.4807,-0.4797,-0.4491,-0.4188,-0.4188,0.0,0.0,0.0,0.0,0.0,-0.3375,-0.3191,-0.3129,-0.339,-0.3547,0.0,-0.4072,-0.4058,-0.4097,-0.4267,-0.4164,-0.418,-0.4485,-0.4534,-0.4599,-0.4806,-0.4765,-0.4754,-0.482,-0.4825,-0.4825,-0.4825,-0.4922,-0.493,-0.4825,-0.4825,-0.4876,-0.5018,-0.5018,-0.5018,-0.5018,-0.4996,-0.5419,-0.6237,-0.6977,-0.7935,-0.9074,-0.9943,-1.0513,-1.0812,-1.1037,-1.1111,-1.1111,-1.1111,-1.1111,-1.1111,-1.1111,-1.1111,-1.1111,-1.1111,-1.1111,-1.1111,-1.1111,-1.1111,-1.1111,-1.1111,-1.1111,-1.1111,-1.1149,-1.126,-1.1409,-1.1484,-1.1632,-1.1781,-1.2003,-1.204,-1.2114,-1.2268,-1.2305,-1.2305,-1.2305,-1.2305,-1.2305,-1.2305,-1.2305,-1.2305,-1.2305,-1.2305,-1.2305,-1.2305,-1.2084,-1.1973,-1.1973,-1.1973,-1.2074,-1.2285,-1.2305,-1.2305,-1.2305,-1.2305,-1.2305,-1.2305,-1.2114,-1.2077,-1.2268,-1.2268,-1.2268,-1.2268,-1.2298,-1.2305,-0.375,-0.3874,-0.3958,-0.385,-0.3755,-0.3711,-0.3711,-0.3648,0.0,0.0,0.0,0.0,0.0,-0.3268,-0.3247,-0.3517,-0.3738,-0.3905,-0.4062,-0.4189,-0.4267,-0.43,-0.4267,-0.435,-0.464,-0.466,-0.4761,-0.4972,-0.4972,-0.4969,-0.4988,-0.4949,-0.4949,-0.4949,-0.5007,-0.501,-0.4988,-0.4949,-0.4999,-0.5018,-0.5018,-0.5018,-0.5012,-0.4871,-0.5331,-0.6195,-0.6294,-0.7326,-0.9036,-0.9339,-1.0019,-1.0812,-1.1037,-1.1111,-1.1111,-1.1111,-1.1111,-1.1111,-1.1111,-1.1111,-1.1111,-1.1111,-1.1111,-1.1111,-1.1111,-1.1111,-1.1111,-1.1111,-1.1111,-1.1149,-1.1298,-1.1372,-1.1484,-1.1818,-1.1929,-1.2003,-1.2224,-1.2268,-1.2261,-1.2298,-1.2305,-1.2305,-1.2305,-1.2305,-1.2305,-1.2305,-1.2305,-1.2305,-1.2305,-1.2305,-1.2305,-1.2305,-1.2265,-1.2238,-1.2238,-1.2238,-1.2258,-1.2298,-1.2305,-1.2305,-1.2305,-1.2305,-1.2305,-1.2305,-1.2114,-1.2003,-1.204,-1.204,-1.204,-1.204,-1.2231,-1.2305,-0.3682,-0.3699,-0.3703,-0.3713,-0.3754,-0.3795,-0.3714,-0.3651,0.0,0.0,0.0,0.0,0.0,0.0,-0.3417,-0.3724,-0.3889,-0.4046,-0.42,-0.4265,-0.43,-0.43,-0.43,-0.4365,-0.4572,-0.4649,-0.4764,-0.4866,-0.4879,-0.4879,-0.4879,-0.4855,-0.4822,-0.4822,-0.4885,-0.4887,-0.4822,-0.4885,-0.4911,-0.5015,-0.4911,-0.4914,-0.5012,-0.4852,-0.5088,-0.5583,-0.5934,-0.6701,-0.7732,-0.8836,-0.9636,-1.0201,-1.0844,-1.1111,-1.1111,-1.1111,-1.1111,-1.1111,-1.1111,-1.1111,-1.1111,-1.1111,-1.1111,-1.1111,-1.1111,-1.1111,-1.1111,-1.1111,-1.1111,-1.1111,-1.1223,-1.1335,-1.1484,-1.1781,-1.1929,-1.2077,-1.2261,-1.2305,-1.2305,-1.2305,-1.2305,-1.2305,-1.2305,-1.2305,-1.2305,-1.2305,-1.2305,-1.2305,-1.2305,-1.2305,-1.2305,-1.2305,-1.2305,-1.2305,-1.2305,-1.2305,-1.2305,-1.2305,-1.2305,-1.2305,-1.2305,-1.2187,-1.2194,-1.2305,-1.2114,-1.2003,-1.2003,-1.2003,-1.2003,-1.2009,-1.2291,-1.2477,-0.36,-0.361,-0.3621,-0.3738,-0.3832,-0.388,-0.3808,-0.3704,-0.36,-0.356,0.0,0.0,0.0,-0.3527,-0.3583,-0.3854,-0.4005,-0.4159,-0.4284,-0.43,-0.43,-0.43,-0.43,-0.4346,-0.4492,-0.4616,-0.4739,-0.4787,-0.4795,-0.4795,-0.4795,-0.4719,-0.469,-0.469,-0.4743,-0.4749,-0.469,-0.4716,-0.4811,-0.4931,-0.4836,-0.4855,-0.4933,-0.4847,-0.4874,-0.5049,-0.556,-0.6026,-0.658,-0.8304,-0.9221,-0.9636,-1.0694,-1.1111,-1.1111,-1.1111,-1.1111,-1.1111,-1.1111,-1.1111,-1.1111,-1.1111,-1.1111,-1.1111,-1.1111,-1.1111,-1.1111,-1.1111,-1.1111,-1.1111,-1.1111,-1.126,-1.1446,-1.1632,-1.1855,-1.2077,-1.2261,-1.2305,-1.2305,-1.2305,-1.2305,-1.2305,-1.2305,-1.2305,-1.2305,-1.2305,-1.2305,-1.2305,-1.2305,-1.2305,-1.2305,-1.2305,-1.2305,-1.2305,-1.2305,-1.2305,-1.2305,-1.2305,-1.2305,-1.2305,-1.2305,-1.215,-1.215,-1.2305,-1.2114,-1.2003,-1.2003,-1.1966,-1.1968,-1.2039,-1.2355,-1.2614,-0.3612,-0.3601,-0.3609,-0.3676,-0.3667,-0.3657,-0.377,-0.3704,-0.3557,-0.3433,-0.3409,-0.3399,-0.3405,-0.3608,-0.3802,-0.3881,-0.4005,-0.4159,-0.4284,-0.43,-0.43,-0.43,-0.43,-0.4346,-0.4492,-0.4616,-0.4739,-0.4787,-0.4795,-0.4795,-0.4795,-0.4719,-0.469,-0.469,-0.4698,-0.4698,-0.469,-0.4583,-0.4591,-0.4717,-0.4706,-0.473,-0.4804,-0.4758,-0.4832,-0.501,-0.4923,-0.5389,-0.6318,-0.7659,-0.8651,-0.9448,-1.0619,-1.1111,-1.1111,-1.1111,-1.1111,-1.1111,-1.1111,-1.1111,-1.1111,-1.1111,-1.1111,-1.1111,-1.1111,-1.1111,-1.1111,-1.1111,-1.1111,-1.1111,-1.1111,-1.126,-1.1446,-1.1632,-1.1855,-1.2077,-1.2261,-1.2305,-1.2305,-1.2305,-1.2305,-1.2305,-1.2305,-1.2305,-1.2305,-1.2305,-1.2305,-1.2305,-1.2305,-1.2305,-1.2305,-1.2305,-1.2305,-1.2305,-1.2305,-1.2305,-1.2305,-1.2305,-1.2305,-1.2305,-1.2305,-1.2298,-1.2298,-1.2305,-1.2114,-1.2003,-1.2003,-1.1818,-1.1846,-1.212,-1.2376,-1.2648,-0.3604,-0.3592,-0.3622,-0.3735,-0.3669,0.0,-0.3674,-0.3626,-0.3589,-0.3534,-0.3527,-0.3536,-0.3627,-0.3846,-0.3971,-0.3908,-0.407,-0.4246,-0.4295,-0.43,-0.43,-0.43,-0.43,-0.4317,-0.436,-0.4503,-0.4594,-0.4605,-0.4607,-0.4607,-0.4607,-0.4499,-0.4433,-0.4433,-0.4536,-0.4539,-0.4468,-0.4492,-0.4492,-0.4468,-0.4539,-0.4643,-0.4793,-0.4744,-0.4824,-0.501,-0.4849,-0.5053,-0.5553,-0.6661,-0.7693,-0.8727,-1.0426,-1.1111,-1.1111,-1.1111,-1.1111,-1.1111,-1.1111,-1.1111,-1.1111,-1.1111,-1.1111,-1.1111,-1.1111,-1.1111,-1.1111,-1.1111,-1.1111,-1.1111,-1.1111,-1.1149,-1.1298,-1.1632,-1.1744,-1.1892,-1.2224,-1.2305,-1.2305,-1.2305,-1.2305,-1.2305,-1.2305,-1.2305,-1.2305,-1.2305,-1.2496,-1.2616,-1.2616,-1.2746,-1.2866,-1.2866,-1.2866,-1.2866,-1.2866,-1.273,-1.2616,-1.2616,-1.2405,-1.2305,-1.2305,-1.2305,-1.2305,-1.2305,-1.2267,-1.2176,-1.2056,-1.2036,-1.1976,-1.1927,-1.2547,-1.2835,-0.3604,-0.3609,-0.3622,-0.3661,0.0,0.0,-0.3527,-0.3609,-0.3657,-0.367,-0.3663,-0.3701,-0.3819,-0.3947,-0.4013,-0.3967,-0.4164,-0.43,-0.43,-0.43,-0.43,-0.43,-0.43,-0.43,-0.43,-0.4438,-0.4503,-0.4503,-0.4503,-0.4503,-0.4503,-0.4363,-0.43,-0.43,-0.4376,-0.4379,-0.4303,-0.4379,-0.4395,-0.4355,-0.4468,-0.4577,-0.4776,-0.473,-0.4822,-0.5012,-0.489,-0.4901,-0.5093,-0.6086,-0.7306,-0.8727,-1.0432,-1.1111,-1.1111,-1.1111,-1.1111,-1.1111,-1.1111,-1.1111,-1.1111,-1.1111,-1.1111,-1.1111,-1.1111,-1.1111,-1.1111,-1.1111,-1.1111,-1.1111,-1.1111,-1.1111,-1.1186,-1.1521,-1.1632,-1.1781,-1.212,-1.2261,-1.2305,-1.2305,-1.2305,-1.2305,-1.2305,-1.2305,-1.2338,-1.2425,-1.2656,-1.2817,-1.2918,-1.308,-1.3213,-1.3213,-1.3213,-1.3213,-1.3213,-1.3013,-1.2891,-1.279,-1.2589,-1.2398,-1.2305,-1.2305,-1.2308,-1.2333,-1.2393,-1.235,-1.224,-1.2193,-1.215,-1.2064,-1.2644,-1.2968,-0.3634,-0.359,-0.3578,-0.3439,0.0,0.0,-0.3405,-0.3601,-0.3806,-0.3787,-0.3815,-0.3824,-0.3884,-0.3905,-0.3946,-0.4067,-0.4221,-0.43,-0.43,-0.43,-0.43,-0.43,-0.43,-0.43,-0.43,-0.4435,-0.4503,-0.4503,-0.4503,-0.4503,-0.4503,-0.436,-0.43,-0.43,-0.4303,-0.4303,-0.4303,-0.4303,-0.436,-0.4506,-0.4506,-0.4572,-0.4695,-0.4779,-0.4863,-0.5018,-0.5018,-0.5018,-0.5093,-0.6086,-0.7723,-0.9674,-1.0694,-1.1074,-1.1111,-1.1111,-1.1111,-1.1111,-1.1111,-1.1111,-1.1111,-1.1111,-1.1111,-1.1111,-1.1111,-1.1111,-1.1111,-1.1111,-1.1111,-1.1111,-1.1111,-1.1111,-1.1149,-1.1335,-1.1558,-1.1744,-1.1966,-1.2157,-1.2305,-1.2305,-1.2305,-1.2305,-1.2305,-1.2305,-1.2405,-1.2737,-1.279,-1.2904,-1.318,-1.322,-1.322,-1.322,-1.322,-1.322,-1.322,-1.322,-1.308,-1.2811,-1.279,-1.2656,-1.2311,-1.2305,-1.2333,-1.2414,-1.2382,-1.2441,-1.2485,-1.2286,-1.2342,-1.2601,-1.2655,-1.2964,-0.3628,-0.3678,0.0,-0.3565,0.0,0.0,-0.3677,-0.3671,-0.3696,-0.3841,-0.395,-0.402,-0.4027,-0.4102,-0.4175,-0.4094,-0.4221,-0.43,-0.43,-0.43,-0.43,-0.43,-0.43,-0.43,-0.43,-0.4333,-0.4352,-0.4352,-0.4352,-0.4352,-0.4352,-0.4319,-0.43,-0.43,-0.4379,-0.4454,-0.4454,-0.4539,-0.4602,-0.4635,-0.4686,-0.4743,-0.4781,-0.4779,-0.4863,-0.5018,-0.5018,-0.5018,-0.5093,-0.6282,-0.7468,-0.8651,-0.9798,-1.0594,-1.1111,-1.1111,-1.1111,-1.1111,-1.1111,-1.1111,-1.1111,-1.1111,-1.1111,-1.1111,-1.1111,-1.1111,-1.1111,-1.1111,-1.1111,-1.1111,-1.1111,-1.1111,-1.1149,-1.1335,-1.1558,-1.1744,-1.1966,-1.2157,-1.2305,-1.2305,-1.2305,-1.2305,-1.2305,-1.2305,-1.2405,-1.2737,-1.2971,-1.3253,-1.3761,-1.3828,-1.3828,-1.3828,-1.3828,-1.3828,-1.3828,-1.3634,-1.3433,-1.338,-1.3186,-1.2839,-1.2325,-1.2157,-1.2184,-1.2414,-1.2107,-1.2184,-1.2566,-1.2361,-1.2322,-1.2401,-1.2799,-1.3046,-0.387,-0.3901,0.0,-0.3864,-0.3863,-0.3873,-0.3845,-0.3811,-0.3849,-0.4008,-0.407,-0.41,-0.4181,-0.4211,-0.4219,-0.4194,-0.4251,-0.43,-0.43,-0.43,-0.43,-0.43,-0.43,-0.43,-0.43,-0.4341,-0.4349,-0.4303,-0.4344,-0.4349,-0.4303,-0.43,-0.4322,-0.4365,-0.4468,-0.4528,-0.4577,-0.4651,-0.4712,-0.4724,-0.48,-0.4822,-0.4868,-0.4868,-0.4909,-0.5018,-0.5018,-0.5054,-0.5246,-0.6745,-0.7698,-0.8347,-0.9793,-1.0663,-1.1111,-1.1111,-1.1111,-1.1111,-1.1111,-1.1111,-1.1111,-1.1111,-1.1111,-1.1111,-1.1111,-1.1111,-1.1111,-1.1111,-1.1111,-1.1111,-1.1111,-1.1111,-1.1149,-1.1335,-1.1558,-1.1744,-1.1966,-1.2157,-1.2305,-1.2305,-1.2398,-1.2445,-1.2325,-1.2405,-1.2579,-1.2924,-1.3287,-1.3687,-1.4041,-1.4088,-1.4088,-1.4088,-1.4088,-1.4088,-1.4088,-1.3921,-1.3726,-1.3613,-1.344,-1.3166,-1.2685,-1.2469,-1.2453,-1.2634,-1.2278,-1.2289,-1.2637,-1.2511,-1.2469,-1.2475,-1.2802,-1.3007,-0.4177,-0.4194,-0.4224,-0.4206,-0.4115,0.0,-0.3934,-0.4013,-0.4162,-0.4262,-0.4202,-0.4167,-0.4278,-0.4208,-0.417,-0.4281,-0.43,-0.43,-0.43,-0.43,-0.43,-0.43,-0.43,-0.43,-0.43,-0.4393,-0.4446,-0.4308,-0.4395,-0.4443,-0.4306,-0.43,-0.4352,-0.4501,-0.4517,-0.458,-0.4703,-0.4717,-0.4741,-0.4814,-0.4814,-0.4871,-0.5018,-0.5018,-0.5018,-0.5018,-0.5018,-0.5093,-0.5398,-0.7165,-0.808,-0.8533,-1.0239,-1.0962,-1.1111,-1.1111,-1.1111,-1.1111,-1.1111,-1.1111,-1.1111,-1.1111,-1.1111,-1.1111,-1.1111,-1.1111,-1.1111,-1.1111,-1.1111,-1.1111,-1.1111,-1.1111,-1.1149,-1.1372,-1.1558,-1.1744,-1.1966,-1.217,-1.2345,-1.2345,-1.2623,-1.2744,-1.2432,-1.2623,-1.2884,-1.314,-1.3701,-1.4088,-1.4088,-1.4088,-1.4088,-1.4088,-1.4088,-1.4088,-1.4088,-1.4088,-1.3975,-1.366,-1.3646,-1.3527,-1.326,-1.3002,-1.2906,-1.3019,-1.2706,-1.2582,-1.2705,-1.2681,-1.2681,-1.2705,-1.2705,-1.296,-0.4078,-0.4239,0.0,-0.425,-0.426,-0.427,-0.4098,-0.4172,-0.424,-0.417,-0.4211,-0.427,-0.4298,-0.4278,-0.427,-0.4298,-0.43,-0.43,-0.43,-0.43,-0.43,-0.43,-0.43,-0.43,-0.43,-0.4322,-0.4327,-0.4303,-0.4322,-0.4325,-0.4303,-0.43,-0.4352,-0.4501,-0.4599,-0.4709,-0.4792,-0.489,-0.495,-0.4938,-0.4938,-0.4952,-0.5018,-0.5018,-0.5018,-0.5018,-0.5018,-0.5015,-0.5132,-0.5828,-0.6938,-0.8232,-0.8922,-0.9981,-1.1111,-1.1111,-1.1111,-1.1111,-1.1111,-1.1111,-1.1111,-1.1111,-1.1111,-1.1111,-1.1111,-1.1111,-1.1111,-1.1111,-1.1111,-1.1111,-1.1111,-1.1111,-1.1186,-1.1558,-1.1669,-1.1744,-1.1966,-1.2373,-1.269,-1.269,-1.2938,-1.3093,-1.3026,-1.2904,-1.2837,-1.2959,-1.3614,-1.4088,-1.4088,-1.4088,-1.4088,-1.4088,-1.4088,-1.4088,-1.4088,-1.4088,-1.4062,-1.3995,-1.3988,-1.3878,-1.3596,-1.3003,-1.2779,-1.3019,-1.2357,-1.2275,-1.2705,-1.2499,-1.2499,-1.2705,-1.2705,-1.296,-0.4253,0.0,0.0,-0.4549,0.0,-0.4463,-0.4365,-0.432,-0.4281,-0.4219,-0.4257,-0.43,-0.43,-0.43,-0.43,-0.43,-0.43,-0.43,-0.43,-0.43,-0.43,-0.43,-0.43,-0.43,-0.43,-0.4349,-0.4357,-0.4306,-0.4352,-0.4357,-0.4303,-0.43,-0.4379,-0.4586,-0.4654,-0.4777,-0.4882,-0.4947,-0.5018,-0.5018,-0.5018,-0.5018,-0.5018,-0.5018,-0.5018,-0.5018,-0.5018,-0.5093,-0.5365,-0.6363,-0.7433,-0.8466,-0.9453,-1.0357,-1.1111,-1.1111,-1.1111,-1.1111,-1.1111,-1.1111,-1.1111,-1.1111,-1.1111,-1.1111,-1.1111,-1.1111,-1.1141,-1.1274,-1.1273,-1.1303,-1.1467,-1.1581,-1.1704,-1.1872,-1.1808,-1.1781,-1.2077,-1.2501,-1.2784,-1.2784,-1.3106,-1.3333,-1.3233,-1.3153,-1.3166,-1.3186,-1.3707,-1.4088,-1.4088,-1.4088,-1.4088,-1.4088,-1.4088,-1.4088,-1.4088,-1.4088,-1.4088,-1.4088,-1.3955,-1.3822,-1.3695,-1.316,-1.2905,-1.305,-1.2533,-1.2433,-1.2705,-1.2566,-1.2572,-1.2705,-1.2705,-1.296,-0.4491,0.0,-0.4773,-0.4911,-0.481,0.0,-0.4628,-0.4498,-0.4367,-0.4367,-0.4334,-0.43,-0.43,-0.43,-0.43,-0.43,-0.43,-0.43,-0.43,-0.43,-0.43,-0.43,-0.43,-0.43,-0.43,-0.4384,-0.4401,-0.4308,-0.4387,-0.4432,-0.4306,-0.43,-0.4398,-0.4651,-0.4679,-0.4797,-0.4982,-0.5007,-0.5018,-0.5018,-0.5018,-0.5018,-0.5018,-0.5018,-0.5018,-0.5018,-0.5018,-0.5174,-0.5637,-0.7242,-0.8161,-0.8737,-1.0282,-1.0962,-1.1111,-1.1111,-1.1111,-1.1111,-1.1111,-1.1111,-1.1111,-1.1111,-1.1111,-1.1111,-1.1111,-1.1148,-1.1232,-1.1429,-1.1525,-1.1609,-1.1826,-1.2086,-1.2276,-1.2201,-1.1999,-1.1919,-1.2238,-1.2616,-1.2864,-1.2864,-1.3313,-1.3586,-1.334,-1.346,-1.3567,-1.3467,-1.3814,-1.4088,-1.4088,-1.4088,-1.4088,-1.4088,-1.4088,-1.4088,-1.4088,-1.4088,-1.4088,-1.4088,-1.3822,-1.3688,-1.3652,-1.3307,-1.31,-1.3009,-1.279,-1.2705,-1.2705,-1.2705,-1.2705,-1.2705,-1.2705,-1.2985,-0.4491,0.0,-0.4897,0.0,-0.5041,-0.499,0.0,0.0,-0.4697,-0.4595,-0.4431,-0.43,-0.43,-0.43,-0.43,-0.43,-0.43,-0.43,-0.43,-0.43,-0.43,-0.43,-0.43,-0.43,-0.43,-0.4314,-0.4317,-0.4303,-0.4314,-0.4317,-0.4303,-0.43,-0.436,-0.4525,-0.4635,-0.4755,-0.482,-0.4925,-0.5018,-0.5018,-0.5018,-0.5018,-0.5018,-0.5018,-0.5018,-0.5018,-0.5018,-0.5015,-0.5171,-0.6518,-0.751,-0.8313,-0.9571,-1.0475,-1.1111,-1.1111,-1.1111,-1.1111,-1.1111,-1.1111,-1.1111,-1.1111,-1.1111,-1.1111,-1.1111,-1.1242,-1.1441,-1.1483,-1.1657,-1.1838,-1.1874,-1.2086,-1.2326,-1.2487,-1.246,-1.2373,-1.2321,-1.2752,-1.3153,-1.3153,-1.3627,-1.3935,-1.3593,-1.3821,-1.3834,-1.3327,-1.3728,-1.4088,-1.4088,-1.4088,-1.4088,-1.4088,-1.4088,-1.4088,-1.4088,-1.4088,-1.4088,-1.4088,-1.4046,-1.387,-1.3483,-1.327,-1.3058,-1.2747,-1.2705,-1.2705,-1.2705,-1.2705,-1.2705,-1.2705,-1.2705,-1.309,-0.467,-0.4816,-0.4958,0.0,-0.519,-0.509,-0.499,-0.4894,-0.4773,-0.4632,-0.4578,-0.4534,-0.4334,-0.43,-0.43,-0.43,-0.43,-0.43,-0.43,-0.43,-0.43,-0.43,-0.43,-0.43,-0.43,-0.43,-0.43,-0.43,-0.43,-0.43,-0.43,-0.43,-0.4352,-0.4501,-0.4558,-0.464,-0.4795,-0.4849,-0.4911,-0.5018,-0.5018,-0.5018,-0.5018,-0.5018,-0.5018,-0.5018,-0.5018,-0.5135,-0.5443,-0.6938,-0.7931,-0.8585,-1.0019,-1.0775,-1.1111,-1.1111,-1.1214,-1.1315,-1.1407,-1.1425,-1.1437,-1.1534,-1.1504,-1.1413,-1.1359,-1.1399,-1.1495,-1.1495,-1.1682,-1.188,-1.188,-1.2306,-1.2681,-1.2382,-1.2633,-1.2851,-1.2401,-1.2692,-1.318,-1.3614,-1.3915,-1.4048,-1.3915,-1.4001,-1.4001,-1.3741,-1.3921,-1.4088,-1.4088,-1.4088,-1.4088,-1.4088,-1.4088,-1.4088,-1.4088,-1.4088,-1.4088,-1.4088,-1.361,-1.3307,-1.3277,-1.3058,-1.2839,-1.2705,-1.2705,-1.2705,-1.2705,-1.2705,-1.2705,-1.2705,-1.2705,-1.3108,-0.4789,-0.4891,-0.4982,-0.524,-0.5262,-0.519,0.0,0.0,-0.4899,-0.4761,-0.4823,-0.4797,-0.4498,-0.4398,-0.4364,-0.4364,-0.4334,-0.43,-0.43,-0.43,-0.43,-0.43,-0.43,-0.43,-0.43,-0.43,-0.43,-0.43,-0.43,-0.43,-0.43,-0.43,-0.4341,-0.446,-0.449,-0.4572,-0.4784,-0.4812,-0.489,-0.5018,-0.5018,-0.5018,-0.5018,-0.5018,-0.5018,-0.5018,-0.5018,-0.521,-0.5673,-0.7395,-0.8313,-0.877,-1.047,-1.1111,-1.1111,-1.1111,-1.1244,-1.1417,-1.1661,-1.1733,-1.1751,-1.1884,-1.1866,-1.1815,-1.1667,-1.1621,-1.1661,-1.1441,-1.1627,-1.191,-1.2083,-1.2473,-1.2762,-1.2426,-1.2856,-1.3171,-1.2721,-1.2812,-1.3213,-1.3941,-1.4088,-1.4088,-1.4088,-1.4088,-1.4088,-1.4088,-1.4088,-1.4088,-1.4088,-1.4088,-1.4088,-1.4088,-1.4088,-1.4088,-1.4088,-1.4088,-1.4088,-1.4088,-1.3222,-1.2796,-1.3058,-1.2833,-1.2705,-1.2705,-1.2705,-1.2705,-1.2705,-1.2705,-1.2705,-1.2705,-1.279,-1.3151,-0.466,-0.4809,-0.4924,-0.5073,-0.5254,-0.5395,0.0,0.0,-0.5326,-0.5113,-0.5084,-0.5024,-0.4794,-0.4661,-0.4595,-0.4595,-0.4431,-0.43,-0.43,-0.43,-0.43,-0.43,-0.43,-0.43,-0.43,-0.43,-0.43,-0.43,-0.43,-0.43,-0.43,-0.43,-0.4303,-0.4308,-0.4449,-0.4566,-0.4698,-0.4893,-0.5012,-0.5018,-0.5018,-0.5018,-0.5018,-0.5018,-0.5018,-0.5018,-0.5018,-0.5132,-0.5476,-0.7314,-0.8232,-0.8609,-1.0389,-1.1111,-1.1111,-1.1111,-1.1123,-1.1208,-1.1727,-1.1908,-1.1908,-1.192,-1.2029,-1.2125,-1.1956,-1.2017,-1.2011,-1.1329,-1.1516,-1.2035,-1.2536,-1.2439,-1.2371,-1.2928,-1.3198,-1.3321,-1.3433,-1.3313,-1.3373,-1.3968,-1.4088,-1.4088,-1.4088,-1.4088,-1.4088,-1.4088,-1.4088,-1.4088,-1.4088,-1.4088,-1.4088,-1.4088,-1.4088,-1.4088,-1.4088,-1.4088,-1.4088,-1.4088,-1.3222,-1.2705,-1.2747,-1.2705,-1.2705,-1.2705,-1.2705,-1.2705,-1.2705,-1.2705,-1.2705,-1.2705,-1.2966,-1.3329,-0.4679,-0.4731,0.0,-0.5039,-0.514,-0.524,-0.5371,-0.5395,-0.5332,-0.5133,-0.5189,-0.5229,-0.5036,-0.4832,-0.4728,-0.4728,-0.4664,-0.4631,-0.4631,-0.4631,-0.4631,-0.4631,-0.4531,-0.4531,-0.4597,-0.4434,-0.4364,-0.4495,-0.4367,-0.43,-0.43,-0.43,-0.43,-0.43,-0.4341,-0.449,-0.4687,-0.4896,-0.5018,-0.5018,-0.5018,-0.5018,-0.5018,-0.5018,-0.5018,-0.5018,-0.5018,-0.5171,-0.5634,-0.7395,-0.8084,-0.8275,-1.0319,-1.1111,-1.1111,-1.1111,-1.1262,-1.151,-1.1817,-1.2143,-1.2421,-1.2421,-1.2469,-1.2506,-1.2445,-1.2469,-1.2397,-1.1799,-1.1736,-1.1922,-1.2155,-1.2361,-1.2638,-1.3069,-1.3497,-1.3831,-1.3881,-1.3821,-1.3834,-1.4048,-1.4088,-1.4088,-1.4088,-1.4088,-1.4088,-1.4088,-1.4088,-1.4088,-1.4088,-1.4088,-1.4088,-1.4088,-1.4088,-1.4088,-1.4088,-1.4088,-1.4088,-1.4088,-1.3222,-1.2705,-1.2705,-1.2705,-1.2705,-1.2705,-1.2705,-1.2705,-1.2705,-1.2705,-1.2705,-1.2705,-1.2966,-1.3329,-0.46,-0.4653,0.0,0.0,-0.5029,-0.5083,-0.5347,-0.5354,-0.527,-0.522,-0.5324,-0.5361,-0.5226,-0.5094,-0.4964,-0.4927,-0.4831,-0.4797,-0.4797,-0.4797,-0.4797,-0.4797,-0.4728,-0.4694,-0.4797,-0.4597,-0.4498,-0.4592,-0.4461,-0.4367,-0.43,-0.43,-0.43,-0.43,-0.4338,-0.4487,-0.4687,-0.4855,-0.4938,-0.5018,-0.5018,-0.5018,-0.5018,-0.5018,-0.5018,-0.5018,-0.5018,-0.5365,-0.606,-0.7429,-0.8122,-0.847,-1.0357,-1.1111,-1.1154,-1.1516,-1.1799,-1.2035,-1.2143,-1.2415,-1.2705,-1.2705,-1.2705,-1.2705,-1.2705,-1.2705,-1.2632,-1.2282,-1.2186,-1.2186,-1.2186,-1.2529,-1.2966,-1.327,-1.3652,-1.3955,-1.4088,-1.4088,-1.4088,-1.4088,-1.4088,-1.4088,-1.4088,-1.4088,-1.4088,-1.4088,-1.4088,-1.4088,-1.4088,-1.4088,-1.4088,-1.4088,-1.4088,-1.4088,-1.4088,-1.4088,-1.4088,-1.4088,-1.3313,-1.2881,-1.2918,-1.279,-1.2705,-1.2705,-1.2705,-1.2705,-1.2705,-1.2705,-1.2747,-1.2839,-1.3187,-1.3641,0.0,0.0,0.0,0.0,0.0,0.0,-0.532,-0.5237,-0.5137,-0.5361,-0.5392,-0.5388,-0.5395,-0.5395,-0.5326,-0.5156,-0.4957,-0.4831,-0.4831,-0.4831,-0.4831,-0.4831,-0.4797,-0.4797,-0.4831,-0.4797,-0.4761,-0.4625,-0.4592,-0.4528,-0.43,-0.43,-0.43,-0.43,-0.4446,-0.4564,-0.4687,-0.4773,-0.4858,-0.5018,-0.5018,-0.5018,-0.5018,-0.5018,-0.5018,-0.5018,-0.5018,-0.5598,-0.6637,-0.7464,-0.8304,-0.9198,-1.0545,-1.1074,-1.1238,-1.2312,-1.2705,-1.2705,-1.2705,-1.2705,-1.2705,-1.2705,-1.2705,-1.2705,-1.2705,-1.2705,-1.2705,-1.2705,-1.2705,-1.2705,-1.2705,-1.2973,-1.3277,-1.3561,-1.3597,-1.3688,-1.4039,-1.4088,-1.4088,-1.4088,-1.4088,-1.4088,-1.4088,-1.4088,-1.4088,-1.4088,-1.4088,-1.4088,-1.4088,-1.4088,-1.4088,-1.4088,-1.4088,-1.4088,-1.4088,-1.4088,-1.4088,-1.4088,-1.3532,-1.3277,-1.3355,-1.296,-1.2705,-1.2705,-1.2705,-1.2705,-1.2705,-1.2705,-1.2833,-1.3107,-1.3585,-1.4216,-0.4481,0.0,0.0,0.0,0.0,0.0,-0.5128,-0.5049,-0.505,-0.5341,-0.5274,-0.5226,-0.5375,-0.5395,-0.5395,-0.5326,-0.5263,-0.5229,-0.5229,-0.5229,-0.5229,-0.5229,-0.5093,-0.506,-0.5229,-0.4964,-0.4797,-0.4761,-0.4661,-0.4528,-0.43,-0.43,-0.43,-0.43,-0.4446,-0.4564,-0.4687,-0.4773,-0.4858,-0.5018,-0.5018,-0.5018,-0.5018,-0.5018,-0.5018,-0.5018,-0.5018,-0.5518,-0.6398,-0.7663,-0.8237,-0.8537,-1.0056,-1.085,-1.1238,-1.2312,-1.2705,-1.2705,-1.2705,-1.2705,-1.2705,-1.2705,-1.2705,-1.2705,-1.2705,-1.2705,-1.2705,-1.2705,-1.2705,-1.2705,-1.2705,-1.3264,-1.387,-1.3955,-1.3955,-1.3997,-1.4088,-1.4088,-1.4088,-1.4088,-1.4088,-1.4088,-1.4088,-1.4088,-1.4088,-1.4088,-1.4088,-1.4088,-1.4088,-1.4088,-1.4088,-1.4088,-1.4088,-1.4088,-1.4088,-1.4088,-1.4088,-1.4088,-1.3737,-1.3307,-1.2918,-1.3009,-1.2966,-1.2705,-1.2705,-1.2705,-1.2705,-1.2875,-1.3009,-1.31,-1.3517,-1.4047,-0.4474,-0.4491,-0.4528,-0.4682,0.0,0.0,-0.5015,-0.4988,-0.5023,-0.5416,-0.5335,-0.5274,-0.546,-0.544,-0.5395,-0.5395,-0.5395,-0.5395,-0.5395,-0.5395,-0.5395,-0.5395,-0.5349,-0.5326,-0.5402,-0.5252,-0.506,-0.493,-0.4761,-0.4564,-0.43,-0.43,-0.43,-0.43,-0.4363,-0.449,-0.461,-0.4645,-0.4743,-0.4866,-0.4915,-0.4903,-0.4903,-0.4993,-0.5018,-0.5018,-0.5018,-0.5285,-0.5789,-0.7153,-0.8181,-0.896,-0.9873,-1.0885,-1.1768,-1.1576,-1.2052,-1.2577,-1.1789,-1.2052,-1.2705,-1.2705,-1.218,-1.166,-1.2443,-1.2705,-1.2705,-1.2705,-1.1886,-1.1241,-1.2406,-1.2833,-1.3137,-1.3913,-1.4088,-1.4088,-1.4088,-1.4088,-1.4088,-1.4088,-1.4088,-1.4088,-1.4088,-1.4088,-1.4088,-1.4088,-1.4088,-1.4262,-1.475,-1.3318,-1.2121,-1.1845,-1.3179,-1.3483,-1.1929,-1.3222,-1.4088,-1.4088,-1.3913,-1.3646,-1.3307,-1.3234,-1.3058,-1.2705,-1.2705,-1.279,-1.3009,-1.3052,-1.3242,-1.357,-1.3877,-1.4352,-0.4433,-0.4491,-0.4528,-0.4682,-0.4604,0.0,-0.4978,-0.4965,-0.5013,-0.543,-0.5453,-0.5409,-0.5515,-0.5477,-0.5395,-0.5395,-0.5409,-0.5416,-0.5395,-0.5409,-0.5419,-0.5419,-0.5556,-0.5559,-0.5457,-0.5569,-0.548,-0.5156,-0.4903,-0.4631,-0.43,-0.43,-0.43,-0.43,-0.43,-0.4355,-0.4503,-0.4503,-0.4575,-0.4709,-0.4781,-0.4804,-0.482,-0.493,-0.5018,-0.5018,-0.5018,-0.5018,-0.5107,-0.6251,-0.7865,-0.967,-0.9758,-1.0845,-1.218,-1.0443,-1.088,-1.2052,-1.0443,-1.1052,-1.2491,-1.2491,-1.144,-1.0443,-1.1703,-1.2095,-1.2095,-1.2095,-1.0332,-0.9038,-1.1585,-1.1628,-1.1413,-1.3094,-1.3786,-1.4088,-1.4088,-1.4188,-1.4282,-1.4282,-1.3871,-1.3483,-1.3483,-1.3483,-1.3521,-1.3606,-1.3582,-1.3983,-1.4971,-1.1907,-0.9384,-0.8796,-1.1658,-1.2267,-0.8994,-1.1646,-1.3659,-1.4088,-1.4088,-1.4088,-1.4088,-1.3532,-1.3058,-1.2705,-1.2705,-1.2918,-1.3434,-1.3222,-1.3525,-1.4209,-1.4382,-1.479,-0.4348,-0.4491,-0.4528,-0.4682,-0.4604,0.0,-0.4884,-0.4843,-0.4796,-0.5006,-0.5118,-0.5154,-0.5184,-0.5298,-0.5395,-0.5395,-0.5498,-0.5535,-0.5412,-0.5501,-0.5545,-0.5545,-0.5674,-0.5749,-0.5718,-0.5742,-0.5627,-0.5274,-0.4889,-0.4528,-0.43,-0.43,-0.43,-0.43,-0.43,-0.4355,-0.4503,-0.4503,-0.458,-0.48,-0.4785,-0.4849,-0.4944,-0.5007,-0.5018,-0.5018,-0.5018,-0.5018,-0.5026,-0.5385,-0.6607,-0.8258,-0.8915,-0.9686,-1.0356,-0.9497,-0.9414,-0.9758,-0.9836,-1.0491,-1.1235,-1.1235,-1.1666,-1.166,-0.9013,-0.8185,-0.8185,-0.8185,-0.7797,-0.7716,-0.9034,-0.9257,-0.9218,-0.9602,-1.1929,-1.4088,-1.4088,-1.483,-1.5491,-1.5491,-1.2339,-0.9694,-0.9694,-0.9694,-0.9866,-1.0416,-1.0464,-1.0571,-1.0774,-1.0113,-0.9575,-0.9433,-1.004,-1.018,-0.9469,-0.9572,-1.0939,-1.3913,-1.4088,-1.4088,-1.4088,-1.361,-1.3137,-1.2705,-1.2705,-1.296,-1.3555,-1.3512,-1.3721,-1.4126,-1.4168,-1.4489,-0.394,-0.4267,-0.4508,-0.4586,-0.4604,0.0,0.0,-0.4914,-0.4952,-0.5108,-0.5135,-0.51,-0.51,-0.5135,-0.5162,-0.5237,-0.5376,-0.5484,-0.5405,-0.559,-0.5694,-0.5694,-0.5827,-0.5884,-0.581,-0.5871,-0.5745,-0.5422,-0.507,-0.4756,-0.4557,-0.44,-0.43,-0.43,-0.43,-0.4327,-0.4384,-0.4384,-0.4474,-0.4654,-0.4713,-0.4809,-0.489,-0.4988,-0.5018,-0.5018,-0.5018,-0.5018,-0.5026,-0.514,-0.6169,-0.7711,-0.8442,-0.8917,-0.9091,-0.8321,-0.8846,-0.9806,-0.8838,-0.9318,-1.0231,-0.9318,-1.0664,-1.2009,-0.8229,-0.7095,-0.7095,-0.7095,-0.7275,-0.754,-0.7808,-0.8208,-0.8476,-0.7984,-0.9637,-1.137,-1.137,-1.1787,-1.2215,-1.2215,-1.0519,-0.9096,-0.9096,-0.9096,-0.9218,-0.9526,-1.1375,-1.1955,-0.9871,-1.1419,-1.2678,-1.2678,-1.2678,-1.2443,-1.1886,-1.0153,-0.9757,-1.1273,-1.3094,-1.387,-1.3434,-1.3616,-1.3434,-1.2705,-1.297,-1.3372,-1.3945,-1.3941,-1.3969,-1.4088,-1.4235,-1.4543,-0.3328,-0.3764,-0.4151,-0.4207,-0.4381,-0.4559,0.0,0.0,0.0,-0.5252,-0.5179,-0.5079,-0.5026,-0.4945,-0.4935,-0.5076,-0.526,-0.5405,-0.5436,-0.5633,-0.58,-0.58,-0.5962,-0.6023,-0.5901,-0.5949,-0.5838,-0.5567,-0.5259,-0.4991,-0.4824,-0.4521,-0.4322,-0.43,-0.43,-0.43,-0.43,-0.4322,-0.439,-0.4542,-0.4665,-0.4751,-0.4833,-0.4933,-0.5018,-0.5018,-0.5018,-0.5018,-0.5023,-0.5116,-0.5947,-0.7155,-0.7788,-0.8186,-0.8344,-0.7399,-0.8348,-0.9813,-0.7779,-0.8097,-0.9096,-0.7577,-0.9139,-1.1052,-0.8009,-0.7095,-0.7095,-0.7095,-0.7408,-0.7632,-0.7231,-0.7852,-0.8388,-0.7588,-0.7988,-0.8612,-0.8612,-0.8612,-0.8612,-0.8612,-0.9141,-0.9579,-0.9579,-0.9579,-0.9579,-0.9579,-1.3162,-1.4567,-1.1228,-1.3746,-1.5784,-1.5784,-1.5784,-1.5451,-1.4502,-1.2197,-1.0236,-0.8898,-1.2174,-1.3707,-1.2753,-1.344,-1.3534,-1.2856,-1.3326,-1.3817,-1.4274,-1.4142,-1.4137,-1.4213,-1.4392,-1.471,-0.2485,-0.2771,-0.2958,-0.3126,-0.3537,-0.3959,-0.4159,0.0,-0.5029,-0.4816,0.0,-0.5019,-0.4789,0.0,0.0,-0.5076,-0.526,-0.5443,-0.5545,-0.5701,-0.58,-0.58,-0.6057,-0.6265,-0.6248,-0.5979,-0.5801,-0.5767,-0.5283,-0.4963,-0.4824,-0.4599,-0.444,-0.4303,-0.43,-0.43,-0.43,-0.4435,-0.4547,-0.4668,-0.4757,-0.4839,-0.4996,-0.501,-0.5018,-0.5018,-0.5018,-0.5018,-0.5018,-0.5031,-0.5303,-0.5748,-0.6143,-0.7116,-0.8215,-0.7246,-0.7086,-0.724,-0.7122,-0.7228,-0.7401,-0.7183,-0.7401,-0.7661,-0.7228,-0.7095,-0.7095,-0.7095,-0.7139,-0.7183,-0.7095,-0.7852,-0.8568,-0.8476,-0.852,-0.8612,-0.8612,-0.8612,-0.8612,-0.8612,-0.9141,-0.9579,-0.9579,-0.9579,-0.9579,-0.9579,-1.3162,-1.5635,-1.5153,-1.5486,-1.5784,-1.5784,-1.5784,-1.5724,-1.5598,-1.5272,-1.3502,-0.9705,-1.2486,-1.3786,-1.2741,-1.279,-1.3021,-1.3417,-1.3634,-1.3887,-1.4222,-1.3911,-1.4015,-1.4531,-1.4491,-1.4816,-0.1731,-0.2102,-0.2446,-0.2648,-0.2952,-0.321,-0.3419,-0.4012,-0.447,-0.4225,0.0,0.0,0.0,0.0,0.0,0.0,-0.526,-0.5419,-0.5481,-0.5654,-0.5833,-0.5922,-0.5969,-0.603,-0.6118,-0.601,-0.5959,-0.6073,-0.5484,-0.5146,-0.5189,-0.4759,-0.4484,-0.4435,-0.4336,-0.4333,-0.4432,-0.4482,-0.4602,-0.476,-0.4774,-0.486,-0.5018,-0.5018,-0.5018,-0.5018,-0.5018,-0.5018,-0.5018,-0.5171,-0.5482,-0.5867,-0.605,-0.6587,-0.73,-0.7011,-0.6923,-0.698,-0.7065,-0.7095,-0.7095,-0.7095,-0.7095,-0.7095,-0.7095,-0.7095,-0.7095,-0.7095,-0.7095,-0.7095,-0.7095,-0.7852,-0.8612,-0.8612,-0.8612,-0.8612,-0.8612,-0.8612,-0.8612,-0.8612,-0.9141,-0.9579,-0.9579,-0.9579,-1.0404,-1.2823,-1.4663,-1.5784,-1.5784,-1.5302,-1.4669,-1.4071,-1.5094,-1.5551,-1.4877,-1.4816,-1.3823,-1.1551,-1.3244,-1.3821,-1.2747,-1.3006,-1.3284,-1.3513,-1.3737,-1.3971,-1.4257,-1.4096,-1.421,-1.4661,-1.4579,-1.4765,-0.099,-0.1379,-0.1782,-0.1925,-0.2212,-0.2485,-0.2634,-0.3296,-0.3855,-0.384,-0.4298,0.0,0.0,0.0,-0.4935,-0.5076,0.0,-0.5347,-0.5388,-0.5579,-0.5739,-0.5891,-0.5844,-0.5844,-0.5919,-0.5895,-0.5989,-0.6183,-0.5584,-0.5286,-0.5501,-0.4918,-0.4588,-0.4555,-0.4473,-0.4471,-0.4555,-0.4577,-0.4648,-0.4795,-0.4831,-0.4893,-0.5018,-0.5018,-0.5018,-0.5018,-0.5018,-0.5018,-0.5015,-0.5285,-0.5631,-0.5959,-0.6061,-0.6288,-0.6599,-0.681,-0.6923,-0.6987,-0.7068,-0.7095,-0.7095,-0.7095,-0.7095,-0.7095,-0.7095,-0.7095,-0.7095,-0.7095,-0.7095,-0.7095,-0.7095,-0.7986,-0.8857,-0.8857,-0.8857,-0.8857,-0.8857,-0.8751,-0.8669,-0.882,-0.9275,-0.9579,-0.9579,-0.9579,-1.0596,-1.365,-1.5051,-1.5683,-1.5397,-1.4968,-1.4325,-1.3268,-1.4765,-1.5345,-1.4234,-1.4169,-1.3722,-1.2765,-1.3429,-1.3419,-1.2392,-1.3052,-1.3489,-1.3586,-1.3797,-1.4039,-1.4298,-1.4174,-1.428,-1.458,-1.466,-1.4858,-0.0336,-0.0452,-0.0563,-0.0563,-0.1191,-0.1834,-0.1824,-0.2563,-0.3359,-0.3889,-0.4054,-0.4284,-0.4816,-0.4884,-0.4935,-0.5076,-0.5103,0.0,0.0,-0.5402,-0.5467,-0.5586,-0.5722,-0.5803,-0.581,-0.5684,-0.5725,-0.5979,-0.549,-0.5286,-0.5501,-0.5052,-0.4768,-0.4687,-0.4679,-0.4679,-0.4684,-0.4766,-0.4792,-0.4798,-0.4917,-0.5012,-0.5018,-0.5018,-0.5018,-0.5018,-0.5018,-0.5018,-0.5015,-0.5285,-0.5485,-0.5649,-0.5834,-0.6153,-0.6522,-0.682,-0.6837,-0.6756,-0.6997,-0.7095,-0.7095,-0.7095,-0.7095,-0.7095,-0.7095,-0.7095,-0.7095,-0.7095,-0.7095,-0.7095,-0.7095,-0.8322,-0.9546,-0.9546,-0.9546,-0.9546,-0.9546,-0.9051,-0.8771,-0.9462,-0.9562,-0.9579,-0.9579,-0.9579,-0.9628,-0.9772,-1.3216,-1.5445,-1.449,-1.5159,-1.5384,-1.4345,-1.5188,-1.5384,-1.4393,-1.4292,-1.3849,-1.2771,-1.2735,-1.2366,-1.1489,-1.2568,-1.3372,-1.3761,-1.3857,-1.4039,-1.4298,-1.4032,-1.4039,-1.434,-1.4765,-1.5152,-0.0099,-0.0131,-0.0196,-0.032,-0.0604,-0.0856,-0.1099,-0.1702,-0.2269,-0.2564,-0.3398,-0.4157,-0.4339,-0.4852,-0.5259,-0.5277,-0.5284,-0.5334,0.0,-0.5395,-0.5416,-0.5467,-0.5654,-0.5766,-0.5671,-0.5701,-0.5813,-0.5976,-0.5575,-0.5386,-0.5561,-0.5068,-0.4803,-0.4775,-0.4632,-0.4629,-0.4772,-0.4744,-0.4784,-0.4917,-0.4996,-0.5018,-0.5018,-0.5018,-0.5018,-0.5018,-0.5018,-0.5018,-0.5015,-0.5404,-0.5701,-0.5981,-0.6306,-0.6535,-0.6722,-0.6763,-0.681,-0.6836,-0.7031,-0.7095,-0.7095,-0.7095,-0.7095,-0.7095,-0.7095,-0.7095,-0.7095,-0.7095,-0.7095,-0.7186,-0.7584,-0.8129,-0.8733,-0.943,-0.9579,-0.9579,-0.9579,-0.9437,-0.934,-0.953,-0.9579,-0.9579,-0.9579,-0.9579,-1.0551,-1.3312,-1.4627,-1.522,-1.4885,-1.4831,-1.4589,-1.4025,-1.4492,-1.4582,-1.4019,-1.3954,-1.3598,-1.2753,-1.2705,-1.2689,-1.2595,-1.3245,-1.3682,-1.3857,-1.4063,-1.4208,-1.4298,-1.4208,-1.4208,-1.4292,-1.4636,-1.4886,0.0,0.0,-0.0033,-0.0161,-0.0257,-0.0353,-0.0536,-0.1012,-0.146,-0.1726,-0.2654,-0.3463,-0.3664,-0.4464,-0.5082,-0.5099,-0.5305,-0.5457,0.0,-0.5443,-0.5457,-0.5402,-0.5562,-0.563,-0.5593,-0.5623,-0.5752,-0.5973,-0.5646,-0.5479,-0.5589,-0.5207,-0.4963,-0.4866,-0.4762,-0.476,-0.4863,-0.4809,-0.486,-0.5018,-0.5018,-0.5018,-0.5018,-0.5018,-0.5018,-0.5018,-0.5018,-0.5064,-0.5183,-0.5621,-0.5882,-0.6117,-0.6536,-0.6715,-0.6749,-0.6827,-0.6919,-0.6974,-0.7065,-0.7095,-0.7095,-0.7095,-0.7095,-0.7095,-0.7095,-0.7095,-0.7095,-0.7095,-0.725,-0.7503,-0.7891,-0.7988,-0.8287,-0.9331,-0.9579,-0.9579,-0.9579,-0.9579,-0.9579,-0.9579,-0.9579,-0.9579,-0.9579,-0.948,-1.0645,-1.4178,-1.4586,-1.4598,-1.4939,-1.4694,-1.4357,-1.3984,-1.4165,-1.4208,-1.3984,-1.3851,-1.358,-1.3115,-1.3025,-1.3097,-1.3288,-1.3652,-1.3851,-1.3906,-1.4165,-1.4298,-1.4298,-1.4298,-1.4298,-1.4298,-1.4496,-1.4544]}]]